Date StartTime U_cm/s V_cm/s W_cm/s Ustd_cm/s Vstd_cm/s Wstd_cm/s Uvar_(cm/s)^2 Vvar_(cm/s)^2 Wvar_(cm/s)^2 KE_(m/s)^2 TurbulentKE_(m/s)^2 HorizWindSpeed_cm/s FrictionSpeec_cm/s DragCoef SpeedOfSound_m/s SonicTemperature_C Pressure_mb 
12/28/2014  00:00:00       -1.211       -2.297        4.768       15.417        7.654        7.481      237.669       58.577       55.973        0.019        0.018        2.597        5.374        4.284      331.330       -0.724      867.260
12/28/2014  00:01:00      -43.407      -21.172       -5.091       26.054       10.942        6.473      678.834      119.717       41.901        0.160        0.042       48.295       10.050        0.043      331.320       -0.741      867.256
12/28/2014  00:02:00     -116.591      -31.740      -13.140       26.363       11.898       10.752      695.016      141.560      115.598        0.786        0.048      120.834        8.187        0.005      331.307       -0.761      867.256
12/28/2014  00:03:00     -129.638      -62.009       -7.529       25.207       19.307       13.279      635.381      372.743      176.324        1.095        0.059      143.706       13.485        0.009      331.282       -0.804      867.263
12/28/2014  00:04:00     -111.693      -44.840      -11.795       33.612       27.600       21.879     1129.784      761.742      478.691        0.850        0.119      120.358       19.131        0.025      331.242       -0.868      867.264
12/28/2014  00:05:00      -42.465      -29.304        1.314       45.832       24.679       17.713     2100.599      609.071      313.761        0.284        0.151       51.594       22.572        0.191      331.280       -0.806      867.247
12/28/2014  00:06:00      -17.463      -19.466       12.524       21.680       17.344       14.219      470.004      300.806      202.194        0.091        0.049       26.151       13.155        0.253      331.188       -0.957      867.203
12/28/2014  00:07:00      -49.268      -28.575       -5.464       22.560       12.616        5.548      508.971      159.155       30.785        0.199        0.035       56.955        6.512        0.013      331.273       -0.817      867.169
12/28/2014  00:08:00      -62.343      -15.007       -1.972       17.089       12.162        8.861      292.043      147.924       78.525        0.232        0.026       64.124        9.487        0.022      331.310       -0.758      867.155
12/28/2014  00:09:00      -57.502      -14.540       -5.335        8.406        8.865        6.329       70.655       78.593       40.053        0.187        0.009       59.312        3.884        0.004      331.430       -0.561      867.148
12/28/2014  00:10:00      -92.251      -12.930      -13.056       15.795       13.693        9.397      249.478      187.491       88.312        0.469        0.026       93.153        8.748        0.009      331.353       -0.688      867.166
12/28/2014  00:11:00     -117.972      -18.681      -16.730       17.662       17.135       12.657      311.951      293.608      160.206        0.766        0.038      119.442        8.784        0.005      331.262       -0.835      867.193
12/28/2014  00:12:00      -94.568      -10.266       -9.096       24.506       20.912       17.054      600.538      437.330      290.847        0.523        0.066       95.124       14.867        0.024      331.241       -0.870      867.228
12/28/2014  00:13:00      -43.542       10.078       -3.734       24.306       21.190       14.616      590.787      449.032      213.635        0.163        0.063       44.693       12.778        0.082      331.292       -0.787      867.239
12/28/2014  00:14:00      -63.963       17.522      -10.439       24.604       16.783        9.270      605.377      281.671       85.932        0.274        0.049       66.319        3.383        0.003      331.442       -0.540      867.242
12/28/2014  00:15:00      -70.336      -34.531       -0.301       35.833       27.028       23.078     1284.007      730.535      532.581        0.434        0.127       78.355       22.107        0.080      331.309       -0.758      867.229
12/28/2014  00:16:00     -188.628      -98.102      -12.044       66.708       40.062       28.930     4449.926     1604.937      836.937        2.612        0.345      212.614       22.422        0.011      331.219       -0.910      867.231
12/28/2014  00:17:00     -168.171      -19.994       -9.569       48.088       52.813       28.576     2312.488     2789.265      816.614        1.734        0.296      169.355       28.637        0.029      331.150       -1.023      867.227
12/28/2014  00:18:00      -96.196        6.489       -8.369       69.066       31.087       19.257     4770.162      966.382      370.831        0.774        0.305       96.415       26.833        0.077      331.209       -0.924      867.190
12/28/2014  00:19:00      -78.360      -24.561       -4.715       27.816       26.579       17.362      773.735      706.464      301.448        0.427        0.089       82.119        5.655        0.005      331.268       -0.825      867.159
12/28/2014  00:20:00     -100.984      -53.309       -7.287       21.206       28.615       15.984      449.694      818.839      255.483        0.731        0.076      114.191       11.922        0.011      331.285       -0.797      867.150
12/28/2014  00:21:00     -111.705      -64.177      -14.222       18.261       26.490       12.234      333.446      701.715      149.666        0.899        0.059      128.828        1.564        0.000      331.367       -0.664      867.131
12/28/2014  00:22:00     -102.313      -45.272        0.381       20.658       22.675       16.639      426.768      514.174      276.863        0.687        0.061      111.882       13.898        0.015      331.371       -0.657      867.103
12/28/2014  00:23:00     -107.421      -44.426       -6.967       37.771       27.045       17.390     1426.626      731.436      302.406        0.801        0.123      116.245       15.888        0.019      331.439       -0.545      867.095
12/28/2014  00:24:00     -119.149      -52.428      -18.016       20.550       33.918       18.113      422.297     1150.417      328.089        0.958        0.095      130.173       12.649        0.009      331.385       -0.634      867.109
12/28/2014  00:25:00     -119.073      -28.387      -12.844       23.885       24.835       14.661      570.478      616.797      214.947        0.828        0.070      122.410       10.305        0.007      331.333       -0.719      867.120
12/28/2014  00:26:00      -85.904      -24.759       -8.475       27.766       30.696       14.966      770.938      942.216      223.990        0.500        0.097       89.401       13.512        0.023      331.290       -0.789      867.126
12/28/2014  00:27:00      -67.924       -6.954       -1.676       24.809       16.979       14.104      615.476      288.292      198.924        0.288        0.055       68.279       12.694        0.035      331.301       -0.773      867.127
12/28/2014  00:28:00      -70.113        1.427       -5.218       19.978       14.338       10.750      399.131      205.581      115.563        0.283        0.036       70.128       11.011        0.025      331.356       -0.682      867.133
12/28/2014  00:29:00      -87.979       24.828       -5.607       21.753       17.188       12.199      473.173      295.427      148.825        0.465        0.046       91.416        6.983        0.006      331.610       -0.263      867.133
12/28/2014  00:30:00      -69.796       25.845       -3.550       22.414       18.657       13.798      502.387      348.072      190.397        0.330        0.052       74.427        5.916        0.006      331.617       -0.252      867.140
12/28/2014  00:31:00      -86.180        7.103      -11.123       26.387       16.993       14.916      696.297      288.761      222.496        0.440        0.060       86.472       10.945        0.016      331.623       -0.242      867.156
12/28/2014  00:32:00      -46.547      -25.452       -8.987       19.529       12.902       11.483      381.370      166.455      131.860        0.179        0.034       53.051        7.726        0.021      331.579       -0.316      867.166
12/28/2014  00:33:00      -27.042      -30.667       -8.802       11.780        8.013        7.236      138.769       64.203       52.354        0.100        0.013       40.887        3.438        0.007      331.599       -0.283      867.168
12/28/2014  00:34:00      -21.623      -27.980       -9.287        6.646        9.762        7.857       44.166       95.290       61.731        0.077        0.010       35.361        5.227        0.022      331.725       -0.077      867.167
12/28/2014  00:35:00       -5.225      -31.383        1.377        7.743        7.881        5.365       59.960       62.114       28.781        0.058        0.008       31.815        3.425        0.012      331.817        0.077      867.164
12/28/2014  00:36:00      -37.802      -21.495       -1.933       10.696       10.826        6.243      114.414      117.195       38.974        0.108        0.014       43.486        4.485        0.011      331.703       -0.111      867.142
12/28/2014  00:37:00      -56.073      -20.607       -6.707        9.234        8.906        5.928       85.270       79.314       35.143        0.191        0.010       59.740        4.595        0.006      331.608       -0.266      867.113
12/28/2014  00:38:00      -80.072      -26.616       -3.217       14.378       13.028        8.756      206.719      169.732       76.670        0.379        0.023       84.379        4.671        0.003      331.560       -0.347      867.091
12/28/2014  00:39:00      -72.955      -42.514       -8.230       36.708       19.194       16.731     1347.472      368.402      279.935        0.460        0.100       84.439        4.679        0.003      331.384       -0.636      867.066
12/28/2014  00:40:00      -69.229      -41.401       -4.443       25.331       17.850       12.950      641.635      318.628      167.706        0.383        0.056       80.664       10.063        0.016      331.383       -0.638      867.042
12/28/2014  00:41:00      -47.263      -35.837        4.761       33.567       23.198       15.237     1126.710      538.134      232.171        0.272        0.095       59.314       18.016        0.092      331.470       -0.495      867.033
12/28/2014  00:42:00      -30.835      -37.084        6.660       28.551       22.270       19.610      815.139      495.949      384.537        0.203        0.085       48.229       17.644        0.134      331.463       -0.507      867.049
12/28/2014  00:43:00      -70.298      -40.398       -2.365       33.590       24.964       15.223     1128.288      623.200      231.749        0.428        0.099       81.079       14.340        0.031      331.417       -0.583      867.058
12/28/2014  00:44:00      -77.291      -50.278       -6.173       17.428       19.779       14.069      303.732      391.194      197.944        0.472        0.045       92.206       10.395        0.013      331.438       -0.548      867.047
12/28/2014  00:45:00      -66.652      -26.189       -5.973       15.299       23.456       11.346      234.069      550.191      128.730        0.304        0.046       71.613        3.843        0.003      331.458       -0.515      867.051
12/28/2014  00:46:00      -49.187      -12.215       -2.740       14.295       14.395       10.568      204.349      207.209      111.682        0.155        0.026       50.681        8.496        0.028      331.458       -0.514      867.046
12/28/2014  00:47:00      -34.415      -11.314       -4.768       14.671        9.639        8.580      215.224       92.912       73.618        0.086        0.019       36.227        9.137        0.064      331.451       -0.527      867.043
12/28/2014  00:48:00      -54.958      -20.020       -8.187       10.177        8.091        5.945      103.569       65.469       35.345        0.185        0.010       58.491        4.143        0.005      331.430       -0.562      867.047
12/28/2014  00:49:00      -59.541      -18.546       -6.822       15.097       10.619        5.748      227.907      112.763       33.036        0.215        0.019       62.362        5.665        0.008      331.500       -0.446      867.077
12/28/2014  00:50:00      -91.191      -20.025      -12.193       16.891       15.277        7.914      285.308      233.391       62.632        0.472        0.029       93.364        4.791        0.003      331.433       -0.556      867.109
12/28/2014  00:51:00     -116.528      -50.797       -8.855       22.774       22.246       13.375      518.651      494.888      178.880        0.871        0.060      127.119        6.811        0.003      331.360       -0.675      867.125
12/28/2014  00:52:00     -116.544      -46.455        4.799       32.155       33.904       23.583     1033.961     1149.464      556.167        0.925        0.137      125.462       18.516        0.022      331.346       -0.698      867.116
12/28/2014  00:53:00      -72.925      -60.417       -0.254       40.228       32.958       22.241     1618.292     1086.218      494.643        0.608        0.160       94.701       14.954        0.025      331.403       -0.605      867.084
12/28/2014  00:54:00     -110.638      -95.833       -3.933       32.837       34.158       22.578     1078.263     1166.795      509.787        1.210        0.138      146.372       16.577        0.013      331.437       -0.548      867.055
12/28/2014  00:55:00      -83.831      -70.093        6.039       59.274       47.329       32.216     3513.423     2240.016     1037.872        0.938        0.340      109.274       31.023        0.081      331.363       -0.670      867.034
12/28/2014  00:56:00     -107.314      -55.966        4.784       46.231       32.178       26.137     2137.338     1035.425      683.161        0.926        0.193      121.031       23.376        0.037      331.258       -0.842      867.008
12/28/2014  00:57:00     -117.432      -67.816       -1.750       24.300       24.203       15.241      590.476      585.803      232.285        0.990        0.070      135.607       13.082        0.009      331.290       -0.790      867.002
12/28/2014  00:58:00      -99.098      -31.256        2.825       35.295       30.817       19.104     1245.768      949.717      364.963        0.668        0.128      103.911       18.305        0.031      331.294       -0.782      866.988
12/28/2014  00:59:00     -116.275      -69.121       -7.427       61.327       27.121       24.418     3761.056      735.545      596.257        1.172        0.255      135.268       30.734        0.052      331.326       -0.730      867.004
12/28/2014  01:00:00     -114.258      -59.784       -4.994       33.412       53.051       19.283     1116.363     2814.375      371.822        1.048        0.215      128.953       21.881        0.029      331.237       -0.876      867.027
12/28/2014  01:01:00      -95.743        1.731      -13.172       28.558       24.012       15.353      815.568      576.553      235.719        0.549        0.081       95.759       12.541        0.017      331.197       -0.944      867.061
12/28/2014  01:02:00      -75.342       11.449      -11.371       28.797       20.782       16.539      829.257      431.873      273.527        0.374        0.077       76.207       10.546        0.019      331.211       -0.920      867.066
12/28/2014  01:03:00      -58.304       26.735      -12.483       28.070       15.829       11.859      787.926      250.542      140.625        0.272        0.059       64.141        7.907        0.015      331.369       -0.660      867.063
12/28/2014  01:04:00      -50.128       42.571      -14.289       14.844       17.816        9.683      220.331      317.394       93.761        0.258        0.032       65.765        6.804        0.011      331.480       -0.477      867.063
12/28/2014  01:05:00      -57.987       36.010      -15.850       18.726       21.182       15.333      350.681      448.670      235.087        0.297        0.052       68.259       12.422        0.033      331.359       -0.677      867.083
12/28/2014  01:06:00      -38.873       -9.624       -4.620       15.698       19.778       12.183      246.417      391.178      148.428        0.121        0.039       40.046        7.316        0.033      331.367       -0.664      867.098
12/28/2014  01:07:00      -28.721      -13.455       -3.327       14.465       12.381        5.893      209.222      153.291       34.723        0.071        0.020       31.716        4.862        0.023      331.325       -0.733      867.091
12/28/2014  01:08:00       16.762       26.377        3.543       14.274       19.013       12.994      203.752      361.508      168.844        0.086        0.037       31.252       10.627        0.116      331.338       -0.711      867.073
12/28/2014  01:09:00        2.797       23.119       -9.209       15.591       13.556        4.950      243.078      183.754       24.502        0.054        0.023       23.287        8.283        0.127      331.460       -0.511      867.046
12/28/2014  01:10:00      -43.912        6.880      -11.265       11.534       12.726        7.115      133.026      161.953       50.624        0.122        0.017       44.448        4.488        0.010      331.483       -0.474      867.010
12/28/2014  01:11:00       -2.982       -9.108       -0.978       12.708        8.723        6.295      161.482       76.084       39.625        0.018        0.014        9.584        6.138        0.410      331.507       -0.435      866.958
12/28/2014  01:12:00       21.573       14.712       12.734       11.154        9.876        8.331      124.410       97.526       69.402        0.057        0.015       26.112        6.562        0.063      331.525       -0.404      866.942
12/28/2014  01:13:00        1.158        5.654        1.921        5.079        8.168        4.751       25.798       66.716       22.570        0.008        0.006        5.771        4.588        0.632      331.444       -0.538      866.949
12/28/2014  01:14:00      -48.539      -21.395       -5.409       28.162       15.197        6.173      793.076      230.959       38.104        0.195        0.053       53.045       10.573        0.040      331.459       -0.515      866.964
12/28/2014  01:15:00     -123.505      -43.727       -7.796       27.162       23.444        9.375      737.768      549.621       87.887        0.930        0.069      131.017        3.559        0.001      331.403       -0.605      866.984
12/28/2014  01:16:00     -129.030      -59.409       -3.963       31.708       23.103       16.331     1005.416      533.740      266.715        1.100        0.090      142.050       15.369        0.012      331.397       -0.615      867.004
12/28/2014  01:17:00      -48.016      -20.891        2.383       39.561       20.496       16.504     1565.097      420.081      272.368        0.250        0.113       52.364       18.504        0.125      331.448       -0.531      866.997
12/28/2014  01:18:00        3.469       -6.876        1.828        7.598        9.148       11.738       57.731       83.694      137.786        0.017        0.014        7.701        8.002        1.080      331.550       -0.364      866.964
12/28/2014  01:19:00      -46.582      -20.332       -5.770       32.365       14.295       12.567     1047.505      204.334      157.924        0.201        0.070       50.826       10.379        0.042      331.640       -0.215      866.950
12/28/2014  01:20:00     -145.127      -38.598       -6.349       28.502       29.084       16.051      812.345      845.898      257.627        1.225        0.096      150.172       12.939        0.007      331.486       -0.469      866.973
12/28/2014  01:21:00      -49.826      -30.617        1.357       47.229       28.719       15.895     2230.556      824.802      252.649        0.336        0.165       58.481        7.501        0.016      331.443       -0.539      866.962
12/28/2014  01:22:00       52.733       47.465       15.020       27.044       32.395       20.976      731.370     1049.436      439.981        0.374        0.111       70.948       13.915        0.038      331.608       -0.267      866.895
12/28/2014  01:23:00       -2.971       24.585       17.321       26.634       29.586       30.679      709.379      875.311      941.225        0.172        0.126       24.764       27.748        1.256      331.702       -0.112      866.878
12/28/2014  01:24:00     -141.082      -40.871      -12.904       50.448       44.936       19.535     2544.986     2019.224      381.608        1.334        0.247      146.883       17.468        0.014      331.749       -0.036      866.924
12/28/2014  01:25:00     -160.271      -55.720       -5.190       59.662       37.932       26.540     3559.554     1438.847      704.370        1.726        0.285      169.681       28.644        0.028      331.643       -0.210      866.925
12/28/2014  01:26:00      -28.888      -20.089       12.896       35.642       35.591       20.375     1270.349     1266.696      415.120        0.218        0.148       35.186       23.500        0.446      331.792        0.036      866.893
12/28/2014  01:27:00       17.102       34.152       41.186       26.204       22.104       16.110      686.656      488.569      259.533        0.229        0.072       38.195       15.918        0.174      331.714       -0.091      866.853
12/28/2014  01:28:00        0.491      -14.086       12.070       15.906       29.808       19.310      252.997      888.501      372.877        0.093        0.076       14.094       19.704        1.955      331.838        0.112      866.881
12/28/2014  01:29:00       -0.833      -20.978       14.370       31.623       23.378       14.828     1000.030      546.528      219.855        0.121        0.088       20.994       14.064        0.449      331.929        0.262      866.917
12/28/2014  01:30:00       -7.619      -13.104       -0.225       26.878       12.209       12.740      722.431      149.051      162.320        0.063        0.052       15.158       10.508        0.481      331.915        0.237      866.938
12/28/2014  01:31:00      -19.310        6.349       -7.850       12.938       13.030        8.988      167.388      169.768       80.792        0.045        0.021       20.327        6.642        0.107      331.787        0.027      866.946
12/28/2014  01:32:00       -2.050       -2.115       -0.743       11.516       17.436       14.211      132.617      304.000      201.949        0.032        0.032        2.946       10.901       13.695      331.827        0.093      866.930
12/28/2014  01:33:00       41.778       30.315       28.957       32.568       22.905       18.439     1060.680      524.625      340.014        0.271        0.096       51.618       15.511        0.090      331.801        0.051      866.886
12/28/2014  01:34:00       -6.540       -3.069       29.071       23.146       29.762       21.446      535.730      885.776      459.918        0.139        0.094        7.224       17.780        6.058      331.781        0.017      866.857
12/28/2014  01:35:00       18.244      -40.105       28.355       28.784       53.262       32.047      828.535     2836.850     1026.993        0.372        0.235       44.060       21.650        0.241      331.725       -0.074      866.863
12/28/2014  01:36:00       -2.292       17.787       63.278       17.571       25.683       21.161      308.735      659.604      447.789        0.287        0.071       17.934       14.990        0.699      331.701       -0.114      866.893
12/28/2014  01:37:00       -2.266      -19.426       33.969       25.931       28.903       18.602      672.417      835.366      346.046        0.169        0.093       19.558       17.130        0.767      331.741       -0.048      866.939
12/28/2014  01:38:00        7.670       54.133       71.977       24.487       34.124       18.255      599.629     1164.465      333.237        0.513        0.105       54.674       17.281        0.100      331.584       -0.306      866.991
12/28/2014  01:39:00        4.021        7.282       49.028       16.979       31.255       15.019      288.279      976.881      225.558        0.198        0.075        8.319       15.909        3.657      331.592       -0.293      867.027
12/28/2014  01:40:00       39.271       16.460        0.495       26.934       26.958       26.653      725.414      726.744      710.381        0.199        0.108       42.581       12.595        0.087      331.426       -0.568      867.057
12/28/2014  01:41:00       62.992       18.096        7.087       19.818       16.490       21.717      392.771      271.921      471.635        0.274        0.057       65.540        7.666        0.014      331.369       -0.661      867.065
12/28/2014  01:42:00        5.999       26.301        2.580       13.639        8.707        9.653      186.031       75.811       93.175        0.054        0.018       26.976        7.330        0.074      331.345       -0.698      867.067
12/28/2014  01:43:00      -54.572       15.528       -3.344       22.509       16.097        8.548      506.671      259.120       73.067        0.203        0.042       56.738        6.199        0.012      331.385       -0.634      867.070
12/28/2014  01:44:00      -92.768      -62.392       -4.042       48.178       31.015       23.588     2321.089      961.920      556.377        0.818        0.192      111.797       15.742        0.020      331.440       -0.544      867.063
12/28/2014  01:45:00     -112.628     -113.284        2.313       56.790       42.254       33.506     3225.051     1785.378     1122.623        1.583        0.307      159.744       36.131        0.051      331.420       -0.579      867.055
12/28/2014  01:46:00     -133.584     -106.253       -4.940       33.277       47.660       23.504     1107.373     2271.485      552.443        1.654        0.197      170.688       25.932        0.023      331.366       -0.666      867.032
12/28/2014  01:47:00      -71.640      -36.235        3.719       43.650       33.881       25.359     1905.300     1147.899      643.055        0.508        0.185       80.282       23.178        0.083      331.396       -0.617      867.006
12/28/2014  01:48:00      -39.345      -35.700        6.860       43.157       31.474       23.085     1862.501      990.618      532.937        0.313        0.169       53.128       20.722        0.152      331.417       -0.582      866.982
12/28/2014  01:49:00     -118.056      -72.586        5.589       55.694       33.824       25.500     3101.818     1144.084      650.253        1.207        0.245      138.586       23.752        0.029      331.321       -0.739      866.985
12/28/2014  01:50:00     -140.559      -58.584        1.456       48.321       41.369       23.326     2334.926     1711.384      544.081        1.389        0.230      152.279       17.935        0.014      331.257       -0.844      866.990
12/28/2014  01:51:00     -107.669      -44.536       -8.748       52.853       31.238       20.743     2793.480      975.806      430.292        0.893        0.210      116.517       16.685        0.021      331.253       -0.851      866.978
12/28/2014  01:52:00      -74.307      -28.590       -4.659       35.413       31.546       17.450     1254.095      995.167      304.496        0.446        0.128       79.617       14.704        0.034      331.204       -0.933      866.973
12/28/2014  01:53:00      -65.813      -24.089        2.754       27.774       24.856       17.367      771.371      617.807      301.601        0.330        0.085       70.083       10.233        0.021      331.183       -0.966      866.979
12/28/2014  01:54:00     -130.963      -26.415       -5.784       38.349       27.845       18.466     1470.670      775.363      340.987        1.023        0.129      133.600       16.347        0.015      331.168       -0.992      867.007
12/28/2014  01:55:00      -79.306       -8.775       -3.927       43.901       29.234       18.156     1927.341      854.652      329.647        0.475        0.156       79.790       16.380        0.042      331.123       -1.064      867.033
12/28/2014  01:56:00      -44.443       11.920       -4.122       30.963       26.294       15.913      958.705      691.377      253.221        0.202        0.095       46.014       14.759        0.103      331.114       -1.080      867.024
12/28/2014  01:57:00      -10.632       50.375       -8.392       20.698       26.775       15.650      428.418      716.895      244.925        0.206        0.070       51.485       17.768        0.119      331.289       -0.792      867.008
12/28/2014  01:58:00      -57.173       21.870      -11.190       23.241       22.575       11.052      540.159      509.626      122.147        0.252        0.059       61.213        2.851        0.002      331.341       -0.706      867.016
12/28/2014  01:59:00      -74.250       47.881      -14.898       17.608       15.473       12.724      310.027      239.423      161.890        0.437        0.036       88.350        9.894        0.013      331.245       -0.864      867.000
12/28/2014  02:00:00      -55.309       29.358       -9.812       12.171       26.099        9.146      148.125      681.150       83.652        0.246        0.046       62.618        9.441        0.023      331.401       -0.607      866.941
12/28/2014  02:01:00      -48.642        7.354       -4.105       16.464        9.272        7.651      271.066       85.978       58.532        0.143        0.021       49.195        7.822        0.025      331.564       -0.338      866.851
12/28/2014  02:02:00      -70.213      -14.185       -4.850       17.620       15.032       10.352      310.472      225.957      107.154        0.290        0.032       71.632        8.247        0.013      331.599       -0.282      866.795
12/28/2014  02:03:00      -68.112      -14.568       -5.648       17.739       16.377        9.070      314.655      268.191       82.262        0.277        0.033       69.653        6.742        0.009      331.467       -0.501      866.769
12/28/2014  02:04:00      -75.768      -20.387       -6.833       12.479       11.342        8.471      155.713      128.634       71.763        0.328        0.018       78.463        4.105        0.003      331.345       -0.698      866.753
12/28/2014  02:05:00      -85.302      -40.138       -4.485       17.602        9.864        6.220      309.822       97.304       38.687        0.468        0.022       94.273        4.068        0.002      331.389       -0.629      866.748
12/28/2014  02:06:00      -59.929      -43.584        3.669       41.408       17.210       14.977     1714.590      296.186      224.304        0.387        0.112       74.102       14.088        0.036      331.389       -0.627      866.749
12/28/2014  02:07:00        4.532      -26.299        0.837       14.835       13.022       12.160      220.070      169.574      147.863        0.063        0.027       26.687        8.632        0.105      331.452       -0.525      866.722
12/28/2014  02:08:00        2.057        1.373        2.433        5.144        7.500        6.352       26.461       56.249       40.351        0.007        0.006        2.473        4.491        3.299      331.436       -0.550      866.710
12/28/2014  02:09:00      -53.969       -5.006       -6.494       15.757       10.139        7.352      248.283      102.803       54.051        0.169        0.020       54.201        6.475        0.014      331.449       -0.530      866.732
12/28/2014  02:10:00      -42.970      -14.819       -5.028       15.588        5.759        7.279      242.993       33.170       52.988        0.121        0.016       45.454        7.869        0.030      331.426       -0.568      866.738
12/28/2014  02:11:00       -9.145       -1.799       -7.798        8.249        5.797        4.004       68.046       33.607       16.029        0.013        0.006        9.321        4.784        0.263      331.387       -0.630      866.719
12/28/2014  02:12:00        1.139       10.361       -6.399        8.286        8.486        5.984       68.662       72.012       35.809        0.016        0.009       10.424        4.518        0.188      331.435       -0.552      866.693
12/28/2014  02:13:00      -11.001       18.176       -3.579       12.589        8.695        5.131      158.480       75.604       26.322        0.036        0.013       21.246        5.397        0.065      331.412       -0.590      866.694
12/28/2014  02:14:00      -45.039       20.288       -8.892       17.911       21.842       14.418      320.797      477.084      207.880        0.176        0.050       49.397        4.199        0.007      331.454       -0.522      866.697
12/28/2014  02:15:00      -46.590       23.925       -5.986       16.390       16.222       11.132      268.628      263.142      123.921        0.172        0.033       52.374        5.135        0.010      331.420       -0.576      866.710
12/28/2014  02:16:00      -54.316       11.389      -12.016       10.830       14.236        7.404      117.279      202.650       54.813        0.180        0.019       55.497        6.093        0.012      331.412       -0.592      866.712
12/28/2014  02:17:00      -35.443      -19.671      -10.587        6.764        7.467        5.675       45.754       55.760       32.208        0.094        0.007       40.536        4.055        0.010      331.373       -0.654      866.700
12/28/2014  02:18:00      -34.749      -23.508      -10.629        6.492        8.278        4.836       42.143       68.528       23.390        0.100        0.007       41.954        2.964        0.005      331.393       -0.621      866.692
12/28/2014  02:19:00      -48.019      -37.415       -5.712       14.762        9.357        9.754      217.921       87.545       95.143        0.207        0.020       60.875        8.424        0.019      331.433       -0.556      866.691
12/28/2014  02:20:00      -67.491      -29.113       -3.514       14.311       10.938        6.570      204.800      119.645       43.164        0.289        0.018       73.502        2.003        0.001      331.419       -0.580      866.688
12/28/2014  02:21:00      -80.039      -50.143       -3.869       14.145       13.299       13.191      200.084      176.870      174.005        0.474        0.028       94.449       10.793        0.013      331.387       -0.631      866.683
12/28/2014  02:22:00      -94.027      -52.710        1.393       28.592       18.656       20.240      817.506      348.036      409.657        0.660        0.079      107.793       16.611        0.024      331.373       -0.654      866.682
12/28/2014  02:23:00      -80.698      -42.139        4.221       50.959       24.984       20.116     2596.825      624.213      404.639        0.596        0.181       91.038       22.401        0.061      331.421       -0.575      866.675
12/28/2014  02:24:00      -69.543      -58.781        6.800       29.903       21.934       18.148      894.205      481.116      329.345        0.502        0.085       91.058       17.437        0.037      331.486       -0.470      866.666
12/28/2014  02:25:00      -26.783      -24.241        7.157       28.323       20.921       16.660      802.206      437.673      277.553        0.144        0.076       36.124       12.394        0.118      331.501       -0.444      866.648
12/28/2014  02:26:00      -28.238      -26.312        5.608       24.386       17.893       15.254      594.688      320.146      232.673        0.133        0.057       38.597       10.312        0.071      331.565       -0.338      866.629
12/28/2014  02:27:00       -7.985       -5.310        4.193       19.612       10.961       10.238      384.649      120.134      104.820        0.036        0.030        9.590       12.339        1.656      331.566       -0.336      866.637
12/28/2014  02:28:00        9.493       11.743        1.901       15.350        8.210        4.878      235.630       67.409       23.794        0.028        0.016       15.100        6.085        0.162      331.558       -0.350      866.645
12/28/2014  02:29:00       37.464       46.122        7.683       15.032       14.724       14.290      225.955      216.799      204.215        0.212        0.032       59.421       12.220        0.042      331.533       -0.392      866.651
12/28/2014  02:30:00      101.749       64.979       -5.346       53.527       29.298       27.488     2865.159      858.384      755.616        0.954        0.224      120.728       25.184        0.044      331.338       -0.712      866.647
12/28/2014  02:31:00      132.974       68.244        5.203       43.061       31.238       29.066     1854.221      975.824      844.841        1.302        0.184      149.464       15.986        0.011      331.082       -1.134      866.649
12/28/2014  02:32:00       81.990       27.863        4.367       49.800       37.695       24.986     2480.090     1420.916      624.289        0.602        0.226       86.595       24.849        0.082      331.075       -1.145      866.650
12/28/2014  02:33:00       17.814        5.731       10.467       28.390       17.862       16.292      806.001      319.066      265.417        0.092        0.070       18.713       14.323        0.586      331.061       -1.167      866.671
12/28/2014  02:34:00       41.360       28.060       18.817       10.388        8.415       12.746      107.901       70.815      162.451        0.160        0.017       49.980        4.862        0.009      331.079       -1.137      866.682
12/28/2014  02:35:00        9.537       16.416        2.827       16.211        7.981        4.820      262.804       63.689       23.235        0.036        0.017       18.985        6.201        0.107      331.121       -1.071      866.665
12/28/2014  02:36:00      -62.552        9.779       -6.032       23.922       10.566        8.161      572.275      111.638       66.604        0.240        0.038       63.312        5.395        0.007      331.173       -0.985      866.642
12/28/2014  02:37:00      -78.414       17.369       -9.073       18.230       11.960        9.390      332.328      143.050       88.179        0.355        0.028       80.315        8.286        0.011      331.175       -0.980      866.631
12/28/2014  02:38:00      -91.064       -4.266      -11.071       18.866       17.576       13.947      355.934      308.923      194.514        0.465        0.043       91.163       13.040        0.020      331.236       -0.879      866.634
12/28/2014  02:39:00     -107.154      -10.853       -8.376       29.285       31.323       17.588      857.618      981.146      309.332        0.691        0.107      107.702       15.111        0.020      331.223       -0.901      866.633
12/28/2014  02:40:00      -68.523      -10.457       -9.634       24.027       17.415       10.232      577.274      303.293      104.701        0.294        0.049       69.316        3.304        0.002      331.230       -0.889      866.630
12/28/2014  02:41:00      -87.868       -3.761       -9.225       30.647       18.753       13.193      939.258      351.659      174.047        0.464        0.073       87.949       12.174        0.019      331.235       -0.880      866.629
12/28/2014  02:42:00      -48.864      -10.936        3.690       18.323       15.669       14.356      335.738      245.521      206.090        0.165        0.039       50.072       10.802        0.047      331.179       -0.974      866.618
12/28/2014  02:43:00      -51.066        5.573       -3.295       11.721        7.462        7.314      137.375       55.686       53.492        0.145        0.012       51.369        6.325        0.015      331.237       -0.876      866.605
12/28/2014  02:44:00       16.344       14.683       19.106       25.351       10.471       11.385      642.673      109.647      129.615        0.086        0.044       21.971        8.247        0.141      331.246       -0.862      866.591
12/28/2014  02:45:00      119.058       63.349        1.961       39.573       32.881       18.193     1566.052     1081.143      331.001        1.058        0.149      134.862        8.228        0.004      331.276       -0.812      866.550
12/28/2014  02:46:00      190.480      118.137       16.169       59.492       39.982       37.034     3539.271     1598.533     1371.503        2.850        0.325      224.141        6.386        0.001      331.166       -0.997      866.496
12/28/2014  02:47:00      188.508      104.204        9.081       62.313       43.276       39.304     3882.880     1872.850     1544.801        2.689        0.365      215.392       20.712        0.009      330.984       -1.295      866.478
12/28/2014  02:48:00      134.283       89.035       18.888       43.585       39.436       34.337     1899.643     1555.172     1179.042        1.547        0.232      161.118       10.329        0.004      330.964       -1.327      866.466
12/28/2014  02:49:00      142.181       75.078       14.741       35.984       39.670       27.700     1294.869     1573.708      767.284        1.485        0.182      160.786       14.038        0.008      330.991       -1.282      866.439
12/28/2014  02:50:00       80.326       45.694       19.902       39.052       31.676       28.674     1525.066     1003.385      822.170        0.614        0.168       92.414       24.109        0.068      331.006       -1.262      866.407
12/28/2014  02:51:00       88.624       61.773        3.569       28.238       26.569       23.743      797.368      705.901      563.722        0.687        0.103      108.029       16.277        0.023      330.998       -1.272      866.405
12/28/2014  02:52:00       86.523       65.134       -3.228       18.058       27.231       17.871      326.099      741.530      319.366        0.656        0.069      108.299       11.816        0.012      331.010       -1.253      866.394
12/28/2014  02:53:00      103.877       75.478        3.428       40.211       39.611       32.796     1616.915     1569.020     1075.577        1.038        0.213      128.403       24.189        0.035      331.019       -1.237      866.363
12/28/2014  02:54:00       58.681       37.654       14.577       23.348       15.939       24.842      545.118      254.056      617.136        0.324        0.071       69.723       16.527        0.056      331.040       -1.202      866.355
12/28/2014  02:55:00       45.890       16.934        8.050       20.187       14.254       15.909      407.499      203.184      253.105        0.166        0.043       48.914        8.857        0.033      331.029       -1.222      866.366
12/28/2014  02:56:00       65.504       42.261        5.828       19.637       18.839       16.801      385.613      354.924      282.286        0.357        0.051       77.953       12.636        0.026      331.048       -1.189      866.348
12/28/2014  02:57:00       70.649       37.637       21.679       28.430       19.386       18.122      808.249      375.802      328.425        0.419        0.076       80.049       17.969        0.050      331.067       -1.156      866.331
12/28/2014  02:58:00       75.819       47.166        3.742       15.702       18.495       16.326      246.558      342.056      266.530        0.442        0.043       89.293        7.674        0.007      331.087       -1.122      866.334
12/28/2014  02:59:00       58.567       44.353       -1.810       24.011       17.662       14.103      576.529      311.962      198.906        0.324        0.054       73.466        5.824        0.006      331.096       -1.110      866.358
12/28/2014  03:00:00       42.114       22.725       -6.794       21.564       18.380        8.014      464.989      337.821       64.230        0.160        0.043       47.854        7.217        0.023      331.137       -1.041      866.376
12/28/2014  03:01:00       40.874        0.184       -6.327       12.309       11.486        9.318      151.521      131.928       86.819        0.104        0.019       40.874        8.536        0.044      331.208       -0.924      866.379
12/28/2014  03:02:00       14.849       -8.633       -7.458       14.646       11.195       10.289      214.509      125.339      105.856        0.040        0.022       17.176        6.528        0.144      331.328       -0.727      866.380
12/28/2014  03:03:00       10.984        7.437        0.436       13.904        9.854        8.287      193.310       97.100       68.682        0.027        0.018       13.265        2.959        0.050      331.294       -0.782      866.379
12/28/2014  03:04:00       32.858       15.368        1.757       10.147        7.728       10.046      102.959       59.724      100.922        0.079        0.013       36.274        3.556        0.010      331.358       -0.678      866.343
12/28/2014  03:05:00       21.975       22.450       11.839       10.051        7.869        7.851      101.026       61.926       61.638        0.068        0.011       31.415        5.529        0.031      331.342       -0.704      866.307
12/28/2014  03:06:00        6.024       11.447       -3.471        7.610        8.215        3.521       57.917       67.492       12.400        0.016        0.007       12.936        1.831        0.020      331.349       -0.696      866.291
12/28/2014  03:07:00       31.637       22.421        1.606        8.075        4.177        4.132       65.210       17.446       17.074        0.080        0.005       38.777        3.398        0.008      331.370       -0.656      866.276
12/28/2014  03:08:00       48.921       24.944       -0.279       11.706       10.214       12.805      137.041      104.334      163.964        0.171        0.020       54.913        6.930        0.016      331.374       -0.653      866.260
12/28/2014  03:09:00       10.496        8.761       11.235       11.492        9.353        8.906      132.067       87.476       79.314        0.031        0.015       13.672        6.942        0.258      331.364       -0.669      866.267
12/28/2014  03:10:00       43.135       26.169        5.905       16.141       11.068        8.588      260.537      122.508       73.745        0.152        0.023       50.453        8.214        0.027      331.359       -0.675      866.292
12/28/2014  03:11:00       53.869       38.818       26.998       19.845       22.565       25.079      393.816      509.158      628.933        0.333        0.077       66.398       14.491        0.048      331.367       -0.664      866.304
12/28/2014  03:12:00       31.427       36.438       35.073       24.887       22.710       16.396      619.386      515.728      268.830        0.247        0.070       48.119       15.453        0.103      331.382       -0.639      866.317
12/28/2014  03:13:00        0.969       17.845       42.154        9.599       21.280       10.548       92.142      452.835      111.250        0.138        0.033       17.871       12.516        0.491      331.411       -0.591      866.321
12/28/2014  03:14:00       17.024       35.938       38.954       14.999       22.102       14.097      224.966      488.496      198.721        0.201        0.046       39.766       14.368        0.131      331.419       -0.579      866.303
12/28/2014  03:15:00      -44.668       -1.623        3.841       33.637       17.322       13.779     1131.434      300.039      189.859        0.182        0.081       44.698       17.806        0.159      331.440       -0.544      866.319
12/28/2014  03:16:00      -54.266       -1.932      -11.203       29.338       10.477       11.663      860.726      109.763      136.037        0.209        0.055       54.300        7.066        0.017      331.343       -0.704      866.313
12/28/2014  03:17:00        5.006       14.139        0.575       10.696       15.199        9.724      114.398      230.995       94.555        0.033        0.022       14.999        8.780        0.343      331.373       -0.654      866.267
12/28/2014  03:18:00        7.058       56.488      -11.063       10.359       16.013        7.671      107.312      256.424       58.849        0.189        0.021       56.927        5.801        0.010      331.628       -0.233      866.216
12/28/2014  03:19:00        9.505       77.574      -11.584       13.660       13.019       12.174      186.606      169.494      148.198        0.337        0.025       78.154        6.188        0.006      331.594       -0.291      866.142
12/28/2014  03:20:00        2.098       65.913      -14.783       24.318       26.722       11.552      591.342      714.076      133.450        0.300        0.072       65.947        7.514        0.013      331.700       -0.116      866.104
12/28/2014  03:21:00     -109.338      -40.971      -13.243       34.662       20.408       14.100     1201.443      416.486      198.809        0.781        0.091      116.762       15.659        0.018      331.360       -0.674      866.114
12/28/2014  03:22:00      -80.233      -11.156      -11.578       26.269       27.275       15.152      690.037      743.946      229.595        0.418        0.083       81.005        5.959        0.005      331.364       -0.668      866.118
12/28/2014  03:23:00        1.411       26.294       -2.918       26.972       11.462       13.203      727.468      131.372      174.328        0.087        0.052       26.332       14.898        0.320      331.488       -0.465      866.070
12/28/2014  03:24:00      -16.929       -2.088       -5.654       29.488       28.462       12.941      869.539      810.074      167.468        0.108        0.092       17.057       13.447        0.622      331.631       -0.229      866.059
12/28/2014  03:25:00      -67.513      -56.215        1.145       77.649       41.554       32.426     6029.350     1726.763     1051.426        0.826        0.440       87.852       27.817        0.100      331.503       -0.441      866.096
12/28/2014  03:26:00       13.040        1.132       22.149       35.479       24.730       25.321     1258.748      611.565      641.136        0.159        0.126       13.089       21.508        2.700      331.502       -0.442      866.088
12/28/2014  03:27:00       20.954       16.237       11.493       11.702        9.485       13.119      136.942       89.963      172.098        0.062        0.020       26.509        5.538        0.044      331.500       -0.445      866.038
12/28/2014  03:28:00       16.837       13.900       -9.079       16.017       17.724       10.061      256.544      314.124      101.230        0.062        0.034       21.834        6.750        0.096      331.518       -0.416      865.982
12/28/2014  03:29:00      -42.257       -9.035      -10.595       38.797       14.920        7.423     1505.221      222.610       55.102        0.188        0.089       43.212        8.601        0.040      331.520       -0.414      865.982
12/28/2014  03:30:00      -52.827      -40.511        1.239       44.808       16.839       19.976     2007.775      283.538      399.050        0.356        0.135       66.572       24.655        0.137      331.445       -0.536      865.997
12/28/2014  03:31:00       30.924       15.036        9.410       24.004       32.672       18.263      576.200     1067.489      333.533        0.162        0.099       34.386       16.189        0.222      331.470       -0.495      865.964
12/28/2014  03:32:00       82.556       51.978       21.104       16.691       16.194       20.217      278.593      262.237      408.725        0.546        0.047       97.557       11.417        0.014      331.521       -0.412      865.922
12/28/2014  03:33:00       77.483       29.550        5.878       19.723       23.177       21.479      388.990      537.186      461.340        0.415        0.069       82.926       11.430        0.019      331.543       -0.374      865.946
12/28/2014  03:34:00       33.519       28.552       17.956       20.957       13.695       12.541      439.205      187.543      157.282        0.152        0.039       44.031        6.156        0.020      331.478       -0.482      865.980
12/28/2014  03:35:00      -28.927       -2.242        6.119       29.387       12.214       13.252      863.618      149.189      175.620        0.103        0.059       29.014       15.875        0.299      331.519       -0.413      866.000
12/28/2014  03:36:00       27.330       15.238       12.864       21.065       19.857       11.621      443.749      394.286      135.045        0.106        0.049       31.291        8.514        0.074      331.514       -0.423      865.987
12/28/2014  03:37:00       90.390       58.205       18.814       31.330       30.465       24.274      981.557      928.096      589.251        0.721        0.125      107.509       14.459        0.018      331.446       -0.535      865.909
12/28/2014  03:38:00       16.908       28.352       -5.480       43.824       26.425       23.699     1920.534      698.304      561.650        0.215        0.159       33.010       24.738        0.562      331.321       -0.740      865.913
12/28/2014  03:39:00       -5.526       61.288      -16.376       17.565       21.981        7.918      308.534      483.160       62.696        0.245        0.043       61.537        8.481        0.019      331.282       -0.802      865.942
12/28/2014  03:40:00       13.714       66.892      -11.940       19.656       20.660       13.734      386.370      426.827      188.622        0.290        0.050       68.283       10.602        0.024      331.176       -0.978      865.947
12/28/2014  03:41:00       25.776       75.077      -13.189       18.377       21.578       10.629      337.724      465.625      112.986        0.370        0.046       79.379       12.220        0.024      331.115       -1.080      865.960
12/28/2014  03:42:00       38.259       59.978       -3.496       12.182       19.080       13.702      148.400      364.033      187.746        0.289        0.035       71.142       11.481        0.026      331.103       -1.097      865.945
12/28/2014  03:43:00       39.848       48.193       -5.494       19.431       21.665       13.296      377.551      469.377      176.796        0.248        0.051       62.533       11.699        0.035      331.082       -1.132      865.931
12/28/2014  03:44:00       10.639       14.692        2.219        7.811       11.852        8.812       61.017      140.460       77.648        0.031        0.014       18.140        5.380        0.088      331.064       -1.162      865.925
12/28/2014  03:45:00       -5.135        5.518        3.885        6.933       12.427        6.148       48.065      154.429       37.801        0.016        0.012        7.538        3.842        0.260      331.102       -1.100      865.896
12/28/2014  03:46:00      -18.375        9.421       -1.400        9.064        5.572        4.126       82.164       31.042       17.025        0.028        0.007       20.649        2.554        0.015      331.198       -0.942      865.865
12/28/2014  03:47:00       -7.140       20.758       -2.401       13.533       12.610       12.256      183.139      159.001      150.207        0.049        0.025       21.952        8.116        0.137      331.213       -0.915      865.842
12/28/2014  03:48:00       13.700       11.364        7.231       10.995       14.112       12.063      120.881      199.141      145.516        0.042        0.023       17.800       10.288        0.334      331.248       -0.860      865.838
12/28/2014  03:49:00        7.428      -20.032        3.965       12.173       13.578       13.789      148.172      184.357      190.128        0.050        0.026       21.365        9.533        0.199      331.270       -0.823      865.850
12/28/2014  03:50:00      -47.579      -47.884        3.961       53.387       29.169       28.997     2850.147      850.813      840.808        0.456        0.227       67.502       29.295        0.188      331.279       -0.808      865.865
12/28/2014  03:51:00      -58.309      -10.752        3.594       41.941       23.594       13.167     1759.078      556.672      173.379        0.301        0.124       59.293       21.175        0.128      331.209       -0.922      865.882
12/28/2014  03:52:00       27.062       33.664       13.004       15.274       13.552       19.331      233.307      183.654      373.672        0.141        0.040       43.193       13.304        0.095      331.152       -1.017      865.878
12/28/2014  03:53:00      -32.814       11.229       -8.074       28.084       29.724       11.344      788.739      883.512      128.685        0.153        0.090       34.682       10.859        0.098      331.198       -0.940      865.883
12/28/2014  03:54:00      -96.406      -40.824       -9.570       28.322       14.935       12.412      802.140      223.056      154.070        0.612        0.059      104.693        8.008        0.006      331.234       -0.882      865.890
12/28/2014  03:55:00      -19.613       -5.216        3.079       36.617       26.828       17.315     1340.840      719.751      299.799        0.139        0.118       20.295       24.265        1.429      331.232       -0.887      865.878
12/28/2014  03:56:00      105.186       80.119        7.328       39.962       24.555       29.330     1596.929      602.924      860.247        1.030        0.153      132.224       24.621        0.035      331.206       -0.929      865.826
12/28/2014  03:57:00      149.081       74.958       -3.379       54.570       32.466       27.710     2977.833     1054.012      767.823        1.633        0.240      166.865       12.375        0.005      331.280       -0.806      865.780
12/28/2014  03:58:00       90.502       40.738        3.267       31.294       29.569       19.381      979.345      874.314      375.629        0.604        0.111       99.248       13.933        0.020      331.222       -0.903      865.796
12/28/2014  03:59:00       47.434       22.234        3.867       33.691       19.593       21.687     1135.080      383.895      470.314        0.237        0.099       52.386       17.793        0.115      331.190       -0.955      865.805
12/28/2014  04:00:00       60.852       41.975       22.325       26.133       18.781       17.186      682.916      352.708      295.353        0.365        0.067       73.925       14.172        0.037      331.226       -0.894      865.793
12/28/2014  04:01:00       35.399       35.064       21.424       16.091       11.111       14.032      258.936      123.446      196.885        0.176        0.029       49.825        7.849        0.025      331.208       -0.926      865.779
12/28/2014  04:02:00       18.292       20.697        4.928        8.039        4.760        8.396       64.618       22.655       70.492        0.047        0.008       27.621        2.425        0.008      331.240       -0.872      865.766
12/28/2014  04:03:00       13.735       27.545        2.148        4.930        7.847        6.017       24.303       61.570       36.199        0.054        0.006       30.780        2.630        0.007      331.284       -0.799      865.739
12/28/2014  04:04:00       44.121       37.594        3.628       17.837       15.923       14.371      318.147      253.536      206.520        0.208        0.039       57.965       12.150        0.044      331.266       -0.828      865.693
12/28/2014  04:05:00       61.441       43.811       -4.976       27.878       17.891       15.254      777.184      320.085      232.671        0.352        0.066       75.461       12.914        0.029      331.220       -0.906      865.654
12/28/2014  04:06:00       37.490       19.741        0.372       22.970       23.593       20.047      527.626      556.642      401.893        0.164        0.074       42.369       17.586        0.172      331.233       -0.882      865.654
12/28/2014  04:07:00       -0.270      -16.339       -4.851       41.270       23.256       13.769     1703.193      540.840      189.592        0.136        0.122       16.341       14.488        0.786      331.340       -0.708      865.664
12/28/2014  04:08:00      -58.048      -58.652       10.728       52.866       32.787       26.001     2794.860     1074.958      676.049        0.573        0.227       82.520       29.536        0.128      331.372       -0.655      865.689
12/28/2014  04:09:00       -0.822      -20.594       17.711       30.812       25.660       25.947      949.409      658.455      673.225        0.151        0.114       20.610       22.646        1.207      331.358       -0.679      865.682
12/28/2014  04:10:00       -2.422        2.350        2.474       14.825       11.834       11.836      219.790      140.048      140.090        0.026        0.025        3.375        5.439        2.598      331.354       -0.686      865.619
12/28/2014  04:11:00      -84.096      -48.994       -1.280       39.028       48.060       21.294     1523.214     2309.783      453.452        0.688        0.214       97.327        9.742        0.010      331.424       -0.571      865.610
12/28/2014  04:12:00      -94.097      -83.810        6.016       41.947       41.057       23.855     1759.516     1685.651      569.080        0.996        0.201      126.009       21.642        0.029      331.370       -0.660      865.622
12/28/2014  04:13:00      -68.724      -55.078       -8.781       28.240       20.972       15.326      797.519      439.812      234.899        0.465        0.074       88.072       13.081        0.022      331.354       -0.686      865.587
12/28/2014  04:14:00      -57.035      -30.324        1.764       25.531       24.690       14.160      651.842      609.613      200.492        0.282        0.073       64.595       11.921        0.034      331.353       -0.687      865.552
12/28/2014  04:15:00      -50.530      -25.397        2.706       31.504       19.013       16.259      992.530      361.488      264.358        0.241        0.081       56.554       14.794        0.068      331.450       -0.527      865.550
12/28/2014  04:16:00      -37.981      -14.497       -7.506       17.824       10.744        7.993      317.688      115.443       63.892        0.110        0.025       40.654        3.548        0.008      331.352       -0.689      865.541
12/28/2014  04:17:00       -1.729       -2.004        0.613        8.195        5.324       10.849       67.154       28.345      117.699        0.011        0.011        2.646        8.200        9.603      331.358       -0.677      865.527
12/28/2014  04:18:00       -2.310        5.036        9.570        8.421        5.142        5.121       70.906       26.442       26.227        0.012        0.006        5.541        4.900        0.782      331.367       -0.663      865.527
12/28/2014  04:19:00      -18.024       16.443        2.275       10.543       18.121        9.990      111.160      328.379       99.795        0.057        0.027       24.397       10.136        0.173      331.353       -0.687      865.519
12/28/2014  04:20:00       -7.975      -18.271        4.737       15.098       14.819       13.054      227.956      219.604      170.415        0.052        0.031       19.935        5.098        0.065      331.433       -0.556      865.497
12/28/2014  04:21:00      -23.252      -17.837       -4.684       15.376       13.329        8.535      236.425      177.674       72.854        0.068        0.024       29.305        8.798        0.090      331.374       -0.651      865.482
12/28/2014  04:22:00      -25.500      -16.731       -1.000       16.829        9.985       10.851      283.213       99.707      117.745        0.072        0.025       30.498        4.861        0.025      331.357       -0.681      865.466
12/28/2014  04:23:00      -55.695      -26.146       -6.020       17.054       17.116        9.277      290.843      292.945       86.058        0.225        0.033       61.527        9.414        0.023      331.315       -0.748      865.457
12/28/2014  04:24:00      -47.831      -17.319       -1.146       15.903       12.647        7.963      252.892      159.944       63.415        0.153        0.024       50.869        5.781        0.013      331.306       -0.762      865.463
12/28/2014  04:25:00      -33.984       -7.263        5.652       15.534       18.656        8.488      241.313      348.034       72.048        0.095        0.033       34.751        9.009        0.067      331.305       -0.765      865.469
12/28/2014  04:26:00      -31.822        4.336       -2.518       11.282       11.852        9.142      127.275      140.460       83.569        0.069        0.018       32.116        5.802        0.033      331.290       -0.789      865.483
12/28/2014  04:27:00      -18.369       -0.387        0.141        9.478       13.272        7.270       89.830      176.156       52.853        0.033        0.016       18.373        5.247        0.082      331.261       -0.837      865.496
12/28/2014  04:28:00        1.385       -4.528        2.601       12.768       15.386        9.421      163.027      236.732       88.757        0.026        0.024        4.736        5.619        1.408      331.229       -0.891      865.502
12/28/2014  04:29:00        9.939       30.224       14.480       15.720       20.640       19.183      247.104      425.999      367.995        0.113        0.052       31.817       12.304        0.150      331.246       -0.863      865.503
12/28/2014  04:30:00       10.016       28.220       45.395       25.842       25.155       14.596      667.830      632.774      213.056        0.224        0.076       29.945       11.758        0.154      331.162       -1.002      865.518
12/28/2014  04:31:00       51.746       30.401       14.137       23.503       11.778       16.387      552.378      138.724      268.535        0.238        0.048       60.015        6.217        0.011      331.131       -1.053      865.516
12/28/2014  04:32:00       45.122       36.357       14.897       23.263       14.801       15.531      541.157      219.083      241.209        0.229        0.050       57.946       11.357        0.038      331.110       -1.086      865.496
12/28/2014  04:33:00       31.253       20.614       23.755       23.979       19.400       18.230      575.007      376.345      332.336        0.162        0.064       37.439       10.088        0.073      331.111       -1.085      865.466
12/28/2014  04:34:00       28.785       27.768        3.765       16.246       12.591       13.573      263.931      158.526      184.220        0.111        0.030       39.996        7.110        0.032      331.089       -1.122      865.464
12/28/2014  04:35:00       20.978       55.968       -4.631       10.079       12.924        9.188      101.579      167.039       84.426        0.197        0.018       59.770        6.660        0.012      331.090       -1.120      865.459
12/28/2014  04:36:00        8.962       25.606       -4.982       12.155       11.664       12.504      147.732      136.054      156.351        0.060        0.022       27.129        9.777        0.130      331.072       -1.149      865.444
12/28/2014  04:37:00        0.460       14.230        3.686        7.015        9.356        6.211       49.209       87.535       38.575        0.020        0.009       14.238        5.140        0.130      331.063       -1.166      865.442
12/28/2014  04:38:00      -28.746       10.598       -2.233       16.977        5.903        4.366      288.225       34.843       19.065        0.064        0.017       30.637        4.956        0.026      331.089       -1.120      865.443
12/28/2014  04:39:00      -17.453       19.291       -1.634       15.187        8.158        9.550      230.660       66.545       91.208        0.053        0.019       26.014        8.517        0.107      331.099       -1.106      865.440
12/28/2014  04:40:00       15.421       30.578       -1.490        9.986       10.379        8.404       99.713      107.713       70.627        0.073        0.014       34.246        7.332        0.046      331.129       -1.055      865.426
12/28/2014  04:41:00       16.793       32.958       -3.485        9.652       14.519       11.441       93.153      210.811      130.903        0.091        0.022       36.989       11.365        0.094      331.053       -1.182      865.422
12/28/2014  04:42:00       19.635       18.342      -12.140        8.676       13.941        4.538       75.266      194.363       20.591        0.058        0.015       26.869        3.522        0.017      331.001       -1.269      865.421
12/28/2014  04:43:00       28.828       14.957        0.960       11.899       12.982       10.198      141.581      168.523      103.997        0.073        0.021       32.477        8.041        0.061      331.068       -1.154      865.410
12/28/2014  04:44:00        5.937       12.440        4.556       12.162        9.049        6.596      147.904       81.882       43.509        0.024        0.014       13.784        5.756        0.174      331.099       -1.105      865.413
12/28/2014  04:45:00      -13.109       18.194       -5.905        8.180       16.184        4.021       66.917      261.916       16.172        0.044        0.017       22.425        4.281        0.036      331.040       -1.201      865.431
12/28/2014  04:46:00      -45.996        8.473       -4.301       18.175        8.300        7.355      330.346       68.890       54.103        0.133        0.023       46.769        6.187        0.018      331.062       -1.164      865.427
12/28/2014  04:47:00      -60.826       44.517      -13.752       14.045       18.344       11.009      197.272      336.484      121.205        0.326        0.033       75.377        9.734        0.017      331.095       -1.113      865.431
12/28/2014  04:48:00      -26.256       19.250       -3.676       19.461       35.722       12.012      378.735     1276.084      144.298        0.144        0.090       32.557       15.859        0.237      331.141       -1.037      865.412
12/28/2014  04:49:00      -22.319        3.680       -1.320       28.647       18.519       14.275      820.663      342.946      203.772        0.094        0.068       22.621       14.939        0.436      331.116       -1.077      865.419
12/28/2014  04:50:00      -52.450      -36.494       -5.835       35.742       17.168        9.762     1277.474      294.733       95.303        0.289        0.083       63.897        5.981        0.009      331.000       -1.268      865.428
12/28/2014  04:51:00      -49.247      -33.552       -2.787       38.206       18.740       12.116     1459.733      351.196      146.804        0.276        0.098       59.591       12.114        0.041      330.973       -1.311      865.419
12/28/2014  04:52:00      -65.054       -3.504       -5.534       18.008       14.895        9.146      324.272      221.857       83.643        0.245        0.031       65.148        8.137        0.016      330.896       -1.436      865.434
12/28/2014  04:53:00      -39.097       -3.593        0.228       15.040        7.243        8.188      226.204       52.465       67.051        0.094        0.017       39.262        5.517        0.020      330.977       -1.305      865.436
12/28/2014  04:54:00      -49.002        3.636       -1.687       23.697        9.573        9.990      561.555       91.639       99.796        0.158        0.038       49.136        8.617        0.031      331.035       -1.210      865.431
12/28/2014  04:55:00     -102.126      -28.795       -7.721       20.338       14.635       10.937      413.615      214.193      119.621        0.603        0.037      106.107        8.125        0.006      331.038       -1.206      865.455
12/28/2014  04:56:00      -65.769      -35.855        3.623       42.924       22.610       18.615     1842.454      511.196      346.520        0.416        0.135       74.907       20.709        0.076      330.990       -1.285      865.476
12/28/2014  04:57:00        5.132       12.967        1.076       28.515       17.006       12.801      813.094      289.201      163.870        0.073        0.063       13.946       12.983        0.867      331.020       -1.236      865.464
12/28/2014  04:58:00       12.601       19.800       11.881       29.377       15.795       18.741      862.983      249.489      351.231        0.108        0.073       23.470       14.447        0.379      331.057       -1.174      865.450
12/28/2014  04:59:00      -42.792       -5.061       -7.178       22.247       16.006        8.890      494.926      256.195       79.029        0.137        0.042       43.090        5.323        0.015      331.109       -1.089      865.480
12/28/2014  05:00:00      -35.697       -9.732       -1.400       16.846       11.608        9.587      283.776      134.741       91.911        0.094        0.026       37.000        7.993        0.047      331.064       -1.162      865.489
12/28/2014  05:01:00      -20.354       -2.409       -2.264        5.305        4.500        3.810       28.147       20.246       14.513        0.024        0.003       20.496        1.242        0.004      331.124       -1.064      865.502
12/28/2014  05:02:00       19.786       26.605       13.594       22.548       17.546       12.600      508.428      307.861      158.752        0.113        0.049       33.156       15.759        0.226      331.091       -1.117      865.496
12/28/2014  05:03:00       35.709       27.622       -1.439       12.130       16.400       11.117      147.135      268.961      123.579        0.129        0.027       45.145        3.335        0.005      331.007       -1.255      865.499
12/28/2014  05:04:00       15.898      -20.053       -6.492       19.190       18.266        8.301      368.252      333.635       68.904        0.073        0.039       25.590       10.090        0.155      331.132       -1.051      865.517
12/28/2014  05:05:00      -11.539      -23.487        6.361       14.644       14.694       15.642      214.443      215.919      244.677        0.070        0.034       26.169        6.613        0.064      331.181       -0.969      865.533
12/28/2014  05:06:00      -43.080      -17.387       -2.979       23.774       20.354       17.769      565.197      414.283      315.721        0.173        0.065       46.456        7.944        0.029      331.042       -1.199      865.551
12/28/2014  05:07:00     -112.073      -77.002        2.638       39.797       34.633       19.606     1583.799     1199.424      384.408        1.083        0.158      135.976       17.826        0.017      331.021       -1.233      865.559
12/28/2014  05:08:00      -69.550      -52.953       -7.992       41.145       40.392       14.250     1692.935     1631.548      203.049        0.562        0.176       87.415       17.955        0.042      331.048       -1.189      865.550
12/28/2014  05:09:00       16.046       22.919        5.671       25.337       17.768        9.468      641.955      315.693       89.644        0.093        0.052       27.978       10.935        0.153      331.025       -1.224      865.527
12/28/2014  05:10:00      -90.612      -22.153       -9.175       46.112       28.335       13.461     2126.291      802.852      181.196        0.595        0.156       93.281       12.642        0.018      331.041       -1.201      865.557
12/28/2014  05:11:00      -45.037      -35.349       14.307       47.562       37.288       23.452     2262.132     1390.432      549.992        0.384        0.210       57.253       20.748        0.131      330.992       -1.282      865.568
12/28/2014  05:12:00       23.874       26.016       21.187       16.050       18.322       16.332      257.615      335.678      266.740        0.128        0.043       35.310        6.647        0.035      330.974       -1.310      865.554
12/28/2014  05:13:00      -11.225       28.909      -10.916       45.217       27.431       14.300     2044.539      752.447      204.495        0.204        0.150       31.011       10.772        0.121      331.026       -1.227      865.582
12/28/2014  05:14:00      -76.048      -33.193       -3.470       23.674       22.757       14.473      560.454      517.864      209.457        0.409        0.064       82.976        7.761        0.009      330.993       -1.280      865.613
12/28/2014  05:15:00      -36.410       -2.624       -0.398       28.979       21.598        8.759      839.772      466.468       76.718        0.136        0.069       36.504        4.593        0.016      330.825       -1.557      865.611
12/28/2014  05:16:00      -16.884       34.732       -2.555        9.472        8.939        6.646       89.712       79.908       44.169        0.086        0.011       38.618        4.662        0.015      330.878       -1.469      865.601
12/28/2014  05:17:00      -35.737       19.395      -14.896        9.402        9.205        5.172       88.389       84.731       26.751        0.104        0.010       40.660        3.717        0.008      331.037       -1.208      865.607
12/28/2014  05:18:00      -46.831       19.806        1.543        9.251        5.697        6.689       85.588       32.455       44.745        0.138        0.008       50.847        5.766        0.013      330.962       -1.331      865.607
12/28/2014  05:19:00      -53.392        8.122       -2.996       14.999       16.513       15.468      224.960      272.672      239.245        0.183        0.037       54.006        8.114        0.023      330.982       -1.299      865.609
12/28/2014  05:20:00      -41.682       -8.626       -1.370        8.674       13.782        7.768       75.244      189.933       60.343        0.107        0.016       42.565        4.205        0.010      330.980       -1.301      865.612
12/28/2014  05:21:00      -68.570        2.704       -2.259       20.321       12.782        7.402      412.950      163.380       54.793        0.267        0.032       68.623        9.482        0.019      330.881       -1.461      865.596
12/28/2014  05:22:00      -52.798       -1.858       -8.208       25.411       15.808       12.149      645.703      249.878      147.588        0.195        0.052       52.830       11.315        0.046      330.809       -1.581      865.580
12/28/2014  05:23:00      -40.959        0.296       -7.916       10.540        9.042        6.206      111.087       81.753       38.509        0.099        0.012       40.960        5.559        0.018      330.974       -1.311      865.559
12/28/2014  05:24:00      -37.591      -22.300       -4.395       15.506       12.915        7.384      240.433      166.810       54.516        0.120        0.023       43.708        7.696        0.031      331.000       -1.268      865.569
12/28/2014  05:25:00       -1.319      -16.411       10.830       19.842       16.043       14.910      393.716      257.367      222.297        0.063        0.044       16.464       13.634        0.686      331.006       -1.257      865.594
12/28/2014  05:26:00       -0.647      -22.056       18.657       26.216       19.887       16.365      687.280      395.502      267.808        0.109        0.068       22.065       15.934        0.521      330.967       -1.320      865.610
12/28/2014  05:27:00       24.386       24.003        1.905       16.191       37.861       21.995      262.143     1433.442      483.798        0.168        0.109       34.217       20.972        0.376      330.974       -1.308      865.614
12/28/2014  05:28:00       54.509       52.151        8.052       25.082       15.262       21.239      629.113      232.931      451.093        0.353        0.066       75.438       13.036        0.030      330.938       -1.367      865.603
12/28/2014  05:29:00       34.055       55.342       -9.841        9.020       20.048        6.319       81.353      401.903       39.928        0.242        0.026       64.981        4.501        0.005      330.940       -1.365      865.600
12/28/2014  05:30:00       33.305       19.814        4.907       17.133       11.891       11.216      293.528      141.397      125.804        0.104        0.028       38.753        7.948        0.042      330.944       -1.360      865.597
12/28/2014  05:31:00        2.316        6.497        1.291        6.009       10.854        5.441       36.102      117.819       29.609        0.012        0.009        6.898        3.922        0.323      330.947       -1.354      865.622
12/28/2014  05:32:00       -0.295        9.990       -0.556       11.894       11.258        9.379      141.479      126.747       87.965        0.023        0.018        9.994        7.792        0.608      330.954       -1.342      865.632
12/28/2014  05:33:00      -24.610       20.809       -6.255       11.193       12.885        7.230      125.282      166.025       52.268        0.071        0.017       32.229        6.089        0.036      330.953       -1.345      865.641
12/28/2014  05:34:00       27.890       40.161        3.941       16.391       15.529       15.815      268.679      241.153      250.116        0.158        0.038       48.895       10.767        0.048      330.933       -1.375      865.591
12/28/2014  05:35:00       28.318       81.102      -14.858       13.692       18.265       12.774      187.481      333.605      163.164        0.414        0.034       85.904       11.678        0.018      330.836       -1.535      865.567
12/28/2014  05:36:00       42.293       16.645        1.146       20.218       24.694       17.783      408.783      609.773      316.223        0.170        0.067       45.450       16.780        0.136      330.781       -1.627      865.566
12/28/2014  05:37:00        7.468       -1.871       -3.025       11.034        8.537        9.978      121.749       72.872       99.558        0.018        0.015        7.698        7.368        0.916      330.786       -1.619      865.616
12/28/2014  05:38:00      -13.756       15.441       -6.006       21.700        6.149        7.364      470.879       37.809       54.231        0.051        0.028       20.680        4.521        0.048      330.851       -1.512      865.616
12/28/2014  05:39:00      -61.764      -22.224       -5.281       13.294       19.277        8.175      176.722      371.591       66.836        0.248        0.031       65.641        7.311        0.012      330.774       -1.637      865.615
12/28/2014  05:40:00      -19.578      -23.006        4.288       26.043       16.827       12.692      678.246      283.150      161.089        0.103        0.056       30.209       11.919        0.156      330.761       -1.660      865.618
12/28/2014  05:41:00      -10.968       -6.060        3.797       18.230       11.496        9.930      332.341      132.163       98.595        0.037        0.028       12.530       11.745        0.879      330.747       -1.682      865.611
12/28/2014  05:42:00      -19.754        5.060       -4.235       19.331        5.286        5.739      373.672       27.946       32.940        0.043        0.022       20.392        9.383        0.212      330.746       -1.686      865.585
12/28/2014  05:43:00      -60.387       -2.149       -7.591       11.840        9.109        8.206      140.175       82.980       67.337        0.200        0.015       60.426        3.470        0.003      330.772       -1.643      865.593
12/28/2014  05:44:00      -58.111      -10.393       -9.311       13.571        7.421        7.781      184.183       55.071       60.550        0.194        0.015       59.033        4.436        0.006      330.773       -1.641      865.590
12/28/2014  05:45:00      -86.662        9.215       -5.643       20.656       18.693       11.346      426.679      349.411      128.735        0.427        0.045       87.151       10.245        0.014      330.763       -1.657      865.595
12/28/2014  05:46:00      -27.198       26.924       -6.848       10.973       10.088        5.167      120.405      101.759       26.697        0.088        0.012       38.271        3.688        0.009      330.862       -1.492      865.561
12/28/2014  05:47:00      -16.314       14.987        2.615       20.732       17.373        9.560      429.803      301.835       91.390        0.066        0.041       22.153        9.299        0.176      330.901       -1.427      865.556
12/28/2014  05:48:00      -30.495       10.457       -5.089       12.666       13.000        8.971      160.435      169.007       80.474        0.074        0.020       32.238        8.405        0.068      330.834       -1.540      865.610
12/28/2014  05:49:00      -37.659       -5.415       -7.265       10.920       11.682        6.752      119.248      136.475       45.594        0.090        0.015       38.047        3.308        0.008      330.756       -1.669      865.640
12/28/2014  05:50:00      -49.033       -5.326       -5.442        7.061        6.970        6.264       49.854       48.580       39.238        0.130        0.007       49.321        2.896        0.003      330.701       -1.757      865.652
12/28/2014  05:51:00      -38.824        3.436       -6.163        8.444        6.788        8.966       71.294       46.083       80.391        0.088        0.010       38.976        5.768        0.022      330.731       -1.708      865.643
12/28/2014  05:52:00        7.989       19.820        5.724       16.691        8.823        6.317      278.582       77.850       39.910        0.044        0.020       21.369        7.493        0.123      330.855       -1.505      865.630
12/28/2014  05:53:00       27.081       49.316       -4.667        8.406       17.808       11.013       70.653      317.129      121.279        0.185        0.025       56.262       12.567        0.050      330.815       -1.570      865.613
12/28/2014  05:54:00       32.240       81.619      -12.594       18.394       18.529       14.937      338.335      343.338      223.110        0.438        0.045       87.756       10.756        0.015      330.648       -1.844      865.597
12/28/2014  05:55:00       22.623       70.955       -9.463       23.778       25.533       17.919      565.391      651.948      321.091        0.359        0.077       74.474       17.430        0.055      330.609       -1.908      865.583
12/28/2014  05:56:00       41.031       25.731      -15.724       27.744       34.804       15.017      769.756     1211.291      225.522        0.240        0.110       48.431       10.401        0.046      330.635       -1.867      865.611
12/28/2014  05:57:00       -0.584      -24.639       -2.538       14.910       15.317       17.590      222.311      234.613      309.422        0.069        0.038       24.646        9.549        0.150      330.695       -1.767      865.658
12/28/2014  05:58:00        7.341       11.362        6.036       18.460       11.347        7.899      340.760      128.749       62.400        0.038        0.027       13.527        4.312        0.102      330.678       -1.795      865.662
12/28/2014  05:59:00        4.737       33.250       -1.264       20.102       18.679        9.718      404.099      348.905       94.446        0.099        0.042       33.586       10.195        0.092      330.781       -1.625      865.606
12/28/2014  06:00:00        5.813       36.595       -1.087       16.206       20.153       10.675      262.622      406.126      113.965        0.108        0.039       37.053        9.775        0.070      330.688       -1.779      865.541
12/28/2014  06:01:00       49.104       36.639        4.425       16.518       18.675       18.355      272.847      348.757      336.910        0.237        0.048       61.267       14.637        0.057      330.624       -1.884      865.481
12/28/2014  06:02:00      -26.924       25.657       -6.137       34.681       29.991       16.479     1202.797      899.486      271.549        0.190        0.119       37.191       18.612        0.250      330.638       -1.861      865.486
12/28/2014  06:03:00      -91.350      -37.123       -6.771       46.051       18.877       16.021     2120.739      356.334      256.683        0.625        0.137       98.605       20.631        0.044      330.437       -2.189      865.523
12/28/2014  06:04:00       -3.142       -7.314        5.741       18.248       19.652       11.533      332.976      386.184      133.003        0.047        0.043        7.961        9.178        1.329      330.513       -2.066      865.525
12/28/2014  06:05:00       -7.808       30.432       -3.127       20.720       10.219       14.098      429.299      104.434      198.759        0.086        0.037       31.417        7.144        0.052      330.621       -1.889      865.502
12/28/2014  06:06:00      -51.335       34.750      -12.834       21.609       17.888       13.906      466.952      319.977      193.388        0.249        0.049       61.991       14.432        0.054      330.537       -2.027      865.510
12/28/2014  06:07:00      -73.383       24.424      -12.497       16.034       17.329       14.504      257.098      300.305      210.377        0.345        0.038       77.340       11.707        0.023      330.587       -1.945      865.515
12/28/2014  06:08:00      -34.266      -20.346       -6.417       20.316       20.183        9.359      412.727      407.356       87.584        0.127        0.045       39.851       10.997        0.076      330.516       -2.060      865.501
12/28/2014  06:09:00      -36.359       -5.844      -12.436       14.479        7.466        7.491      209.653       55.741       56.114        0.092        0.016       36.825        5.397        0.021      330.470       -2.135      865.483
12/28/2014  06:10:00      -28.854        4.885        5.125       10.964        5.520        5.402      120.212       30.467       29.178        0.053        0.009       29.264        4.463        0.023      330.474       -2.131      865.487
12/28/2014  06:11:00      -46.455      -15.366       -7.057       12.511       17.465        8.176      156.529      305.031       66.847        0.149        0.026       48.931        6.302        0.017      330.521       -2.052      865.502
12/28/2014  06:12:00       -9.793      -13.677       -3.562       10.947       13.858        9.918      119.839      192.051       98.372        0.035        0.021       16.821        9.242        0.302      330.478       -2.123      865.489
12/28/2014  06:13:00      -11.459       -2.778       -6.844        4.992        7.940        5.594       24.918       63.044       31.290        0.015        0.006       11.791        4.278        0.132      330.480       -2.121      865.486
12/28/2014  06:14:00      -28.745        2.929       -3.745        8.700        4.438        3.633       75.688       19.700       13.198        0.048        0.005       28.894        2.832        0.010      330.642       -1.854      865.492
12/28/2014  06:15:00      -88.366       12.151       -7.381       23.758       16.029        9.214      564.422      256.917       84.900        0.446        0.045       89.198        6.786        0.006      330.422       -2.216      865.495
12/28/2014  06:16:00      -45.226        6.352       -2.531       37.275       16.898       14.438     1389.428      285.537      208.449        0.199        0.094       45.670       18.578        0.165      330.336       -2.356      865.474
12/28/2014  06:17:00      -82.770      -19.888      -13.290       12.331       17.126       11.263      152.064      293.316      126.846        0.400        0.029       85.126        9.304        0.012      330.426       -2.210      865.479
12/28/2014  06:18:00      -81.015      -25.015      -13.535       11.086       10.261        7.468      122.899      105.292       55.769        0.383        0.014       84.789        5.598        0.004      330.474       -2.129      865.483
12/28/2014  06:19:00      -97.212      -29.542      -14.441       17.283       13.255       11.820      298.693      175.693      139.723        0.557        0.031      101.601        8.857        0.008      330.473       -2.131      865.485
12/28/2014  06:20:00      -97.100       -8.449      -12.946       25.317       17.011       12.988      640.954      289.383      168.676        0.538        0.055       97.467        8.689        0.008      330.328       -2.370      865.481
12/28/2014  06:21:00      -72.895      -20.362       -9.844       24.637       14.101        7.390      606.996      198.852       54.607        0.334        0.043       75.686        4.088        0.003      330.375       -2.294      865.478
12/28/2014  06:22:00     -133.569        6.466      -14.095       24.981       20.959       16.761      624.049      439.280      280.936        0.971        0.067      133.725       11.670        0.008      330.223       -2.542      865.494
12/28/2014  06:23:00      -48.063      -22.156        0.192       29.365       19.686       18.929      862.278      387.552      358.310        0.220        0.080       52.924       19.372        0.134      330.149       -2.664      865.480
12/28/2014  06:24:00      -71.675      -43.141       -2.973       19.434       26.453       11.701      377.674      699.768      136.905        0.411        0.061       83.657        9.354        0.013      330.308       -2.401      865.495
12/28/2014  06:25:00      -80.771      -38.513        1.629       41.514       24.269       21.589     1723.439      589.000      466.101        0.539        0.139       89.483       21.899        0.060      330.330       -2.366      865.519
12/28/2014  06:26:00      -37.543      -14.417        0.426       24.044       16.021       14.821      578.108      256.687      219.651        0.134        0.053       40.216        8.853        0.048      330.318       -2.386      865.527
12/28/2014  06:27:00      -55.373      -18.809       -6.044       23.652       13.044       12.477      559.407      170.149      155.667        0.217        0.044       58.480       14.104        0.058      330.380       -2.283      865.523
12/28/2014  06:28:00      -55.731      -12.784       -4.503       13.810       18.664        9.079      190.723      348.342       82.427        0.196        0.031       57.179        6.024        0.011      330.329       -2.366      865.532
12/28/2014  06:29:00      -41.987        9.657      -10.811       13.134       13.278        7.602      172.498      176.308       57.791        0.119        0.020       43.083        5.921        0.019      330.356       -2.320      865.516
12/28/2014  06:30:00      -66.696       36.446      -10.460       14.926       18.682       15.013      222.795      349.016      225.397        0.334        0.040       76.005        6.794        0.008      330.548       -2.009      865.523
12/28/2014  06:31:00      -62.295       49.670      -12.481       27.007       19.484       16.762      729.360      379.616      280.976        0.395        0.069       79.673       16.362        0.042      330.558       -1.991      865.524
12/28/2014  06:32:00      -89.522       15.732      -11.209       26.065       35.607       18.412      679.363     1267.880      338.995        0.534        0.114       90.893       15.290        0.028      330.488       -2.107      865.547
12/28/2014  06:33:00      -59.822      -33.408      -10.426       50.812       31.517       18.009     2581.866      993.315      324.326        0.435        0.195       68.519       16.082        0.055      330.325       -2.374      865.577
12/28/2014  06:34:00      -29.381      -16.949       -4.047       27.567       18.064       13.079      759.937      326.294      171.055        0.121        0.063       33.920        7.646        0.051      330.366       -2.307      865.585
12/28/2014  06:35:00     -115.312       -2.501      -18.285       42.087       29.947       20.028     1771.341      896.799      401.102        0.835        0.153      115.339       14.871        0.017      330.193       -2.591      865.621
12/28/2014  06:36:00     -101.153       44.091       -3.734       48.712       38.249       30.660     2372.816     1463.005      940.028        0.848        0.239      110.345       24.385        0.049      330.160       -2.645      865.625
12/28/2014  06:37:00      -92.076      101.903      -23.994       29.302       29.727       20.647      858.619      883.666      426.312        1.080        0.108      137.339       17.032        0.015      330.442       -2.183      865.580
12/28/2014  06:38:00      -74.494      -28.023       -7.672       26.135       56.696       22.053      683.036     3214.429      486.338        0.539        0.219       79.591       12.466        0.025      330.387       -2.273      865.555
12/28/2014  06:39:00     -132.850      -58.272        0.523       61.844       42.160       24.584     3824.727     1777.504      604.357        1.362        0.310      145.068       29.091        0.040      330.256       -2.489      865.588
12/28/2014  06:40:00     -114.842      -42.089      -23.465       45.087       23.759       20.824     2032.848      564.476      433.628        0.927        0.152      122.312       12.192        0.010      330.163       -2.640      865.584
12/28/2014  06:41:00      -90.751       18.740       -8.062       28.316       21.614       12.746      801.823      467.165      162.467        0.504        0.072       92.666       11.888        0.016      330.069       -2.794      865.531
12/28/2014  06:42:00     -104.462       27.664      -18.837       33.725       28.052       19.473     1137.350      786.922      379.208        0.717        0.115      108.063       14.278        0.017      330.194       -2.590      865.541
12/28/2014  06:43:00     -110.393       21.334      -17.142       21.397       34.088       21.576      457.822     1161.968      465.538        0.751        0.104      112.436       10.658        0.009      330.390       -2.268      865.550
12/28/2014  06:44:00     -119.531      -32.284       -9.673       43.966       32.436       25.779     1932.969     1052.111      664.542        0.954        0.182      123.814       20.140        0.026      330.378       -2.286      865.549
12/28/2014  06:45:00     -172.477       -8.415      -25.803       46.852       42.683       25.935     2195.115     1821.806      672.645        1.759        0.234      172.682       22.696        0.017      330.125       -2.702      865.578
12/28/2014  06:46:00     -155.594       31.908       -7.656       44.315       39.923       26.367     1963.816     1593.861      695.238        1.477        0.213      158.832       19.692        0.015      330.204       -2.574      865.578
12/28/2014  06:47:00     -104.357       16.999       -6.429       49.608       28.712       17.540     2460.908      824.406      307.641        0.741        0.180      105.733       22.570        0.046      330.488       -2.109      865.539
12/28/2014  06:48:00      -83.650       26.124       -9.628       60.379       31.094       21.864     3645.589      966.813      478.035        0.643        0.255       87.634       29.082        0.110      330.495       -2.095      865.523
12/28/2014  06:49:00     -182.400       18.110      -19.408       54.613       47.780       27.187     2982.529     2282.941      739.141        1.999        0.300      183.297       22.613        0.015      330.394       -2.262      865.548
12/28/2014  06:50:00     -148.845       26.803      -18.999       49.349       27.754       22.823     2435.350      770.280      520.872        1.348        0.186      151.239       16.307        0.012      330.440       -2.185      865.528
12/28/2014  06:51:00     -155.475       20.827      -19.319       33.875       28.756       21.718     1147.484      826.886      471.690        1.371        0.122      156.864       14.446        0.008      330.557       -1.993      865.526
12/28/2014  06:52:00      -79.786       12.002       -2.901       44.695       50.860       20.971     1997.623     2586.783      439.793        0.577        0.251       80.684       22.641        0.079      330.679       -1.793      865.493
12/28/2014  06:53:00      -64.896      -26.412       -6.172       35.493       20.518       17.292     1259.721      420.973      299.021        0.346        0.099       70.065       16.581        0.056      330.529       -2.041      865.503
12/28/2014  06:54:00     -118.512      -53.811       -4.695       32.061       34.374       17.953     1027.938     1181.591      322.318        0.975        0.127      130.156       14.849        0.013      330.323       -2.378      865.531
12/28/2014  06:55:00     -127.427      -64.842      -10.670       28.932       24.262       24.901      837.087      588.632      620.083        1.130        0.102      142.976       20.142        0.020      330.212       -2.561      865.553
12/28/2014  06:56:00      -70.876      -34.870       -3.973       22.673       25.083       13.329      514.073      629.182      177.658        0.379        0.066       78.989        8.610        0.012      330.256       -2.485      865.556
12/28/2014  06:57:00      -55.568      -31.834        3.142       28.928       21.850       16.336      836.830      477.438      266.871        0.285        0.079       64.041       16.942        0.070      330.315       -2.391      865.548
12/28/2014  06:58:00      -40.902      -29.859        5.999       39.269       20.042       19.176     1542.049      401.680      367.732        0.246        0.116       50.641       21.288        0.177      330.392       -2.263      865.537
12/28/2014  06:59:00      -89.192      -56.943       -3.281       20.719       23.828       13.145      429.289      567.796      172.803        0.619        0.058      105.819        9.949        0.009      330.379       -2.286      865.553
12/28/2014  07:00:00      -60.147      -32.092        2.120       31.262       16.915        9.819      977.337      286.128       96.410        0.301        0.068       68.172       10.052        0.022      330.454       -2.162      865.568
12/28/2014  07:01:00      -40.547      -14.352       -5.235       11.728        7.730        5.310      137.542       59.750       28.198        0.105        0.011       43.012        2.274        0.003      330.548       -2.007      865.570
12/28/2014  07:02:00      -29.820      -15.034      -11.779        6.843        8.262        5.280       46.832       68.264       27.877        0.070        0.007       33.395        4.424        0.018      330.688       -1.777      865.568
12/28/2014  07:03:00      -36.712      -34.793       -7.482       12.829       10.870        9.452      164.582      118.146       89.346        0.149        0.019       50.580        7.643        0.023      330.968       -1.321      865.550
12/28/2014  07:04:00      -32.016      -26.861       -3.423       11.145       10.362        9.778      124.205      107.370       95.615        0.104        0.016       41.791        4.570        0.012      330.905       -1.422      865.525
12/28/2014  07:05:00      -46.535      -13.256       -6.842        9.274        9.372        4.821       86.008       87.828       23.238        0.129        0.010       48.386        4.262        0.008      330.682       -1.789      865.522
12/28/2014  07:06:00      -32.277      -26.700        2.127       16.703        9.427        9.057      278.995       88.869       82.030        0.110        0.022       41.889        9.763        0.054      330.598       -1.926      865.525
12/28/2014  07:07:00      -16.111      -16.813       -2.435       17.920       11.984        5.510      321.144      143.615       30.359        0.052        0.025       23.286        4.769        0.042      331.072       -1.149      865.543
12/28/2014  07:08:00      -38.190      -30.577       -2.890       13.269       13.612       13.041      176.066      185.277      170.058        0.147        0.027       48.922        8.346        0.029      330.713       -1.739      865.583
12/28/2014  07:09:00      -43.236      -43.936        9.558       54.525       34.384       23.293     2972.941     1182.241      542.575        0.429        0.235       61.642       19.740        0.103      330.634       -1.867      865.615
12/28/2014  07:10:00        1.526        4.619       20.967       21.184       34.372       16.519      448.751     1181.466      272.889        0.118        0.095        4.865       14.611        9.020      330.745       -1.685      865.614
12/28/2014  07:11:00      -21.691      -23.315       -4.130       22.441       23.467       19.529      503.613      550.715      381.389        0.123        0.072       31.845       16.281        0.261      330.763       -1.655      865.601
12/28/2014  07:12:00        3.801       14.435        9.767       14.689       20.276       16.673      215.769      411.124      278.003        0.061        0.045       14.928       13.079        0.768      330.688       -1.779      865.618
12/28/2014  07:13:00      -26.426       -9.478        4.500       35.799       38.286       15.239     1281.546     1465.811      232.223        0.189        0.149       28.074       17.063        0.369      330.647       -1.847      865.607
12/28/2014  07:14:00      -83.530      -49.185       -6.230       35.011       22.710       14.177     1225.802      515.723      200.984        0.569        0.097       96.935        6.656        0.005      330.558       -1.993      865.603
12/28/2014  07:15:00      -18.215       -9.731       -7.723       30.622       16.274       10.143      937.736      264.853      102.886        0.090        0.065       20.651       15.002        0.528      330.647       -1.846      865.632
12/28/2014  07:16:00        5.957        8.626        4.129        6.010        9.025        6.456       36.120       81.448       41.681        0.014        0.008       10.483        4.391        0.175      330.677       -1.798      865.665
12/28/2014  07:17:00       59.149       18.815        5.753       53.964       24.708       25.418     2912.158      610.507      646.064        0.403        0.208       62.070       21.623        0.121      330.603       -1.917      865.694
12/28/2014  07:18:00      136.787       81.619        5.077       55.283       49.919       35.978     3056.244     2491.915     1294.440        1.612        0.342      159.287       29.335        0.034      330.146       -2.669      865.727
12/28/2014  07:19:00      133.567       85.140       17.870       47.874       44.407       34.096     2291.880     1971.996     1162.564        1.542        0.271      158.396       25.908        0.027      329.992       -2.919      865.729
12/28/2014  07:20:00      135.433       88.910       12.510       52.265       38.800       27.764     2731.662     1505.441      770.821        1.570        0.250      162.009       19.963        0.015      329.925       -3.031      865.708
12/28/2014  07:21:00      109.823       88.332       16.641       33.973       29.586       24.610     1154.190      875.341      605.637        1.139        0.132      140.938       19.951        0.020      330.040       -2.842      865.727
12/28/2014  07:22:00       93.748       68.711        7.120       43.238       36.054       35.016     1869.529     1299.883     1226.122        0.898        0.220      116.232       22.318        0.037      330.061       -2.807      865.738
12/28/2014  07:23:00       65.414       56.341        5.354       54.709       38.306       26.490     2993.096     1467.341      701.726        0.632        0.258       86.333       20.764        0.058      330.069       -2.794      865.743
12/28/2014  07:24:00       21.928       82.440       -3.575       41.557       47.101       22.259     1726.957     2218.493      495.474        0.586        0.222       85.307       18.135        0.045      330.102       -2.741      865.752
12/28/2014  07:25:00       46.303       48.976        1.934       25.399       22.926       23.881      645.121      525.598      570.290        0.314        0.087       67.399       17.622        0.068      330.079       -2.778      865.736
12/28/2014  07:26:00       93.449       34.396       11.399       25.848       20.151       19.683      668.105      406.061      387.413        0.575        0.073       99.578       11.706        0.014      330.109       -2.729      865.725
12/28/2014  07:27:00       64.170       23.382       16.944       22.483       19.730       22.047      505.498      389.255      486.070        0.317        0.069       68.297        9.336        0.019      330.100       -2.745      865.722
12/28/2014  07:28:00       82.202       41.004       11.486       23.942       24.408       21.696      573.205      595.744      470.725        0.510        0.082       91.862       14.727        0.026      330.092       -2.756      865.708
12/28/2014  07:29:00       62.111       30.717       15.939       16.351       16.186       11.436      267.357      261.985      130.785        0.286        0.033       69.291        4.027        0.003      330.098       -2.747      865.726
12/28/2014  07:30:00       64.053       41.407       29.325       15.882       14.375       13.390      252.236      206.633      179.279        0.366        0.032       76.271        6.777        0.008      330.198       -2.582      865.742
12/28/2014  07:31:00       77.208       56.901       21.021       12.634       13.083       12.410      159.614      171.165      154.004        0.506        0.024       95.911        6.698        0.005      330.208       -2.567      865.759
12/28/2014  07:32:00       57.274       48.060        3.320       14.970       12.800       13.346      224.101      163.828      178.104        0.308        0.028       74.767        8.391        0.013      330.261       -2.479      865.761
12/28/2014  07:33:00       58.061       36.093        9.980       13.338       13.933        9.830      177.913      194.121       96.634        0.262        0.023       68.365        6.502        0.009      330.352       -2.330      865.775
12/28/2014  07:34:00       52.856       34.548        9.145       14.485       14.801       10.566      209.807      219.084      111.632        0.231        0.027       63.145        7.758        0.015      330.319       -2.385      865.783
12/28/2014  07:35:00       77.578       57.401       24.239        7.388        6.059        6.206       54.590       36.712       38.518        0.502        0.006       96.505        2.879        0.001      330.501       -2.085      865.785
12/28/2014  07:36:00       54.481       38.545       15.449       13.166        9.361       10.146      173.343       87.637      102.947        0.253        0.018       66.737        6.595        0.010      330.561       -1.987      865.806
12/28/2014  07:37:00       56.131       28.857        9.362       17.049       10.523       11.356      290.661      110.728      128.957        0.230        0.027       63.115       10.533        0.028      330.562       -1.985      865.833
12/28/2014  07:38:00       34.286       19.207        8.208       18.425       22.038       18.788      339.471      485.673      352.972        0.139        0.059       39.299       12.330        0.098      330.531       -2.037      865.844
12/28/2014  07:39:00       14.599       24.190       36.620       15.710       15.575        8.164      246.813      242.576       66.646        0.135        0.028       28.254        6.935        0.060      330.467       -2.141      865.850
12/28/2014  07:40:00       20.728        0.339       28.110       31.464       28.210       16.861      989.974      795.814      284.303        0.164        0.104       20.731       19.861        0.918      330.534       -2.031      865.857
12/28/2014  07:41:00        3.620        2.355       20.630       13.694       27.407       19.216      187.518      751.126      369.258        0.088        0.065        4.319       22.158       26.325      330.603       -1.919      865.872
12/28/2014  07:42:00      -22.020      -23.592        0.945       37.944       12.147       12.090     1439.734      147.539      146.157        0.139        0.087       32.272        7.001        0.047      330.562       -1.985      865.890
12/28/2014  07:43:00      -57.247      -21.407       -3.889       14.202       12.740        6.555      201.691      162.302       42.964        0.208        0.020       61.119        3.061        0.003      330.450       -2.168      865.913
12/28/2014  07:44:00      -84.320      -36.482       -5.660       18.766       12.484       10.239      352.177      155.848      104.846        0.454        0.031       91.874        9.703        0.011      330.529       -2.039      865.928
12/28/2014  07:45:00      -91.383        1.855      -13.835       11.213       10.612        7.585      125.727      112.621       57.529        0.442        0.015       91.402        5.652        0.004      330.575       -1.964      865.928
12/28/2014  07:46:00      -48.259       -9.013       -8.707       27.769       17.376        7.894      771.121      301.933       62.315        0.181        0.057       49.093       12.337        0.063      330.508       -2.075      865.913
12/28/2014  07:47:00       61.979      -23.494       -9.056       24.701       13.293       10.322      610.122      176.698      106.537        0.268        0.045       66.282        7.951        0.014      331.034       -1.212      865.871
12/28/2014  07:48:00       -9.962      -20.781        5.174       34.703       22.809       15.422     1204.264      520.243      237.834        0.126        0.098       23.046        8.230        0.128      330.885       -1.455      865.872
12/28/2014  07:49:00      -33.525       -2.542       -1.787       23.435       11.607        9.868      549.202      134.726       97.369        0.096        0.039       33.621       11.373        0.114      330.692       -1.773      865.914
12/28/2014  07:50:00      -79.043      -12.994       -9.027       17.191       13.164       10.247      295.543      173.279      105.009        0.354        0.029       80.104        5.363        0.004      330.486       -2.110      865.950
12/28/2014  07:51:00      -67.697      -38.878       -2.108       15.890       13.514        9.866      252.501      182.629       97.332        0.332        0.027       78.067        7.364        0.009      330.525       -2.044      865.968
12/28/2014  07:52:00      -47.579      -24.721       -6.039        6.156        8.667        6.580       37.902       75.110       43.297        0.153        0.008       53.618        4.055        0.006      330.607       -1.912      865.987
12/28/2014  07:53:00      -73.707        2.636      -10.630       15.909        9.439        8.658      253.091       89.088       74.955        0.298        0.021       73.754        7.022        0.009      330.518       -2.057      865.992
12/28/2014  07:54:00      -33.736        6.324       -6.468       30.395        5.709        6.084      923.869       32.597       37.015        0.111        0.050       34.323       11.299        0.108      330.557       -1.996      866.004
12/28/2014  07:55:00        2.144       30.832       35.467       15.369       16.091       20.596      236.219      258.915      424.191        0.157        0.046       30.906       18.427        0.355      330.778       -1.629      865.992
12/28/2014  07:56:00      -14.059      -23.208       10.675       25.871       26.709       27.786      669.312      713.346      772.079        0.150        0.108       27.134       27.570        1.032      330.863       -1.494      866.001
12/28/2014  07:57:00        7.459      -13.960        8.968       23.366       21.558       21.436      545.980      464.761      459.490        0.090        0.074       15.828       17.805        1.265      330.764       -1.655      866.043
12/28/2014  07:58:00       11.486       15.322       24.002       14.342       10.754       15.506      205.684      115.657      240.424        0.075        0.028       19.149       11.226        0.344      330.908       -1.419      866.051
12/28/2014  07:59:00       -6.198       29.004       47.548       15.359       24.069       15.489      235.886      579.318      239.919        0.210        0.053       29.659       14.222        0.230      331.028       -1.221      866.067
12/28/2014  08:00:00      -10.599       10.935       25.545       16.029       22.995       17.825      256.934      528.759      317.733        0.099        0.055       15.229       13.380        0.772      330.967       -1.321      866.096
12/28/2014  08:01:00        0.671      -13.970       12.808       29.029       25.786       21.625      842.712      664.925      467.633        0.117        0.099       13.986       23.166        2.743      331.000       -1.268      866.108
12/28/2014  08:02:00      -22.731      -34.630       -5.326       36.330       35.675       13.068     1319.872     1272.727      170.775        0.225        0.138       41.423        9.525        0.053      330.857       -1.501      866.104
12/28/2014  08:03:00       -1.080      -32.376       -4.977       14.938       24.067       13.315      223.139      579.208      177.294        0.103        0.049       32.394       12.527        0.150      330.959       -1.334      866.101
12/28/2014  08:04:00       27.897       10.255       34.553       33.151       31.414       25.361     1098.969      986.815      643.200        0.240        0.136       29.722       27.788        0.874      331.191       -0.952      866.084
12/28/2014  08:05:00        9.275       30.975       47.348       33.334       33.541       22.882     1111.167     1125.021      523.607        0.302        0.138       32.333       20.174        0.389      331.121       -1.066      866.083
12/28/2014  08:06:00        5.770      -16.395       22.422       21.569       28.532       16.610      465.214      814.074      275.881        0.118        0.078       17.381        8.239        0.225      331.176       -0.979      866.091
12/28/2014  08:07:00      -18.636      -47.737       -4.727       39.662       21.006       18.878     1573.056      441.269      356.373        0.251        0.119       51.246       17.607        0.118      330.992       -1.280      866.100
12/28/2014  08:08:00      -21.427      -22.403       11.608       35.796       26.821       18.406     1281.322      719.349      338.766        0.172        0.117       31.001       19.221        0.384      330.944       -1.358      866.112
12/28/2014  08:09:00      -44.988      -35.386        7.753       31.195       24.674       18.787      973.149      608.802      352.951        0.264        0.097       57.237       15.712        0.075      330.762       -1.657      866.089
12/28/2014  08:10:00       -9.329        4.711        8.908       39.113       19.314       12.548     1529.862      373.032      157.449        0.112        0.103       10.451       11.818        1.279      331.049       -1.187      866.087
12/28/2014  08:11:00       22.012       32.208       -4.395       18.333       15.815       17.917      336.086      250.109      321.015        0.122        0.045       39.011        8.395        0.046      331.108       -1.091      866.101
12/28/2014  08:12:00      -19.185        7.552       -2.490       13.453       16.744        9.533      180.973      280.348       90.877        0.049        0.028       20.618        9.401        0.208      331.137       -1.043      866.111
12/28/2014  08:13:00      -39.250        9.123       -8.952        5.364        7.998        5.950       28.769       63.966       35.401        0.092        0.006       40.296        3.524        0.008      331.048       -1.190      866.096
12/28/2014  08:14:00      -53.802       -7.843       -6.651       21.906       12.922       11.700      479.854      166.972      136.883        0.189        0.039       54.371       11.767        0.047      330.988       -1.287      866.086
12/28/2014  08:15:00      -23.345       10.942        1.084       12.792       15.460        9.779      163.634      239.024       95.620        0.058        0.025       25.782        7.268        0.079      331.055       -1.177      866.090
12/28/2014  08:16:00      -51.752        5.510       -3.229       26.920        8.426        8.414      724.661       70.995       70.790        0.179        0.043       52.044        9.416        0.033      331.030       -1.218      866.111
12/28/2014  08:17:00      -72.140      -13.036       -8.258       12.325       11.117        9.230      151.897      123.579       85.191        0.290        0.018       73.308        7.367        0.010      331.053       -1.180      866.111
12/28/2014  08:18:00      -47.006      -15.100       -9.501        8.242        9.840        6.850       67.926       96.828       46.923        0.137        0.011       49.372        3.686        0.006      331.093       -1.115      866.093
12/28/2014  08:19:00      -57.683       -3.689       -9.487        9.484       11.003        6.315       89.938      121.072       39.884        0.184        0.013       57.801        2.884        0.002      331.010       -1.250      866.075
12/28/2014  08:20:00      -87.245       11.013       -9.184       12.763        7.349        7.715      162.902       54.011       59.519        0.405        0.014       87.938        6.454        0.005      331.059       -1.170      866.070
12/28/2014  08:21:00      -53.570       -1.330       -8.655       11.818       13.458        9.290      139.661      181.122       86.306        0.168        0.020       53.586        7.866        0.022      331.082       -1.133      866.075
12/28/2014  08:22:00      -50.863      -16.425       -3.049       12.983       18.809        7.918      168.570      353.760       62.697        0.173        0.029       53.449        9.379        0.031      331.135       -1.045      866.062
12/28/2014  08:23:00      -76.050      -27.027       -4.274       16.846       10.873        7.744      283.790      118.222       59.966        0.350        0.023       80.710        7.393        0.008      331.147       -1.025      866.065
12/28/2014  08:24:00      -79.086      -39.359       -0.702       24.370       19.359       13.213      593.903      374.758      174.594        0.447        0.057       88.339       11.940        0.018      331.180       -0.972      866.065
12/28/2014  08:25:00        7.010       -6.994       18.484       20.815       14.822       14.450      433.257      219.702      208.793        0.065        0.043        9.902       12.798        1.670      331.510       -0.429      866.072
12/28/2014  08:26:00       -3.609       -4.012       11.541       14.659       10.993       16.132      214.872      120.846      260.235        0.038        0.030        5.396       12.537        5.398      331.710       -0.099      866.064
12/28/2014  08:27:00      -19.817       -6.099        1.862       21.672       14.915       11.307      469.680      222.457      127.845        0.063        0.041       20.734       11.583        0.312      331.435       -0.551      866.051
12/28/2014  08:28:00      -45.589      -26.224       -4.190       24.275       11.636       12.051      589.252      135.403      145.231        0.183        0.043       52.593       13.919        0.070      331.406       -0.599      866.048
12/28/2014  08:29:00      -50.387      -29.595       -7.396       23.818       22.021       13.103      567.313      484.925      171.692        0.235        0.061       58.436       13.194        0.051      331.339       -0.709      866.047
12/28/2014  08:30:00      -35.002      -20.746        4.888       30.505       20.094       11.608      930.585      403.766      134.750        0.157        0.073       40.688       10.890        0.072      331.371       -0.656      866.056
12/28/2014  08:31:00       -8.251      -12.671       10.310       17.042       14.624       15.812      290.422      213.855      250.010        0.054        0.038       15.120       12.194        0.650      331.633       -0.226      866.060
12/28/2014  08:32:00      -56.899      -59.484       -3.947       42.766       29.863       19.172     1828.898      891.813      367.576        0.494        0.154       82.315       19.995        0.059      331.384       -0.634      866.054
12/28/2014  08:33:00      -84.651      -88.274       -2.799       18.583       21.798       14.264      345.342      475.165      203.453        0.799        0.051      122.303       12.091        0.010      331.329       -0.726      866.053
12/28/2014  08:34:00      -83.632      -62.995       -1.779       20.370       22.125       13.066      414.924      489.514      170.727        0.602        0.054      104.703       10.220        0.010      331.381       -0.639      866.052
12/28/2014  08:35:00      -99.308      -13.643       -7.828       29.075       28.769       17.566      845.347      827.674      308.564        0.605        0.099      100.241       13.949        0.019      331.409       -0.595      866.042
12/28/2014  08:36:00      -98.331      -26.599       -6.749       40.255       24.161       16.574     1620.426      583.740      274.713        0.645        0.124      101.865       17.105        0.028      331.413       -0.588      866.030
12/28/2014  08:37:00      -99.064       -2.839      -13.921       34.619       31.059       19.024     1198.468      964.679      361.931        0.627        0.126       99.105       15.322        0.024      331.357       -0.680      866.031
12/28/2014  08:38:00     -141.376       -6.602      -16.816       30.998       20.036       16.616      960.871      401.461      276.095        1.098        0.082      141.530       17.099        0.015      331.401       -0.608      866.038
12/28/2014  08:39:00     -157.328       -0.336      -18.892       27.090       24.502       19.830      733.861      600.345      393.218        1.342        0.086      157.328       17.259        0.012      331.431       -0.560      866.039
12/28/2014  08:40:00     -145.544        7.954      -12.073       49.525       32.100       23.921     2452.740     1030.433      572.222        1.272        0.203      145.761       24.084        0.027      331.447       -0.534      866.047
12/28/2014  08:41:00     -158.232        5.903      -12.623       39.395       27.860       25.229     1551.997      776.155      636.502        1.410        0.148      158.342       23.398        0.022      331.459       -0.513      866.050
12/28/2014  08:42:00     -129.714       17.566      -11.238       36.606       27.003       21.701     1340.019      729.169      470.929        0.990        0.127      130.898       16.997        0.017      331.497       -0.450      866.065
12/28/2014  08:43:00     -120.131       36.815      -19.244       33.223       20.142       23.856     1103.745      405.703      569.093        0.912        0.104      125.645       18.156        0.021      331.570       -0.328      866.070
12/28/2014  08:44:00     -106.486       24.218      -10.439       26.137       29.887       15.736      683.135      893.245      247.631        0.693        0.091      109.205       11.622        0.011      331.640       -0.215      866.070
12/28/2014  08:45:00     -139.367       19.808      -13.163       31.129       27.842       16.206      969.017      775.151      262.644        1.100        0.100      140.768        9.183        0.004      331.666       -0.171      866.068
12/28/2014  08:46:00     -110.025      -12.936      -15.880       27.712       35.253       19.085      767.956     1242.802      364.239        0.745        0.119      110.783       14.887        0.018      331.701       -0.113      866.066
12/28/2014  08:47:00     -141.262       -7.449      -14.942       26.941       51.577       20.321      725.803     2660.236      412.944        1.202        0.190      141.458       13.802        0.010      331.741       -0.047      866.053
12/28/2014  08:48:00     -116.928       -2.069       -6.536       33.172       36.852       28.331     1100.368     1358.090      802.660        0.849        0.163      116.946       17.976        0.024      331.765       -0.010      866.042
12/28/2014  08:49:00     -132.865       41.850      -27.365       33.889       34.663       19.838     1148.498     1201.539      393.553        1.145        0.137      139.301       13.427        0.009      331.864        0.154      866.040
12/28/2014  08:50:00      -88.630      -21.685      -11.486       37.644       31.967       19.503     1417.092     1021.879      380.375        0.564        0.141       91.244       13.858        0.023      331.903        0.219      866.039
12/28/2014  08:51:00     -102.286      -39.086      -20.587       37.461       26.021       23.083     1403.347      677.108      532.831        0.751        0.131      109.499       22.906        0.044      331.925        0.254      866.045
12/28/2014  08:52:00      -95.192      -27.943      -10.853       49.517       27.228       19.252     2451.946      741.354      370.655        0.676        0.178       99.208       25.158        0.064      331.969        0.327      866.045
12/28/2014  08:53:00      -80.180      -12.706       -9.081       30.819       19.807       16.005      949.822      392.302      256.175        0.414        0.080       81.181       17.537        0.047      332.068        0.489      866.044
12/28/2014  08:54:00      -64.265      -16.154        1.056       36.006       15.991       15.891     1296.412      255.712      252.518        0.310        0.090       66.264       20.063        0.092      332.171        0.662      866.032
12/28/2014  08:55:00      -17.612      -23.440        5.723       19.212       15.802       10.314      369.094      249.697      106.377        0.081        0.036       29.320        9.296        0.101      332.377        1.002      866.030
12/28/2014  08:56:00      -37.444       -9.238        2.451       35.710       11.730       14.445     1275.234      137.585      208.671        0.156        0.081       38.567       20.520        0.283      332.471        1.156      866.047
12/28/2014  08:57:00      -39.856      -20.881       -4.809       14.257       16.027        9.985      203.272      256.858       99.693        0.130        0.028       44.995        6.135        0.019      332.240        0.775      866.075
12/28/2014  08:58:00      -46.914       -9.431       -0.744       18.751       17.994       12.551      351.587      323.778      157.519        0.156        0.042       47.852        7.625        0.025      332.261        0.810      866.083
12/28/2014  08:59:00      -26.850       -8.564        7.754       14.865       11.831       11.204      220.973      139.978      125.524        0.067        0.024       28.183        8.506        0.091      332.441        1.105      866.065
12/28/2014  09:00:00      -32.755       14.176       -8.769       10.531        8.905        8.552      110.901       79.297       73.132        0.081        0.013       35.691        5.598        0.025      332.411        1.057      866.030
12/28/2014  09:01:00      -20.805       16.805      -14.090        8.091       10.182        7.781       65.457      103.679       60.540        0.057        0.011       26.744        6.624        0.061      332.493        1.190      866.002
12/28/2014  09:02:00      -29.627      -10.434       -3.279       14.765       14.438        7.339      217.996      208.454       53.864        0.074        0.024       31.411        5.384        0.029      332.697        1.526      866.004
12/28/2014  09:03:00      -53.411      -36.716       -7.054       20.015       11.811        9.633      400.614      139.498       92.798        0.244        0.032       64.814        8.122        0.016      332.489        1.185      866.012
12/28/2014  09:04:00      -43.093      -46.198        3.365       33.213       20.135       16.164     1103.108      405.432      261.266        0.289        0.088       63.177       16.452        0.068      332.563        1.308      866.024
12/28/2014  09:05:00      -41.141      -45.055        5.867       37.372       32.719       22.158     1396.674     1070.531      490.965        0.336        0.148       61.013       25.683        0.177      332.726        1.576      866.020
12/28/2014  09:06:00      -27.442      -29.918        8.678       33.925       28.124       23.962     1150.935      790.985      574.180        0.212        0.126       40.597       22.485        0.307      332.731        1.585      866.017
12/28/2014  09:07:00      -67.514      -63.975       -3.471       24.691       25.990       11.659      609.645      675.491      135.941        0.504        0.071       93.010       12.679        0.019      332.578        1.332      866.011
12/28/2014  09:08:00      -60.365      -47.841       -1.023       27.352       34.282       14.841      748.154     1175.238      220.264        0.404        0.107       77.024       14.488        0.035      332.652        1.452      865.996
12/28/2014  09:09:00      -50.941      -61.081       -3.229       13.150       12.782        9.986      172.919      163.383       99.724        0.339        0.022       79.535        8.822        0.012      332.614        1.392      865.996
12/28/2014  09:10:00      -54.518      -57.980       -3.588       27.808       24.591       10.527      773.287      604.709      110.819        0.392        0.074       79.586       12.314        0.024      332.678        1.496      865.977
12/28/2014  09:11:00      -62.535     -101.527       -3.559       18.799       15.248       15.708      353.393      232.516      246.747        0.753        0.042      119.241        9.537        0.006      332.643        1.439      865.964
12/28/2014  09:12:00      -59.114      -90.639        3.708       31.786       28.662       20.357     1010.344      821.520      414.388        0.698        0.112      108.212       20.065        0.034      332.684        1.508      865.972
12/28/2014  09:13:00      -66.556      -97.577        4.597       25.780       39.911       21.130      664.593     1592.914      446.490        0.834        0.135      118.115       15.573        0.017      332.698        1.530      865.988
12/28/2014  09:14:00      -67.683      -74.026       -0.610       44.781       46.386       25.598     2005.317     2151.619      655.269        0.744        0.241      100.304       27.359        0.074      332.785        1.675      865.994
12/28/2014  09:15:00      -29.036      -55.682        0.954       14.484       19.832       17.368      209.792      393.306      301.660        0.242        0.045       62.798       10.423        0.028      332.826        1.742      866.003
12/28/2014  09:16:00      -35.214      -57.829        4.722       24.334       37.908       13.389      592.146     1437.044      179.272        0.341        0.110       67.707       11.075        0.027      332.906        1.876      865.995
12/28/2014  09:17:00      -21.260      -17.256       -3.222       11.387       23.432        7.839      129.668      549.070       61.455        0.075        0.037       27.382        7.098        0.067      332.952        1.949      865.991
12/28/2014  09:18:00      -47.471      -14.619       -2.876       17.354       15.827       13.332      301.175      250.487      177.740        0.160        0.036       49.671        6.170        0.015      332.988        2.009      865.974
12/28/2014  09:19:00      -41.330       -6.692       -7.092       18.061       15.625        7.970      326.206      244.144       63.529        0.122        0.032       41.868        6.791        0.026      332.975        1.987      865.967
12/28/2014  09:20:00      -27.183       -7.166      -11.966       11.394        8.536       10.588      129.833       72.869      112.097        0.062        0.016       28.111        5.862        0.043      333.115        2.221      865.961
12/28/2014  09:21:00      -24.877      -41.146       -8.512       23.108       17.189       12.142      533.983      295.475      147.419        0.168        0.049       48.082       12.343        0.066      332.997        2.023      865.965
12/28/2014  09:22:00      -32.952      -41.261       -7.683       11.597        9.799        8.481      134.488       96.023       71.927        0.157        0.015       52.804        3.522        0.004      332.953        1.950      866.005
12/28/2014  09:23:00      -17.145       -5.069        3.336       13.583        8.195       11.664      184.487       67.152      136.044        0.036        0.019       17.879        9.285        0.270      333.420        2.723      866.007
12/28/2014  09:24:00      -35.010       -4.491       15.012       23.903       31.597       19.934      571.374      998.395      397.349        0.172        0.098       35.297       16.454        0.217      333.482        2.825      866.008
12/28/2014  09:25:00        2.997       -4.226       51.776       35.972       49.614       30.027     1294.015     2461.598      901.595        0.368        0.233        5.181       12.320        5.656      333.730        3.237      866.003
12/28/2014  09:26:00      -44.567      -22.131       15.311       36.996       47.438       31.214     1368.681     2250.345      974.299        0.365        0.230       49.759       28.062        0.318      333.281        2.492      866.010
12/28/2014  09:27:00      -20.527      -11.298        0.037       34.906       37.956       19.172     1218.421     1440.682      367.582        0.179        0.151       23.431       18.668        0.635      333.225        2.401      866.025
12/28/2014  09:28:00       -1.939        5.786        3.400       26.273       15.429       29.323      690.266      238.048      859.841        0.092        0.089        6.102       13.485        4.883      333.567        2.966      866.068
12/28/2014  09:29:00      -23.054        8.701       28.736       20.812       18.536       19.517      433.153      343.599      380.902        0.130        0.058       24.641       15.498        0.396      333.652        3.108      866.099
12/28/2014  09:30:00       -4.572       33.651       59.399       24.529       28.958       23.616      601.695      838.591      557.734        0.334        0.100       33.960       17.404        0.263      333.686        3.163      866.110
12/28/2014  09:31:00       37.543       23.671       48.257       44.030       48.501       37.327     1938.678     2352.356     1393.306        0.499        0.284       44.382       36.306        0.669      333.414        2.713      866.099
12/28/2014  09:32:00       87.343       67.155       65.682       54.958       44.247       45.581     3020.394     1957.774     2077.609        1.175        0.353      110.176       41.199        0.140      333.264        2.465      866.068
12/28/2014  09:33:00       19.387       44.937       60.640       32.774       35.141       27.022     1074.149     1234.903      730.180        0.456        0.152       48.941       16.126        0.109      333.497        2.852      866.060
12/28/2014  09:34:00       43.091       13.925       43.132       35.225       31.653       28.965     1240.821     1001.882      838.984        0.350        0.154       45.285       25.027        0.305      333.621        3.055      866.076
12/28/2014  09:35:00       16.369       37.425       66.895       26.748       39.112       21.283      715.448     1529.748      452.959        0.442        0.135       40.848       23.458        0.330      333.715        3.211      866.087
12/28/2014  09:36:00        4.562       -4.284       52.296       51.263       58.050       37.706     2627.872     3369.793     1421.770        0.510        0.371        6.258       35.923       32.950      333.570        2.972      866.090
12/28/2014  09:37:00       57.410      -78.720        3.120       58.465       85.129       53.813     3418.197     7247.010     2895.887        1.153        0.678       97.431       51.096        0.275      333.385        2.664      866.063
12/28/2014  09:38:00        7.686       30.996       59.894       32.941       50.046       40.973     1085.114     2504.586     1678.813        0.494        0.263       31.935       36.835        1.330      333.638        3.085      866.030
12/28/2014  09:39:00       12.942      -23.054       41.392       47.815       62.807       37.687     2286.320     3944.742     1420.313        0.503        0.383       26.438       43.368        2.691      333.347        2.604      866.004
12/28/2014  09:40:00       21.157      -52.650        5.576       52.185       43.981       26.519     2723.311     1934.293      703.253        0.430        0.268       56.742       31.361        0.305      333.328        2.572      865.998
12/28/2014  09:41:00       -9.344       -3.459        6.162       18.137       29.625       18.761      328.936      877.653      351.975        0.085        0.078        9.964       16.744        2.824      333.647        3.100      865.986
12/28/2014  09:42:00      -25.838       29.989       12.173       24.837       19.107       17.743      616.873      365.085      314.797        0.151        0.065       39.585       13.136        0.110      333.433        2.745      865.995
12/28/2014  09:43:00      -44.278      -22.286       -0.562       30.270       20.990       15.135      916.300      440.562      229.053        0.202        0.079       49.570       12.993        0.069      333.419        2.721      865.990
12/28/2014  09:44:00       -1.987       -6.681        7.525       20.073       16.365       17.105      402.908      267.800      292.582        0.053        0.048        6.971       17.230        6.110      333.519        2.886      865.992
12/28/2014  09:45:00      -24.648       53.701       -9.519       23.575       20.788       19.027      555.796      432.144      362.038        0.247        0.067       59.087       11.706        0.039      333.525        2.895      866.000
12/28/2014  09:46:00      -25.965       -6.672        3.244       22.602       22.030       18.629      510.859      485.334      347.029        0.104        0.067       26.809       18.122        0.457      333.673        3.144      866.001
12/28/2014  09:47:00       43.808       60.349       -0.410       39.633       33.770       25.307     1570.777     1140.421      640.423        0.446        0.168       74.573       20.296        0.074      333.674        3.144      865.998
12/28/2014  09:48:00       44.953       74.633       31.476       37.235       37.200       40.205     1386.457     1383.814     1616.415        0.648        0.219       87.125       26.098        0.090      333.756        3.279      865.999
12/28/2014  09:49:00      121.627       57.471        2.094       44.941       33.113       36.916     2019.678     1096.485     1362.774        1.129        0.224      134.522       22.588        0.028      333.462        2.793      866.002
12/28/2014  09:50:00       56.181       30.945        9.010       37.590       32.130       27.638     1413.043     1032.342      763.848        0.370        0.160       64.139       21.370        0.111      333.693        3.175      866.016
12/28/2014  09:51:00       75.194       43.643        2.322       31.622       32.019       18.741      999.972     1025.195      351.217        0.497        0.119       86.942       13.791        0.025      333.472        2.810      866.032
12/28/2014  09:52:00       61.718       29.898       -6.448       29.130       17.582       19.171      848.556      309.143      367.522        0.313        0.076       68.578       15.565        0.052      333.433        2.744      866.052
12/28/2014  09:53:00       34.726       23.326       -1.173       30.278       22.138       15.520      916.761      490.073      240.857        0.170        0.082       41.833        3.737        0.008      333.673        3.142      866.062
12/28/2014  09:54:00       63.387       36.632       12.316       36.057       26.559       24.373     1300.096      705.375      594.039        0.406        0.130       73.211       14.334        0.038      333.681        3.154      866.063
12/28/2014  09:55:00       32.656       23.305       17.385       17.504       16.829       25.493      306.395      283.217      649.913        0.158        0.062       40.119       13.044        0.106      333.741        3.255      866.068
12/28/2014  09:56:00       -8.160       24.015        0.220       15.725       15.466       15.312      247.280      239.189      234.464        0.068        0.036       25.364        8.637        0.116      334.012        3.704      866.066
12/28/2014  09:57:00       37.123       14.544       20.719       30.791       21.504       15.119      948.062      462.438      228.577        0.183        0.082       39.870       10.284        0.067      334.146        3.927      866.077
12/28/2014  09:58:00       18.954       43.365       -0.312       27.891       29.126       21.028      777.935      848.297      442.167        0.215        0.103       47.326       19.042        0.162      333.793        3.341      866.074
12/28/2014  09:59:00      -23.669       64.194       -5.310       29.490       43.907       24.137      869.668     1927.844      582.573        0.404        0.169       68.418       20.905        0.093      333.851        3.437      866.055
12/28/2014  10:00:00        4.834       62.097        4.000       27.206       34.713       23.227      740.190     1205.022      539.501        0.319        0.124       62.285       10.802        0.030      334.233        4.072      866.034
12/28/2014  10:01:00       -6.831       43.864        1.047       23.818       33.050       18.739      567.281     1092.287      351.166        0.199        0.101       44.393       19.827        0.199      334.201        4.018      866.015
12/28/2014  10:02:00       29.142       44.738      -11.452       33.560       32.920       20.491     1126.297     1083.695      419.864        0.281        0.131       53.392       20.151        0.142      334.292        4.169      865.985
12/28/2014  10:03:00       20.251       20.305       18.688       33.332       19.981       18.628     1111.011      399.250      346.993        0.151        0.093       28.677       15.099        0.277      334.624        4.720      865.971
12/28/2014  10:04:00       15.982       11.604       16.723       17.762       15.201       20.331      315.481      231.084      413.332        0.081        0.048       19.750        7.664        0.151      334.568        4.627      865.986
12/28/2014  10:05:00      -39.136      -12.070        4.612       18.927       11.301       14.639      358.218      127.707      214.313        0.120        0.035       40.955       13.059        0.102      334.123        3.889      865.992
12/28/2014  10:06:00      -45.066      -39.177       -7.465       18.475       28.672       10.364      341.341      822.076      107.407        0.245        0.064       59.714        8.676        0.021      333.914        3.542      865.973
12/28/2014  10:07:00      -25.373      -23.498       -5.493       19.852       15.950       15.826      394.096      254.405      250.454        0.106        0.045       34.582        8.195        0.056      334.099        3.851      865.957
12/28/2014  10:08:00      -23.272      -25.725      -13.331       16.480       11.440       14.320      271.604      130.869      205.063        0.099        0.030       34.689       10.829        0.097      334.147        3.929      865.922
12/28/2014  10:09:00      -28.455      -24.481       -2.109       22.133       29.150       10.233      489.855      849.705      104.708        0.143        0.072       37.537        5.307        0.020      334.083        3.822      865.888
12/28/2014  10:10:00       -1.699       49.241        8.659       33.381       50.918       20.211     1114.317     2592.616      408.494        0.331        0.206       49.270       24.511        0.247      334.570        4.632      865.846
12/28/2014  10:11:00       27.163       22.567        5.404       42.838       35.516       17.087     1835.081     1261.359      291.963        0.233        0.169       35.314       13.424        0.144      334.532        4.567      865.814
12/28/2014  10:12:00       -7.131       18.769        3.338       19.716       26.141       17.406      388.724      683.338      302.980        0.089        0.069       20.078       10.883        0.294      334.553        4.601      865.809
12/28/2014  10:13:00      -40.464        8.044       -4.180       15.482       14.023        9.492      239.707      196.644       90.093        0.112        0.026       41.255        8.548        0.043      334.314        4.207      865.787
12/28/2014  10:14:00        4.846        3.994        5.762       16.273       12.538       17.892      264.826      157.195      320.135        0.041        0.037        6.280       10.501        2.796      334.834        5.068      865.761
12/28/2014  10:15:00        1.747       -4.386       12.404       10.453       11.556       13.138      109.272      133.549      172.620        0.030        0.021        4.721        7.457        2.495      334.961        5.279      865.742
12/28/2014  10:16:00      -46.108      -15.874       -5.468       18.513       18.107       15.516      342.741      327.856      240.760        0.166        0.046       48.764       13.812        0.080      334.314        4.204      865.734
12/28/2014  10:17:00      -46.143      -38.749       -2.834       37.314       26.320       14.653     1392.358      692.737      214.716        0.297        0.115       60.255        9.297        0.024      334.235        4.074      865.725
12/28/2014  10:18:00       -4.160      -49.624        5.481       15.603       28.965       15.011      243.448      838.955      225.344        0.191        0.065       49.798       17.539        0.124      334.360        4.280      865.710
12/28/2014  10:19:00      -36.572      -39.568        6.724       41.811       33.054       20.787     1748.150     1092.567      432.088        0.311        0.164       53.881       23.784        0.195      334.564        4.621      865.681
12/28/2014  10:20:00      -91.040      -64.202      -10.825       17.463       21.739       15.422      304.949      472.572      237.832        0.677        0.051      111.401        9.029        0.007      334.241        4.085      865.655
12/28/2014  10:21:00      -42.820      -38.236       -0.494       30.240       22.862       10.854      914.479      522.651      117.809        0.243        0.078       57.407       12.647        0.049      334.394        4.339      865.639
12/28/2014  10:22:00      -58.848      -42.487       -2.898       25.651       24.698       14.857      657.984      609.995      220.723        0.338        0.074       72.582        9.406        0.017      334.353        4.270      865.613
12/28/2014  10:23:00      -88.116      -47.461      -18.746       11.359       13.051        9.417      129.017      170.320       88.677        0.538        0.019      100.085        5.031        0.003      334.333        4.238      865.601
12/28/2014  10:24:00      -57.321      -43.806       -1.075       28.279       22.433       16.207      799.717      503.230      262.677        0.339        0.078       72.143       17.651        0.060      334.482        4.486      865.589
12/28/2014  10:25:00      -41.058       -6.156       -7.734       13.349       20.985        9.445      178.192      440.390       89.209        0.125        0.035       41.517       10.075        0.059      334.496        4.508      865.569
12/28/2014  10:26:00      -21.006        6.460       -9.749       12.480       11.814       12.843      155.757      139.576      164.936        0.052        0.023       21.977        6.370        0.084      334.783        4.984      865.561
12/28/2014  10:27:00      -16.548       -4.752        1.267       16.615       12.134       10.552      276.064      147.222      111.334        0.042        0.027       17.217        5.911        0.118      334.762        4.949      865.565
12/28/2014  10:28:00      -44.377      -22.957       -3.693       16.045       19.126        9.726      257.454      365.818       94.603        0.161        0.036       49.964        8.561        0.029      334.566        4.624      865.568
12/28/2014  10:29:00      -35.988        6.478       -8.549       17.784       18.443       11.076      316.277      340.146      122.677        0.109        0.039       36.566        6.549        0.032      334.734        4.901      865.556
12/28/2014  10:30:00      -33.932       -0.066       -4.634       13.617       12.244        9.941      185.411      149.918       98.824        0.080        0.022       33.932        8.354        0.061      334.725        4.886      865.546
12/28/2014  10:31:00      -47.980       -9.924       -3.198       21.979       17.112       10.924      483.057      292.810      119.326        0.165        0.045       48.996        9.332        0.036      334.718        4.875      865.540
12/28/2014  10:32:00      -30.503      -25.130      -15.116       14.509       10.872       11.217      210.515      118.200      125.819        0.112        0.023       39.522        8.290        0.044      334.704        4.853      865.534
12/28/2014  10:33:00      -34.934       -1.697       -3.881        8.195       14.964        9.079       67.151      223.926       82.422        0.081        0.019       34.975        6.167        0.031      334.712        4.867      865.524
12/28/2014  10:34:00      -16.171        8.705        1.285       13.417       13.806       11.072      180.007      190.603      122.599        0.042        0.025       18.365        6.637        0.131      335.066        5.455      865.520
12/28/2014  10:35:00        7.379       29.874       29.011       26.516       26.371       20.326      703.118      695.410      413.152        0.180        0.091       30.772       10.651        0.120      335.654        6.431      865.519
12/28/2014  10:36:00       20.672       49.034       54.678       29.012       43.970       25.170      841.669     1933.337      633.512        0.461        0.170       53.213       24.541        0.213      335.447        6.086      865.515
12/28/2014  10:37:00       98.418       83.335       64.687       35.196       33.220       43.737     1238.783     1103.550     1912.933        1.253        0.213      128.961       23.422        0.033      334.868        5.124      865.507
12/28/2014  10:38:00       36.278       43.730       56.392       46.877       34.834       35.738     2197.429     1213.398     1277.197        0.555        0.234       56.819       30.541        0.289      335.102        5.513      865.483
12/28/2014  10:39:00       37.436       49.362       63.856       40.973       40.507       37.458     1678.780     1640.847     1403.136        0.632        0.236       61.952       30.858        0.248      335.319        5.874      865.458
12/28/2014  10:40:00       30.384       -6.727       -6.286       49.006       63.892       30.412     2401.576     4082.133      924.862        0.421        0.370       31.120       31.173        1.003      335.282        5.813      865.454
12/28/2014  10:41:00       42.965      -50.758       32.744       44.875       84.856       53.595     2013.726     7200.607     2872.382        0.879        0.604       66.501       54.202        0.664      335.415        6.033      865.424
12/28/2014  10:42:00       95.932       91.799       59.703       74.418       53.738       43.720     5538.075     2887.784     1911.472        1.576        0.517      132.778       23.902        0.032      335.073        5.466      865.387
12/28/2014  10:43:00       69.273       38.380       30.144       58.562       57.125       56.909     3429.473     3263.246     3238.607        0.855        0.497       79.195       43.537        0.302      335.169        5.625      865.347
12/28/2014  10:44:00       57.619       90.091      103.699       78.294       61.365       40.949     6129.996     3765.684     1676.781        1.688        0.579      106.941       46.654        0.190      335.088        5.490      865.317
12/28/2014  10:45:00       76.058      108.174      104.578       49.495       50.755       51.187     2449.761     2576.067     2620.138        1.803        0.382      132.236       45.978        0.121      334.801        5.014      865.307
12/28/2014  10:46:00       70.097       43.536       56.436       38.472       41.236       37.347     1480.120     1700.441     1394.784        0.728        0.229       82.516       29.089        0.124      335.061        5.447      865.297
12/28/2014  10:47:00       40.247       24.629       45.023       46.606       39.346       32.555     2172.131     1548.093     1059.827        0.452        0.239       47.184       29.194        0.383      335.235        5.734      865.277
12/28/2014  10:48:00       59.736       18.912       44.534       44.030       53.431       41.817     1938.609     2854.857     1748.648        0.622        0.327       62.658       42.892        0.469      335.153        5.599      865.249
12/28/2014  10:49:00       92.145       71.196       20.367       30.440       27.335       30.852      926.579      747.178      951.824        0.830        0.131      116.446       16.976        0.021      334.846        5.089      865.210
12/28/2014  10:50:00       60.918       30.801       -1.057       33.843       49.966       27.921     1145.379     2496.616      779.593        0.454        0.221       68.262       18.261        0.072      335.033        5.398      865.195
12/28/2014  10:51:00       10.383      -40.339       19.811       18.386       31.557       17.312      338.056      995.815      299.718        0.188        0.082       41.653       13.548        0.106      335.268        5.790      865.198
12/28/2014  10:52:00      -27.761      -44.112       -2.933       36.527       31.357       27.366     1334.229      983.260      748.918        0.290        0.153       52.121       17.413        0.112      335.254        5.766      865.187
12/28/2014  10:53:00      -57.691      -40.486       -5.050       52.952       25.239       23.929     2803.875      636.998      572.598        0.450        0.201       70.479       25.841        0.134      335.132        5.565      865.171
12/28/2014  10:54:00      -88.629      -48.425       -5.527       51.131       24.942       18.536     2614.402      622.123      343.587        0.690        0.179      100.995       15.612        0.024      335.001        5.346      865.127
12/28/2014  10:55:00      -11.617      -60.435       -2.779       34.172       23.442       18.200     1167.721      549.545      331.254        0.292        0.102       61.541       15.731        0.065      335.024        5.383      865.090
12/28/2014  10:56:00      -68.151      -75.371       -2.568       26.962       25.000       21.477      726.965      624.979      461.265        0.607        0.091      101.613       17.472        0.030      335.019        5.376      865.046
12/28/2014  10:57:00      -30.156      -31.660       -0.764       26.111       24.427       17.544      681.776      596.682      307.784        0.175        0.079       43.723       13.317        0.093      335.265        5.785      865.009
12/28/2014  10:58:00      -43.937      -60.261       -1.967       35.313       31.560       18.531     1247.026      996.023      343.393        0.408        0.129       74.578       20.606        0.076      335.213        5.697      864.978
12/28/2014  10:59:00      -30.009     -110.570      -10.725       26.357       38.360       18.207      694.715     1471.513      331.513        0.787        0.125      114.569       11.313        0.010      335.067        5.455      864.966
12/28/2014  11:00:00      -89.366      -89.325      -10.064       44.415       34.166       28.056     1972.665     1167.320      787.157        1.000        0.196      126.354       23.044        0.033      335.096        5.504      864.970
12/28/2014  11:01:00      -61.608      -77.352       -5.387       27.519       18.955       17.264      757.323      359.282      298.051        0.561        0.071       98.888       13.639        0.019      335.045        5.420      864.952
12/28/2014  11:02:00      -46.147      -31.604       -2.486       46.722       40.690       27.150     2182.961     1655.683      737.104        0.385        0.229       55.932       27.141        0.235      335.407        6.021      864.911
12/28/2014  11:03:00      -71.002      -82.260        9.460       57.133       53.546       29.064     3264.129     2867.172      844.696        0.944        0.349      108.664       29.065        0.072      335.374        5.967      864.874
12/28/2014  11:04:00     -115.084      -71.227       -8.701       33.075       43.390       21.562     1093.978     1882.732      464.923        1.092        0.172      135.343       18.943        0.020      335.136        5.570      864.845
12/28/2014  11:05:00      -36.003      -20.518       23.332       52.539       41.998       26.985     2760.356     1763.814      728.165        0.376        0.263       41.439       25.832        0.389      335.646        6.420      864.813
12/28/2014  11:06:00      -75.030      -65.335       -2.160       31.200       28.405       21.483      973.423      806.870      461.502        0.607        0.112       99.489       18.855        0.036      335.460        6.109      864.793
12/28/2014  11:07:00      -59.008      -43.047       13.070       51.515       36.033       25.134     2653.805     1298.373      631.699        0.504        0.229       73.041       24.270        0.110      335.488        6.155      864.783
12/28/2014  11:08:00       -8.972      -59.593        8.401       64.413       52.218       36.254     4149.021     2726.714     1314.336        0.594        0.410       60.265       32.202        0.286      335.419        6.040      864.762
12/28/2014  11:09:00      -64.164      -69.469        4.542       55.628       51.777       29.066     3094.448     2680.864      844.822        0.779        0.331       94.567       31.418        0.110      335.408        6.021      864.757
12/28/2014  11:10:00      -51.312      -61.661       -3.952       44.745       43.467       23.609     2002.072     1889.369      557.368        0.545        0.222       80.218       29.329        0.134      335.330        5.893      864.733
12/28/2014  11:11:00      -27.402      -14.451       10.574       26.851       27.144       17.296      720.950      736.784      299.136        0.141        0.088       30.979       18.665        0.363      335.692        6.494      864.718
12/28/2014  11:12:00      -17.755      -65.579        3.769       60.306       62.134       30.039     3636.837     3860.649      902.363        0.651        0.420       67.940       26.080        0.147      335.349        5.923      864.671
12/28/2014  11:13:00        4.396      -33.354       30.013       41.728       55.709       34.898     1741.260     3103.542     1217.877        0.405        0.303       33.643       38.421        1.304      335.923        6.881      864.646
12/28/2014  11:14:00       86.052      -81.180        3.600       66.372       64.282       55.732     4405.285     4132.132     3106.014        1.282        0.582      118.301       51.409        0.189      335.663        6.446      864.645
12/28/2014  11:15:00      128.710     -104.898      -11.826       70.783      106.171       53.791     5010.216    11272.259     2893.439        2.344        0.959      166.042       56.275        0.115      335.474        6.131      864.650
12/28/2014  11:16:00      136.871      -40.935       14.662       89.743       84.223       61.911     8053.834     7093.560     3833.017        1.980        0.949      142.861       64.053        0.201      335.307        5.853      864.647
12/28/2014  11:17:00       75.417       54.828       65.066       61.180       67.229       48.994     3742.983     4519.768     2400.363        1.179        0.533       93.241       49.871        0.286      335.574        6.299      864.627
12/28/2014  11:18:00       85.670       88.137       93.659      110.097       84.921       56.950    12121.369     7211.553     3243.350        2.322        1.129      122.913       46.296        0.142      335.517        6.202      864.601
12/28/2014  11:19:00      143.819       45.396       41.562       92.894       88.508       64.711     8629.308     7833.580     4187.501        2.256        1.033      150.813       57.099        0.143      335.397        6.003      864.570
12/28/2014  11:20:00       87.624       45.360       40.629       60.846       69.698       51.987     3702.281     4857.747     2702.627        1.132        0.563       98.669       51.394        0.271      335.444        6.081      864.549
12/28/2014  11:21:00       48.378       84.245       80.761       53.267       41.762       33.347     2837.339     1744.051     1112.022        1.083        0.285       97.148       20.220        0.043      335.628        6.389      864.547
12/28/2014  11:22:00       22.225       31.434       63.264       54.646       58.718       39.807     2986.181     3447.856     1584.612        0.675        0.401       38.498       43.663        1.286      336.056        7.102      864.549
12/28/2014  11:23:00       48.759       98.545       95.637       64.441       59.882       44.513     4152.684     3585.896     1981.423        1.548        0.486      109.948       47.131        0.184      335.739        6.571      864.536
12/28/2014  11:24:00      165.970      103.105       24.124       57.911       38.735       41.104     3353.644     1500.380     1689.564        2.265        0.327      195.388       19.652        0.010      335.550        6.259      864.510
12/28/2014  11:25:00       52.812      101.792       91.797       69.197       54.316       54.781     4788.249     2950.278     3000.958        1.616        0.537      114.676       52.304        0.208      335.635        6.398      864.500
12/28/2014  11:26:00       46.147      163.476      143.692       51.383       47.307       38.799     2640.196     2237.947     1505.367        2.794        0.319      169.865       32.964        0.038      335.352        5.928      864.489
12/28/2014  11:27:00       97.853        6.733       53.717       47.200       58.004       44.843     2227.830     3364.507     2010.903        1.005        0.380       98.084       46.175        0.222      335.404        6.015      864.480
12/28/2014  11:28:00       87.713      -80.251        4.994       45.910       44.861       34.289     2107.756     2012.543     1175.749        0.973        0.265      118.885       30.664        0.067      335.426        6.052      864.478
12/28/2014  11:29:00       18.586      -15.779       35.513       31.218       53.202       38.238      974.564     2830.445     1462.136        0.356        0.263       24.381       41.810        2.941      335.769        6.623      864.474
12/28/2014  11:30:00       67.136      -69.832      -13.386       49.548       78.721       39.306     2455.051     6197.067     1544.957        0.988        0.510       96.870       42.758        0.195      335.788        6.655      864.461
12/28/2014  11:31:00       65.756      -53.634        7.235       55.959       82.720       53.286     3131.367     6842.633     2839.373        1.003        0.641       84.856       52.962        0.390      335.849        6.756      864.459
12/28/2014  11:32:00       74.573      -28.748       50.963       67.416       71.393       50.093     4544.900     5096.889     2509.283        1.057        0.608       79.922       57.508        0.518      335.872        6.794      864.449
12/28/2014  11:33:00       76.900       41.125       30.405       89.338       53.210       48.630     7981.341     2831.347     2364.907        1.085        0.659       87.206       42.712        0.240      335.897        6.834      864.437
12/28/2014  11:34:00      182.901      138.951       12.665       49.262       38.659       38.943     2426.752     1494.540     1516.534        2.918        0.272      229.696       23.974        0.011      335.455        6.096      864.433
12/28/2014  11:35:00      141.762      112.314       45.578       45.888       29.746       37.661     2105.683      884.808     1418.382        1.960        0.220      180.862       33.506        0.034      335.418        6.038      864.429
12/28/2014  11:36:00      106.670       80.763       50.591       51.372       27.658       41.306     2639.095      764.964     1706.223        1.278        0.256      133.796       26.884        0.040      335.632        6.396      864.415
12/28/2014  11:37:00       97.422       51.762       37.400       76.319       54.399       49.150     5824.520     2959.254     2415.698        1.238        0.560      110.319       43.805        0.158      335.645        6.417      864.392
12/28/2014  11:38:00       82.073       89.397       71.362       87.153       69.383       58.325     7595.558     4813.981     3401.807        1.781        0.791      121.358       58.797        0.235      335.735        6.566      864.384
12/28/2014  11:39:00       97.699       86.786       45.753       56.363       52.077       38.033     3176.783     2711.964     1446.492        1.325        0.367      130.679       33.461        0.066      335.804        6.682      864.378
12/28/2014  11:40:00       46.698       39.666       65.642       54.527       53.288       36.820     2973.154     2839.664     1355.704        0.761        0.358       61.270       35.498        0.336      335.995        7.000      864.362
12/28/2014  11:41:00       68.959       49.994       50.377       69.851       60.741       47.473     4879.104     3689.495     2253.648        1.031        0.541       85.175       37.734        0.196      336.061        7.110      864.341
12/28/2014  11:42:00      135.773       92.574       97.617       95.314       97.600       69.922     9084.741     9525.850     4889.093        3.001        1.175      164.330       63.259        0.148      335.713        6.527      864.321
12/28/2014  11:43:00      104.963      112.624      109.955       62.534       52.322       46.680     3910.451     2737.575     2179.022        2.231        0.441      153.952       36.759        0.057      335.730        6.558      864.316
12/28/2014  11:44:00       77.345       62.181       68.420       54.921       36.280       36.120     3016.371     1316.236     1304.648        1.008        0.282       99.241       29.377        0.088      335.676        6.469      864.309
12/28/2014  11:45:00      112.431       51.584       29.440       42.897       42.629       43.852     1840.146     1817.208     1922.985        1.087        0.279      123.700       32.050        0.067      335.606        6.353      864.292
12/28/2014  11:46:00       68.364       44.435       13.064       36.464       20.673       25.390     1329.656      427.372      644.633        0.461        0.120       81.536       24.534        0.091      335.555        6.266      864.276
12/28/2014  11:47:00       75.015       79.947       67.967       52.228       39.140       34.506     2727.768     1531.971     1190.634        1.104        0.273      109.630       23.260        0.045      335.970        6.957      864.260
12/28/2014  11:48:00       65.323       40.697       46.674       52.707       52.947       47.388     2777.977     2803.371     2245.596        0.796        0.391       76.963       43.764        0.323      335.837        6.735      864.250
12/28/2014  11:49:00       46.762       64.706       65.238       44.265       33.322       38.007     1959.427     1110.379     1444.551        0.757        0.226       79.835       23.394        0.086      336.160        7.274      864.210
12/28/2014  11:50:00      107.360       71.891       47.482       71.145       44.444       45.751     5061.595     1975.297     2093.110        1.404        0.457      129.207       31.977        0.061      336.147        7.253      864.201
12/28/2014  11:51:00       62.227       91.228       67.458       70.687       46.047       47.878     4996.621     2120.355     2292.290        1.308        0.470      110.429       42.808        0.150      336.168        7.289      864.200
12/28/2014  11:52:00      134.965       68.431       29.267       57.581       42.923       42.067     3315.616     1842.372     1769.615        1.534        0.346      151.322       32.397        0.046      335.917        6.870      864.209
12/28/2014  11:53:00       71.933       56.299        7.519       42.022       29.472       26.706     1765.832      868.602      713.215        0.587        0.167       91.345       19.691        0.046      335.909        6.857      864.209
12/28/2014  11:54:00       34.015        6.235        3.837       29.148       31.140       16.098      849.602      969.721      259.148        0.164        0.104       34.582       10.877        0.099      335.747        6.587      864.189
12/28/2014  11:55:00       28.148       30.719       65.135       35.490       50.895       33.244     1259.554     2590.286     1105.143        0.547        0.248       41.665       35.576        0.729      336.226        7.384      864.155
12/28/2014  11:56:00       55.808       80.303       79.458       56.198       47.692       42.450     3158.253     2274.551     1801.985        1.155        0.362       97.791       32.799        0.112      336.229        7.390      864.105
12/28/2014  11:57:00       15.274       41.290       68.283       28.233       36.416       19.124      797.124     1326.148      365.733        0.454        0.124       44.025       18.331        0.173      336.471        7.795      864.082
12/28/2014  11:58:00       69.328       66.050       37.792       47.324       36.828       35.709     2239.568     1356.330     1275.131        0.773        0.244       95.755       19.751        0.043      336.251        7.428      864.067
12/28/2014  11:59:00      173.181      102.322       -2.403       58.208       57.766       39.400     3388.171     3336.934     1552.348        2.437        0.414      201.150       25.241        0.016      335.895        6.831      864.036
12/28/2014  12:00:00      129.758      100.854       23.687       54.631       43.101       43.242     2984.600     1857.677     1869.838        1.714        0.336      164.344       34.085        0.043      335.838        6.737      864.013
12/28/2014  12:01:00      104.326      103.525        5.297       34.340       32.280       36.450     1179.263     1041.977     1328.604        1.259        0.177      146.974       20.152        0.019      335.962        6.944      864.000
12/28/2014  12:02:00      121.244       72.665       22.571       34.801       23.270       27.891     1211.115      541.478      777.922        1.151        0.127      141.352       16.346        0.013      335.848        6.754      863.963
12/28/2014  12:03:00       30.725       75.651       64.837       55.344       33.908       40.362     3063.013     1149.734     1629.093        0.836        0.292       81.653       37.247        0.208      336.254        7.433      863.923
12/28/2014  12:04:00      -12.195       44.810       64.340       24.710       41.286       35.094      610.584     1704.521     1231.597        0.492        0.177       46.440       32.204        0.481      336.513        7.865      863.923
12/28/2014  12:05:00      -11.066      -13.326       -6.311       21.904       32.602       13.328      479.798     1062.893      177.638        0.103        0.086       17.322       11.615        0.450      336.451        7.763      863.943
12/28/2014  12:06:00      -14.729        5.728       13.603       11.698       15.455       14.220      136.837      238.870      202.201        0.051        0.029       15.804        7.611        0.232      336.803        8.351      863.940
12/28/2014  12:07:00       -7.693        7.542       -6.688       20.517       31.239       19.554      420.933      975.852      382.348        0.097        0.089       10.773       15.470        2.062      336.823        8.384      863.926
12/28/2014  12:08:00      -25.221      -11.659       -2.703       32.943       20.638       22.474     1085.232      425.945      505.093        0.140        0.101       27.785       17.434        0.394      336.607        8.023      863.912
12/28/2014  12:09:00       -4.204      -33.508       -3.566       80.256       41.164       37.224     6440.986     1694.479     1385.662        0.534        0.476       33.771       29.224        0.749      336.285        7.484      863.892
12/28/2014  12:10:00       34.855       -3.873       31.816       44.990       35.532       28.277     2024.072     1262.557      799.602        0.316        0.204       35.070       24.007        0.469      336.532        7.897      863.849
12/28/2014  12:11:00       -0.878        2.948       12.959       42.741       31.441       28.552     1826.795      988.538      815.196        0.190        0.182        3.076       16.581       29.063      336.674        8.135      863.805
12/28/2014  12:12:00       26.788      -28.669       15.710       50.241       60.306       31.890     2524.155     3636.858     1016.973        0.448        0.359       39.236       27.189        0.480      336.741        8.247      863.775
12/28/2014  12:13:00       67.515       66.891       75.412       59.540       69.678       56.594     3544.998     4854.994     3202.858        1.316        0.580       95.040       51.305        0.291      336.637        8.073      863.738
12/28/2014  12:14:00      111.194       58.088       21.668       37.006       35.417       38.257     1369.440     1254.337     1463.616        1.015        0.204      125.452       18.800        0.022      336.287        7.485      863.725
12/28/2014  12:15:00       44.555       32.035       29.571       48.988       29.871       29.198     2399.818      892.257      852.552        0.401        0.207       54.876       27.702        0.255      336.778        8.308      863.724
12/28/2014  12:16:00       42.203       70.745       60.640       48.943       34.705       43.932     2395.462     1204.463     1930.046        0.800        0.276       82.377       23.582        0.082      336.956        8.606      863.695
12/28/2014  12:17:00       23.751       93.943      107.379       55.278       60.894       49.415     3055.616     3708.047     2441.804        1.506        0.460       96.899       43.879        0.205      336.878        8.475      863.663
12/28/2014  12:18:00       81.552       62.148       28.812       25.019       58.247       44.946      625.965     3392.688     2020.118        0.869        0.302      102.534       44.857        0.191      336.456        7.769      863.645
12/28/2014  12:19:00      101.217       77.975       27.720       61.377       51.318       35.971     3767.142     2633.522     1293.905        1.239        0.385      127.769       17.885        0.020      336.638        8.074      863.607
12/28/2014  12:20:00       48.097       38.590       47.689       46.809       47.900       43.409     2191.118     2294.415     1884.378        0.622        0.318       61.664       27.429        0.198      336.876        8.472      863.579
12/28/2014  12:21:00       58.370     -109.677        8.118       51.644       57.081       39.031     2667.091     3258.262     1523.436        1.147        0.372      124.242       36.453        0.086      336.740        8.244      863.561
12/28/2014  12:22:00       60.184     -127.053      -35.793       53.227       43.583       26.686     2833.109     1899.499      712.154        1.324        0.272      140.586       17.478        0.015      336.586        7.986      863.553
12/28/2014  12:23:00       59.524      -72.286       -3.311       53.665       51.671       34.904     2879.917     2669.921     1218.303        0.777        0.338       93.640       35.739        0.146      336.750        8.263      863.542
12/28/2014  12:24:00      -17.785       -8.181       38.859       29.456       50.195       28.249      867.642     2519.570      797.991        0.304        0.209       19.576       24.310        1.542      337.165        8.956      863.516
12/28/2014  12:25:00        8.620     -116.288        4.121       64.118       62.412       39.137     4111.057     3895.209     1531.688        1.157        0.477      116.607       31.468        0.073      336.875        8.468      863.486
12/28/2014  12:26:00       65.011      -31.367       38.702       55.321       95.063       62.733     3060.415     9037.004     3935.472        1.137        0.802       72.183       65.904        0.834      337.085        8.819      863.463
12/28/2014  12:27:00      129.976     -120.475      -24.514       71.857       82.837       49.935     5163.463     6862.032     2493.494        2.326        0.726      177.223       46.053        0.068      336.486        7.818      863.462
12/28/2014  12:28:00       75.620      -93.498       -6.113       62.519       65.041       45.393     3908.631     4230.323     2060.522        1.235        0.510      120.251       47.072        0.153      336.664        8.118      863.440
12/28/2014  12:29:00       17.537       36.326       68.188       39.907       76.809       42.374     1592.572     5899.665     1795.536        0.778        0.464       40.337       52.486        1.693      336.851        8.430      863.414
12/28/2014  12:30:00       76.670      130.757      123.572       74.780       61.583       43.198     5592.017     3792.500     1866.110        2.475        0.563      151.578       38.816        0.066      336.793        8.332      863.408
12/28/2014  12:31:00       75.886       79.535       51.004       49.459       45.516       63.523     2446.189     2071.679     4035.185        1.162        0.428      109.930       41.585        0.143      336.685        8.153      863.403
12/28/2014  12:32:00       68.686       42.468       38.918       71.266       71.065       40.957     5078.858     5050.201     1677.504        0.992        0.590       80.754       30.242        0.140      336.904        8.518      863.375
12/28/2014  12:33:00      126.663      112.336       75.752       84.736       52.343       51.251     7180.142     2739.761     2626.687        2.347        0.627      169.301       49.305        0.085      336.728        8.222      863.354
12/28/2014  12:34:00      101.118      107.839       73.761       64.619       42.986       44.957     4175.633     1847.803     2021.157        1.767        0.402      147.831       44.769        0.092      336.661        8.112      863.340
12/28/2014  12:35:00       57.572       94.410       55.114       60.005       42.893       67.922     3600.622     1839.788     4613.331        1.266        0.503      110.579       53.948        0.238      336.833        8.402      863.328
12/28/2014  12:36:00       26.818       17.415       44.986       53.756       68.866       43.043     2889.686     4742.540     1852.669        0.626        0.474       31.976       34.945        1.194      337.172        8.968      863.316
12/28/2014  12:37:00       61.847       79.398       97.982       78.385       63.102       43.188     6144.180     3981.824     1865.187        1.586        0.600      100.643       42.105        0.175      337.006        8.689      863.323
12/28/2014  12:38:00       82.021       96.469      108.841       49.640       57.606       27.596     2464.132     3318.476      761.519        1.721        0.327      126.625       20.463        0.026      336.976        8.638      863.339
12/28/2014  12:39:00      120.344       71.430       52.367       48.689       45.639       52.482     2370.618     2082.949     2754.401        1.477        0.360      139.946       41.316        0.087      336.790        8.329      863.346
12/28/2014  12:40:00       55.344       39.481       47.468       61.673       52.398       43.288     3803.538     2745.568     1873.818        0.765        0.421       67.983       50.129        0.544      336.917        8.541      863.335
12/28/2014  12:41:00       23.862       38.321       49.099       29.939       47.773       31.547      896.331     2282.252      995.237        0.431        0.209       45.143       29.393        0.424      337.220        9.047      863.318
12/28/2014  12:42:00       50.850      -58.110       19.383       63.157      117.406       48.591     3988.824    13784.284     2361.090        1.323        1.007       77.217       60.027        0.604      337.136        8.905      863.304
12/28/2014  12:43:00       66.249      -10.718       42.496       55.175       88.146       53.809     3044.291     7769.738     2895.443        1.001        0.685       67.110       58.290        0.754      337.082        8.816      863.306
12/28/2014  12:44:00       59.565      -57.646       42.618       70.387      114.486       51.509     4954.271    13107.125     2653.159        1.470        1.036       82.892       64.386        0.603      337.215        9.037      863.284
12/28/2014  12:45:00      161.137       10.459       39.599       82.870       97.752       58.626     6867.499     9555.498     3436.979        2.375        0.993      161.476       50.221        0.097      336.885        8.486      863.262
12/28/2014  12:46:00      155.448       -9.827       22.517       86.954       66.979       47.795     7561.008     4486.156     2284.370        1.955        0.717      155.758       51.175        0.108      336.959        8.608      863.253
12/28/2014  12:47:00      133.374       98.752       43.862       67.629       46.037       50.994     4573.681     2119.437     2600.351        1.938        0.465      165.954       32.609        0.039      336.970        8.626      863.238
12/28/2014  12:48:00       40.933       59.519       71.236       62.456       57.611       55.922     3900.808     3319.085     3127.250        1.032        0.517       72.236       52.933        0.537      337.447        9.426      863.214
12/28/2014  12:49:00      114.658       83.458       79.385      101.204       73.771       68.976    10242.261     5442.160     4757.733        2.342        1.022      141.816       57.085        0.162      337.212        9.032      863.170
12/28/2014  12:50:00      117.784       82.551       76.604       91.130      104.009       75.229     8304.620    10817.914     5659.472        2.566        1.239      143.832       63.522        0.195      337.204        9.016      863.142
12/28/2014  12:51:00       81.628       71.142       66.622       73.337       59.250       43.127     5378.383     3510.538     1859.965        1.345        0.537      108.279       37.025        0.117      337.280        9.147      863.131
12/28/2014  12:52:00       96.953       83.773       85.060      100.608       69.107       70.856    10122.031     4775.724     5020.572        2.178        0.996      128.132       63.273        0.244      337.210        9.028      863.100
12/28/2014  12:53:00      134.337       84.638       57.544       65.715       53.047       48.709     4318.475     2814.035     2372.533        1.901        0.475      158.776       35.750        0.051      337.057        8.770      863.060
12/28/2014  12:54:00       38.228        2.751       25.252       50.473       66.832       39.161     2547.541     4466.510     1533.617        0.533        0.427       38.327       37.085        0.936      337.419        9.380      863.031
12/28/2014  12:55:00      113.357     -157.456      -18.537       49.653       55.929       30.658     2465.434     3128.081      939.893        2.226        0.327      194.016       30.859        0.025      337.116        8.872      863.005
12/28/2014  12:56:00       35.141      -30.969       37.169       34.721       84.249       38.230     1205.529     7097.812     1461.523        0.667        0.488       46.840       52.438        1.253      337.403        9.354      862.988
12/28/2014  12:57:00       47.685        7.692       43.029       48.385       84.306       39.527     2341.156     7107.479     1562.401        0.760        0.551       48.301       52.258        1.171      337.467        9.461      862.973
12/28/2014  12:58:00       81.680      106.509      100.934       55.602       63.327       45.803     3091.580     4010.314     2097.871        1.870        0.460      134.223       45.674        0.116      337.300        9.179      862.956
12/28/2014  12:59:00       60.358        6.394       41.437       70.463      112.139       57.244     4964.975    12575.154     3276.819        1.310        1.041       60.696       67.958        1.254      337.404        9.355      862.935
12/28/2014  13:00:00      123.672     -175.710      -26.868       74.023       73.481       45.080     5479.461     5399.463     2032.165        2.990        0.646      214.869       25.670        0.014      337.236        9.071      862.911
12/28/2014  13:01:00       89.775     -150.273      -21.496       77.355       73.657       38.890     5983.851     5425.364     1512.416        2.201        0.646      175.047       43.827        0.063      337.126        8.887      862.909
12/28/2014  13:02:00       33.566      -91.603       -9.020       50.883       75.183       41.717     2589.030     5652.445     1740.289        0.979        0.499       97.559       48.759        0.250      337.262        9.116      862.920
12/28/2014  13:03:00       46.997      -19.274       28.295       44.191       69.508       40.701     1952.868     4831.303     1656.552        0.591        0.422       50.796       48.722        0.920      337.327        9.227      862.933
12/28/2014  13:04:00       85.116      -79.255        5.304       76.894       69.352       39.433     5912.752     4809.758     1554.976        1.291        0.614      116.301       46.184        0.158      337.374        9.304      862.943
12/28/2014  13:05:00       29.557       21.033       58.089       42.437       49.899       50.038     1800.922     2489.862     2503.851        0.574        0.340       36.277       44.617        1.513      337.470        9.466      862.929
12/28/2014  13:06:00       19.831       -2.198       33.392       27.168       46.276       24.941      738.125     2141.424      622.045        0.251        0.175       19.952       27.969        1.965      337.574        9.639      862.906
12/28/2014  13:07:00       -0.989       32.186       62.635       29.790       49.310       51.245      887.430     2431.458     2626.097        0.545        0.297       32.202       46.750        2.108      337.643        9.755      862.895
12/28/2014  13:08:00       50.262       52.798       45.841       63.905       48.339       30.881     4083.805     2336.672      953.618        0.739        0.369       72.896       21.488        0.087      337.560        9.617      862.895
12/28/2014  13:09:00       59.901       15.592       52.032       36.968       76.850       41.075     1366.619     5905.990     1687.128        0.775        0.448       61.897       48.281        0.608      337.502        9.519      862.888
12/28/2014  13:10:00       57.496       55.167       65.882       54.730       90.086       87.849     2995.357     8115.549     7717.441        1.476        0.941       79.682       82.951        1.084      337.641        9.753      862.839
12/28/2014  13:11:00      113.591      185.165      145.653       72.664       70.470       64.989     5279.993     4966.071     4223.556        4.143        0.723      217.230       58.369        0.072      337.295        9.168      862.798
12/28/2014  13:12:00      100.526      132.172      118.719       90.686       65.929       51.981     8223.906     4346.661     2702.000        2.847        0.764      166.057       49.828        0.090      337.397        9.342      862.786
12/28/2014  13:13:00        5.002       60.792      100.090       40.628       85.195       51.644     1650.597     7258.145     2667.053        1.265        0.579       60.997       59.774        0.960      337.696        9.844      862.777
12/28/2014  13:14:00       45.829       69.535       67.785       61.461       45.485       32.659     3777.409     2068.889     1066.632        0.922        0.346       83.279       21.416        0.066      337.662        9.788      862.778
12/28/2014  13:15:00       70.608       45.075       56.839       62.082       66.242       40.588     3854.230     4387.940     1647.372        1.007        0.494       83.769       36.845        0.193      337.599        9.682      862.786
12/28/2014  13:16:00       86.555      109.187       68.264       59.344       55.460       55.055     3521.746     3075.841     3031.019        1.685        0.481      139.333       42.494        0.093      337.488        9.494      862.768
12/28/2014  13:17:00       71.540       57.083       56.729       56.652       51.472       55.022     3209.475     2649.393     3027.399        1.024        0.444       91.523       42.885        0.220      337.549        9.598      862.745
12/28/2014  13:18:00       63.348     -120.608        1.181       70.478       93.090       34.440     4967.160     8665.774     1186.127        1.669        0.741      136.232       40.708        0.089      337.799       10.015      862.725
12/28/2014  13:19:00      106.581     -163.205      -34.996       58.674       64.621       28.677     3442.620     4175.908      822.397        2.383        0.422      194.924       22.660        0.014      337.749        9.931      862.723
12/28/2014  13:20:00       43.188      -65.402       18.255       66.102      114.076       55.877     4369.434    13013.348     3122.212        1.349        1.025       78.375       64.089        0.669      337.941       10.254      862.720
12/28/2014  13:21:00      110.868     -115.876      -20.086       68.185       84.507       48.910     4649.226     7141.357     2392.225        2.015        0.709      160.371       54.003        0.113      337.613        9.704      862.727
12/28/2014  13:22:00       66.257       18.707       49.579       63.020       79.786       57.282     3971.460     6365.800     3281.224        1.041        0.681       68.847       61.849        0.807      337.767        9.964      862.729
12/28/2014  13:23:00       41.632       24.213       56.482       50.305       45.212       38.835     2530.626     2044.129     1508.163        0.580        0.304       48.161       36.707        0.581      337.850       10.103      862.748
12/28/2014  13:24:00       34.814       31.442        7.281       50.326       43.032       26.151     2532.724     1851.748      683.893        0.366        0.253       46.910       13.874        0.087      337.905       10.196      862.749
12/28/2014  13:25:00       81.859       60.164        4.884       54.620       49.948       37.950     2983.392     2494.765     1440.179        0.863        0.346      101.591       13.148        0.017      337.845       10.095      862.735
12/28/2014  13:26:00      127.755       58.139       38.963       63.378       44.398       51.410     4016.807     1971.182     2642.954        1.492        0.432      140.362       39.841        0.081      337.659        9.781      862.700
12/28/2014  13:27:00       93.141       37.946       47.930       63.007       48.045       55.157     3969.910     2308.335     3042.310        1.086        0.466      100.575       39.850        0.157      337.626        9.728      862.661
12/28/2014  13:28:00       67.379       93.612       57.669       62.241       47.796       52.892     3873.924     2284.499     2797.585        1.279        0.448      115.339       47.958        0.173      337.605        9.693      862.621
12/28/2014  13:29:00       42.162       23.431       21.493       27.924       22.885       15.446      779.744      523.724      238.577        0.216        0.077       48.235        6.535        0.018      337.826       10.062      862.601
12/28/2014  13:30:00       18.818       57.039       13.907       30.666       39.206       30.970      940.388     1537.114      959.146        0.362        0.172       60.063       13.529        0.051      337.836       10.079      862.582
12/28/2014  13:31:00       51.972       40.116      -15.246       27.699       42.378       22.767      767.222     1795.871      518.317        0.381        0.154       65.653       15.666        0.057      337.761        9.953      862.560
12/28/2014  13:32:00       12.326      -26.387        9.669       16.890       28.040       19.892      285.270      786.262      395.697        0.120        0.073       29.124        7.493        0.066      338.261       10.792      862.558
12/28/2014  13:33:00        5.988       -9.667        6.203       16.544       33.992       19.059      273.713     1155.433      363.237        0.098        0.090       11.372       16.252        2.042      338.153       10.611      862.564
12/28/2014  13:34:00       35.430       26.735       10.361       29.068       20.068       25.055      844.943      402.714      627.774        0.198        0.094       44.386       23.096        0.271      338.053       10.444      862.559
12/28/2014  13:35:00       51.377       56.459       52.535       54.110       50.741       48.495     2927.943     2574.640     2351.721        0.822        0.393       76.336       46.030        0.364      337.852       10.105      862.540
12/28/2014  13:36:00       39.126       98.293       94.416       71.026       42.834       44.120     5044.732     1834.773     1946.556        1.446        0.441      105.794       35.433        0.112      337.881       10.155      862.516
12/28/2014  13:37:00       31.548      -35.198       17.855       44.889       55.014       40.178     2015.009     3026.555     1614.300        0.460        0.333       47.267       38.497        0.663      337.748        9.931      862.508
12/28/2014  13:38:00      -60.420      -17.231        5.239       36.283       20.773       26.049     1316.448      431.533      678.539        0.320        0.121       62.829       13.046        0.043      337.929       10.236      862.496
12/28/2014  13:39:00        3.758       24.558       10.580       13.050       17.025       17.347      170.303      289.834      300.928        0.074        0.038       24.844       10.736        0.187      338.230       10.741      862.473
12/28/2014  13:40:00       -9.644       29.741       -0.439       11.865       18.081       13.773      140.771      326.914      189.688        0.082        0.033       31.265        5.308        0.029      338.195       10.681      862.460
12/28/2014  13:41:00       48.101       26.662       35.856       44.265       20.619       30.034     1959.402      425.135      902.034        0.380        0.164       54.996       25.973        0.223      338.112       10.541      862.432
12/28/2014  13:42:00       99.077      102.948        3.308       50.354       67.623       35.720     2535.489     4572.847     1275.918        1.440        0.419      142.880       29.692        0.043      337.990       10.336      862.430
12/28/2014  13:43:00       48.555       38.334        6.298       93.135       38.520       26.774     8674.068     1483.799      716.871        0.737        0.544       61.863       13.457        0.047      338.208       10.702      862.424
12/28/2014  13:44:00      -52.981       47.898       -0.949       67.340       99.912       41.893     4534.610     9982.429     1755.005        1.068        0.814       71.422       35.564        0.248      338.474       11.150      862.424
12/28/2014  13:45:00       -2.292       97.051        9.456       91.108       60.903       43.172     8300.611     3709.179     1863.826        1.169        0.694       97.078       44.666        0.212      338.418       11.056      862.424
12/28/2014  13:46:00       -0.623      177.308      -22.483       61.249       88.367       38.133     3751.396     7808.726     1454.102        2.248        0.651      177.309       39.763        0.050      338.348       10.937      862.407
12/28/2014  13:47:00      -19.190      146.444        1.679       59.957       80.853       48.037     3594.799     6537.243     2307.514        1.713        0.622      147.696       50.134        0.115      338.420       11.058      862.402
12/28/2014  13:48:00       41.970      160.540      -12.518       62.271       95.862       58.401     3877.669     9189.584     3410.686        2.208        0.824      165.936       56.574        0.116      338.314       10.878      862.386
12/28/2014  13:49:00      -31.104      181.921      -34.768       66.329       73.826       35.118     4399.517     5450.261     1233.285        2.318        0.554      184.561       36.702        0.040      338.432       11.078      862.384
12/28/2014  13:50:00       -6.483      179.505      -18.895       33.613       52.598       37.394     1129.809     2766.511     1398.328        1.896        0.265      179.622       28.381        0.025      338.408       11.039      862.359
12/28/2014  13:51:00     -102.142       -2.362        5.895       95.322       50.852       38.594     9086.320     2585.882     1489.470        1.181        0.658      102.169       54.293        0.282      338.563       11.298      862.347
12/28/2014  13:52:00      -49.833        3.312       -2.786       45.827       45.967       28.125     2100.158     2112.924      791.037        0.375        0.250       49.943       26.366        0.279      338.526       11.238      862.341
12/28/2014  13:53:00      -22.271      145.845       -7.373       34.824      114.194       38.627     1212.711    13040.381     1492.084        1.878        0.787      147.536       55.734        0.143      338.508       11.206      862.347
12/28/2014  13:54:00      -14.209      172.307      -17.762       48.563       52.568       25.493     2358.402     2763.366      649.899        1.799        0.289      172.892       26.482        0.023      338.398       11.021      862.352
12/28/2014  13:55:00      -56.486       41.971        2.038       68.919       86.022       42.963     4749.826     7399.754     1845.825        0.947        0.700       70.373       33.318        0.224      338.741       11.599      862.366
12/28/2014  13:56:00      -20.796      124.328       -5.340       68.151      156.150       50.336     4644.585    24382.828     2533.748        2.373        1.578      126.055       53.143        0.178      338.426       11.068      862.328
12/28/2014  13:57:00     -136.178      306.564      -39.055      105.259      150.418       66.276    11079.455    22625.597     4392.535        7.607        1.905      335.449       78.658        0.055      338.214       10.711      862.326
12/28/2014  13:58:00     -130.198      240.803      -28.282      105.285      125.529       58.218    11084.970    15757.490     3389.330        5.298        1.512      273.747       62.361        0.052      338.261       10.789      862.315
12/28/2014  13:59:00      -33.661      386.758      -52.298       54.932       86.626       50.533     3017.543     7504.076     2553.574        8.326        0.654      388.220       43.110        0.012      338.023       10.390      862.294
12/28/2014  14:00:00      -25.702      224.325       -9.511       50.498       93.427       57.977     2550.002     8728.638     3361.368        3.285        0.732      225.793       53.943        0.057      338.255       10.779      862.284
12/28/2014  14:01:00     -123.634      283.542      -42.418      114.350      108.290       52.480    13076.037    11726.747     2754.126        6.251        1.378      309.324       54.155        0.031      338.210       10.704      862.298
12/28/2014  14:02:00      -84.125      193.568      -25.059       60.558       73.819       37.648     3667.243     5449.224     1417.359        2.785        0.527      211.058       36.091        0.029      338.348       10.935      862.299
12/28/2014  14:03:00      -75.074      238.284      -30.801       73.750      114.740       44.710     5439.050    13165.308     1999.024        4.198        1.030      249.831       44.247        0.031      338.271       10.806      862.291
12/28/2014  14:04:00      -64.068      351.769      -34.928       83.347      126.746       54.213     6946.795    16064.620     2939.029        7.750        1.298      357.555       53.548        0.022      338.149       10.601      862.282
12/28/2014  14:05:00      -75.986      280.640      -29.497       69.494       96.769       45.239     4829.464     9364.228     2046.583        5.082        0.812      290.745       50.708        0.030      338.160       10.620      862.282
12/28/2014  14:06:00      -89.200      209.748      -32.996       93.220       82.379       49.662     8690.021     6786.364     2466.349        3.549        0.897      227.928       32.840        0.021      338.220       10.719      862.282
12/28/2014  14:07:00      -20.385      292.223      -33.994       67.233       67.272       42.469     4520.230     4525.527     1803.648        4.891        0.542      292.934       29.046        0.010      338.129       10.567      862.299
12/28/2014  14:08:00     -160.390      266.569      -38.382       86.385       98.835       57.993     7462.391     9768.416     3363.143        5.942        1.030      311.101       50.900        0.027      338.238       10.749      862.322
12/28/2014  14:09:00     -158.147      354.600      -47.110       91.494      110.150       60.658     8371.242    12132.997     3679.410        8.857        1.209      388.268       51.953        0.018      338.192       10.674      862.370
12/28/2014  14:10:00      -57.558      251.203      -27.618       72.431      102.876       54.844     5246.293    10583.552     3007.832        4.300        0.942      257.713       55.606        0.047      338.236       10.747      862.392
12/28/2014  14:11:00     -159.044      271.048      -44.336      110.728      156.573       70.618    12260.689    24514.977     4986.962        7.124        2.088      314.264       71.296        0.051      338.201       10.689      862.368
12/28/2014  14:12:00     -170.583      333.874      -43.852      109.138      137.347       69.490    11911.005    18864.093     4828.811        8.904        1.780      374.927       79.121        0.045      338.209       10.701      862.370
12/28/2014  14:13:00      -65.188      306.041      -22.608      100.746      134.897       66.969    10149.662    18197.312     4484.848        6.562        1.642      312.907       73.910        0.056      338.169       10.636      862.379
12/28/2014  14:14:00     -165.422      389.746      -47.405      126.245      154.113       78.633    15937.701    23750.676     6183.080       11.368        2.294      423.398       84.201        0.040      338.060       10.450      862.398
12/28/2014  14:15:00      -71.698      306.209      -37.873       86.187       90.427       45.587     7428.149     8177.118     2078.198        5.901        0.884      314.491       44.804        0.020      338.116       10.544      862.397
12/28/2014  14:16:00     -156.555      403.213      -50.328      102.724      117.563       65.042    10552.241    13821.170     4230.445       10.911        1.430      432.539       64.786        0.022      338.054       10.440      862.404
12/28/2014  14:17:00     -152.799      386.220      -46.221       84.332      117.855       57.023     7111.920    13889.837     3251.589        9.945        1.213      415.347       60.219        0.021      338.002       10.354      862.412
12/28/2014  14:18:00     -110.962      254.165      -28.875       64.789      112.024       43.864     4197.579    12549.340     1924.044        4.820        0.934      277.331       43.169        0.024      338.144       10.594      862.388
12/28/2014  14:19:00     -196.740      321.502      -62.020      125.183      120.037       58.058    15670.789    14408.914     3370.759        8.968        1.673      376.922       69.515        0.034      338.129       10.568      862.381
12/28/2014  14:20:00     -142.316      207.299      -23.601      112.715       98.102       59.051    12704.590     9623.906     3487.005        4.479        1.291      251.449       61.427        0.060      338.255       10.780      862.407
12/28/2014  14:21:00     -101.399      275.266      -19.928       71.690      135.402       58.664     5139.482    18333.630     3441.456        5.668        1.346      293.348       55.904        0.036      338.161       10.621      862.430
12/28/2014  14:22:00      -86.115      254.615      -37.022       63.593       69.144       46.902     4044.124     4780.892     2199.763        4.232        0.551      268.784       36.883        0.019      338.178       10.648      862.422
12/28/2014  14:23:00     -156.233      202.548      -44.202       98.014       85.811       53.561     9606.675     7363.470     2868.808        4.361        0.992      255.802       55.711        0.047      338.286       10.831      862.429
12/28/2014  14:24:00     -179.034      243.563      -44.098      111.963      108.653       67.989    12535.649    11805.530     4622.466        6.114        1.448      302.285       71.617        0.056      338.311       10.873      862.430
12/28/2014  14:25:00     -199.210      175.031      -31.895      119.402      113.600       65.916    14256.902    12904.999     4344.907        5.142        1.575      265.180       67.266        0.064      338.334       10.912      862.415
12/28/2014  14:26:00     -170.383      184.052      -31.447      109.270       98.615       62.554    11939.872     9724.879     3913.041        4.473        1.279      250.809       72.407        0.083      338.326       10.899      862.402
12/28/2014  14:27:00      -52.125      259.559      -30.975       65.539      133.702       54.963     4295.412    17876.235     3020.975        4.811        1.260      264.741       63.388        0.057      338.211       10.706      862.392
12/28/2014  14:28:00      -55.003      167.365       -5.396      106.882      111.351       55.435    11423.805    12399.140     3073.021        2.898        1.345      176.172       51.343        0.085      338.211       10.707      862.353
12/28/2014  14:29:00     -100.926      253.779      -38.048      101.768      103.985       63.664    10356.673    10812.903     4053.083        5.062        1.261      273.111       65.043        0.057      338.227       10.732      862.333
12/28/2014  14:30:00     -167.190      300.510      -41.499       79.683       93.889       54.214     6349.437     8815.151     2939.144        6.904        0.905      343.888       47.980        0.019      338.151       10.603      862.320
12/28/2014  14:31:00     -155.169      250.780      -45.555       96.114       96.479       60.276     9237.985     9308.216     3633.200        5.561        1.109      294.904       68.745        0.054      338.213       10.709      862.303
12/28/2014  14:32:00     -137.882      214.261      -30.373       75.805      122.416       54.830     5746.355    14985.790     3006.378        4.479        1.187      254.793       51.855        0.041      338.185       10.662      862.303
12/28/2014  14:33:00      -80.324      316.908      -40.635       96.933      130.654       59.907     9396.036    17070.476     3588.875        6.929        1.503      326.929       47.831        0.021      338.142       10.589      862.298
12/28/2014  14:34:00     -114.936      258.096      -29.949      100.381       94.863       62.146    10076.373     8999.004     3862.168        5.182        1.147      282.532       62.397        0.049      338.176       10.646      862.294
12/28/2014  14:35:00     -102.035      204.693      -23.649       55.930      106.516       54.412     3128.135    11345.685     2960.676        3.515        0.872      228.714       48.905        0.046      338.274       10.812      862.286
12/28/2014  14:36:00     -106.998      220.111      -30.774       72.484       93.860       40.530     5253.884     8809.616     1642.706        3.827        0.785      244.740       42.456        0.030      338.249       10.769      862.274
12/28/2014  14:37:00      -60.417      229.824      -32.164       50.475      136.570       44.157     2547.751    18651.270     1949.868        4.032        1.157      237.632       49.882        0.044      338.171       10.640      862.241
12/28/2014  14:38:00      -82.412      253.337      -20.330       80.324       95.145       52.927     6452.013     9052.606     2801.251        4.484        0.915      266.405       50.253        0.036      338.228       10.733      862.221
12/28/2014  14:39:00     -183.869      302.808      -52.528       82.606       95.220       58.695     6823.677     9066.902     3445.074        7.379        0.967      354.261       43.885        0.015      338.145       10.594      862.217
12/28/2014  14:40:00      -67.240      359.093      -42.736       64.633       97.991       51.461     4177.379     9602.271     2648.215        7.586        0.821      365.334       38.305        0.011      338.174       10.643      862.208
12/28/2014  14:41:00      -37.365      274.517      -17.421       86.173      120.283       56.291     7425.871    14467.940     3168.727        5.106        1.253      277.049       60.479        0.048      338.198       10.683      862.205
12/28/2014  14:42:00     -157.244      181.875      -30.270       74.021      127.180       49.543     5479.118    16174.712     2454.539        4.141        1.205      240.425       40.822        0.029      338.325       10.897      862.228
12/28/2014  14:43:00      -89.256      216.876      -26.379       81.962       92.237       52.883     6717.819     8507.622     2796.568        3.686        0.901      234.524       59.055        0.063      338.122       10.556      862.246
12/28/2014  14:44:00     -208.685      265.071      -45.555       95.653      103.334       58.848     9149.466    10677.814     3463.094        6.958        1.165      337.361       59.638        0.031      338.169       10.633      862.249
12/28/2014  14:45:00     -107.470      273.400      -27.740       75.710      111.132       57.848     5731.988    12350.247     3346.375        5.424        1.071      293.764       55.711        0.036      338.140       10.587      862.245
12/28/2014  14:46:00      -79.442      186.451      -26.117       86.545       99.652       46.722     7490.020     9930.433     2182.974        3.068        0.980      202.669       49.963        0.061      338.220       10.722      862.235
12/28/2014  14:47:00      -82.030      162.298      -11.375       66.375      122.188       39.147     4405.695    14929.976     1532.518        2.703        1.043      181.850       31.093        0.029      338.256       10.782      862.228
12/28/2014  14:48:00      -54.965      164.954      -20.977       44.541       93.429       36.395     1983.905     8728.934     1324.618        2.135        0.602      173.871       38.221        0.048      338.281       10.824      862.222
12/28/2014  14:49:00      -51.265      241.962      -34.630       64.401       83.951       45.980     4147.500     7047.720     2114.198        3.784        0.665      247.333       35.731        0.021      338.203       10.691      862.207
12/28/2014  14:50:00     -124.240      302.342      -39.431       76.540      133.379       45.348     5858.424    17790.050     2056.418        6.705        1.285      326.874       32.492        0.010      338.209       10.702      862.204
12/28/2014  14:51:00     -156.239       25.631      -12.520       67.000       81.976       43.596     4489.031     6720.089     1900.593        1.916        0.655      158.327       26.457        0.028      338.375       10.983      862.221
12/28/2014  14:52:00      -72.161       73.908      -25.401       56.107       61.039       43.589     3148.051     3725.747     1899.958        1.004        0.439      103.294       26.667        0.067      338.411       11.045      862.236
12/28/2014  14:53:00      -77.018       62.275      -23.065       41.410       54.255       30.530     1714.829     2943.578      932.066        0.797        0.280       99.046       20.319        0.042      338.392       11.013      862.234
12/28/2014  14:54:00      -43.048       28.933        6.592       47.454       49.168       25.929     2251.918     2417.490      672.298        0.404        0.267       51.868       19.041        0.135      338.568       11.308      862.240
12/28/2014  14:55:00     -100.374      -16.249       -4.693       49.896       60.038       23.260     2489.623     3604.542      541.024        0.850        0.332      101.681       20.788        0.042      338.529       11.242      862.223
12/28/2014  14:56:00     -134.629       -6.044      -18.839       65.336       48.381       25.673     4268.829     2340.697      659.108        1.289        0.363      134.764       24.925        0.034      338.461       11.129      862.216
12/28/2014  14:57:00     -127.852      206.551      -32.024       75.079       92.372       46.484     5636.803     8532.582     2160.748        3.818        0.817      242.919       38.750        0.025      338.531       11.243      862.220
12/28/2014  14:58:00     -147.741      201.920      -41.199       55.574       79.794       33.892     3088.458     6367.034     1148.699        3.745        0.530      250.199       23.035        0.008      338.512       11.211      862.226
12/28/2014  14:59:00      -86.537      257.403      -25.102       56.039       86.816       44.201     3140.380     7536.961     1953.770        4.350        0.632      271.560       36.996        0.019      338.268       10.801      862.227
12/28/2014  15:00:00     -106.997      261.255      -28.678       58.807      115.223       45.255     3458.281    13276.283     2047.987        4.965        0.939      282.317       39.061        0.019      338.090       10.503      862.232
12/28/2014  15:01:00      -55.684      250.366      -23.207       44.303      105.845       37.776     1962.767    11203.213     1426.995        4.045        0.730      256.484       43.593        0.029      338.021       10.386      862.211
12/28/2014  15:02:00      -38.879      396.411      -45.059       86.790      163.712       59.630     7532.442    26801.757     3555.776        9.928        1.894      398.313       67.025        0.028      337.983       10.322      862.165
12/28/2014  15:03:00     -107.964      346.041      -45.509       51.944      131.738       47.725     2698.134    17354.921     2277.649        7.790        1.117      362.492       58.548        0.026      337.972       10.304      862.159
12/28/2014  15:04:00      -80.834      225.297      -27.738       62.875       77.152       39.914     3953.205     5952.442     1593.135        3.478        0.575      239.359       33.862        0.020      338.052       10.436      862.154
12/28/2014  15:05:00      -64.890      275.813      -44.461       76.610       88.114       37.184     5869.130     7764.109     1382.681        4.864        0.751      283.344       38.020        0.018      338.029       10.399      862.125
12/28/2014  15:06:00       -2.404      292.080      -40.626       73.036       82.857       39.626     5334.321     6865.224     1570.233        5.037        0.688      292.090       30.267        0.011      338.066       10.461      862.097
12/28/2014  15:07:00      -13.374      315.594      -34.806       72.820       81.451       49.685     5302.733     6634.310     2468.619        5.769        0.720      315.877       40.523        0.016      338.063       10.456      862.096
12/28/2014  15:08:00      -63.993      208.987      -28.055       83.104      104.479       41.816     6906.342    10915.953     1748.616        3.406        0.979      218.565       39.184        0.032      338.196       10.681      862.121
12/28/2014  15:09:00      -89.527      267.820      -39.370       59.361       92.575       44.990     3523.670     8570.083     2024.105        4.770        0.706      282.387       43.618        0.024      338.119       10.549      862.151
12/28/2014  15:10:00      -62.268      229.636      -30.782       61.799       82.914       40.513     3819.061     6874.809     1641.327        3.494        0.617      237.928       41.240        0.030      338.216       10.714      862.141
12/28/2014  15:11:00       14.287      362.402      -53.854       52.102       68.386       35.598     2714.667     4676.579     1267.243        7.155        0.433      362.683       29.636        0.007      338.202       10.690      862.139
12/28/2014  15:12:00       19.580      304.591      -36.334       73.967      140.022       59.842     5471.060    19606.290     3581.055        6.156        1.433      305.219       77.249        0.064      338.140       10.586      862.136
12/28/2014  15:13:00      -65.817      268.519      -16.622       59.797      141.869       53.554     3575.671    20126.885     2868.056        5.164        1.329      276.468       72.521        0.069      338.113       10.542      862.137
12/28/2014  15:14:00      -31.217      257.847      -27.244       61.340      105.935       47.400     3762.614    11222.135     2246.789        4.271        0.862      259.730       57.398        0.049      338.122       10.555      862.127
12/28/2014  15:15:00      -83.029      294.484      -31.562       97.061      109.176       45.413     9420.766    11919.366     2062.339        5.900        1.170      305.965       48.951        0.026      338.059       10.451      862.113
12/28/2014  15:16:00     -123.756      192.355      -36.058       80.689       90.190       46.269     6510.695     8134.185     2140.836        3.520        0.839      228.727       48.915        0.046      338.202       10.690      862.110
12/28/2014  15:17:00     -110.012      320.436      -40.596       80.444       91.687       49.272     6471.221     8406.426     2427.718        6.686        0.865      338.795       46.302        0.019      338.028       10.398      862.111
12/28/2014  15:18:00      -49.539      111.134      -11.731       73.474       88.624       38.821     5398.447     7854.251     1507.079        1.485        0.738      121.675       28.452        0.055      338.161       10.624      862.090
12/28/2014  15:19:00       -6.848      172.006       -7.833       61.115       91.140       57.260     3735.072     8306.427     3278.744        2.250        0.766      172.143       45.934        0.071      338.103       10.527      862.077
12/28/2014  15:20:00     -111.851      237.175      -32.792       92.645       77.687       48.931     8583.026     6035.214     2394.249        4.342        0.851      262.226       47.113        0.032      338.150       10.602      862.082
12/28/2014  15:21:00     -109.048      170.663      -26.167       80.517       99.060       48.672     6482.954     9812.939     2368.920        3.018        0.933      202.527       54.626        0.073      338.128       10.567      862.078
12/28/2014  15:22:00     -109.202      186.209      -15.849       71.126      126.521       47.056     5058.935    16007.514     2214.281        3.506        1.164      215.867       47.935        0.049      338.112       10.540      862.088
12/28/2014  15:23:00      -48.956      139.346      -22.437       58.811       79.333       35.760     3458.735     6293.747     1278.799        1.667        0.552      147.695       24.313        0.027      338.120       10.556      862.099
12/28/2014  15:24:00      -45.340      221.779      -26.691       67.282       95.001       43.664     4526.887     9025.252     1906.568        3.370        0.773      226.366       46.206        0.042      338.085       10.496      862.088
12/28/2014  15:25:00      -51.334      256.248      -33.810       70.603       99.761       41.204     4984.742     9952.295     1697.761        4.303        0.832      261.339       45.601        0.030      338.100       10.519      862.075
12/28/2014  15:26:00      -44.539      110.701       -6.616       50.554       49.664       35.276     2555.728     2466.505     1244.400        1.027        0.313      119.325       27.873        0.055      338.244       10.765      862.067
12/28/2014  15:27:00      -70.641      275.762      -29.853       89.755      118.809       48.750     8056.010    14115.603     2376.603        5.323        1.227      284.666       51.214        0.032      338.044       10.426      862.075
12/28/2014  15:28:00      -47.200      299.457      -35.323       48.393       99.146       33.110     2341.851     9829.930     1096.258        5.321        0.663      303.154       32.268        0.011      338.013       10.374      862.070
12/28/2014  15:29:00      -51.427      245.554      -32.871       51.164       66.094       33.952     2617.757     4368.443     1152.715        3.608        0.407      250.882       31.132        0.015      338.096       10.512      862.067
12/28/2014  15:30:00      -83.193      186.549      -25.282       52.157       51.342       30.003     2720.342     2636.016      900.199        2.431        0.313      204.258       19.680        0.009      338.202       10.692      862.073
12/28/2014  15:31:00      -91.605      101.591      -11.107       55.140       54.167       30.330     3040.430     2934.013      919.909        1.286        0.345      136.793       28.743        0.044      338.242       10.759      862.092
12/28/2014  15:32:00      -96.349       74.701      -19.098       26.521       49.888       25.836      703.360     2488.832      667.521        0.954        0.193      121.916       24.192        0.039      338.295       10.849      862.109
12/28/2014  15:33:00      -95.167       52.546      -13.225       43.761       82.975       31.012     1914.987     6884.881      961.748        1.088        0.488      108.710       22.357        0.042      338.284       10.831      862.145
12/28/2014  15:34:00      -79.356      112.654      -21.258       38.451       45.672       27.259     1478.473     2085.911      743.054        1.187        0.215      137.798       17.682        0.016      338.261       10.790      862.138
12/28/2014  15:35:00      -59.070      -23.486        4.082       45.094       39.072       28.503     2033.456     1526.625      812.409        0.421        0.219       63.567       15.633        0.060      338.283       10.828      862.124
12/28/2014  15:36:00     -130.127      -26.103      -11.898      126.967       52.524       31.386    16120.653     2758.731      985.102        1.881        0.993      132.719       25.252        0.036      338.254       10.779      862.134
12/28/2014  15:37:00     -209.347      -49.552      -18.754      103.032       60.305       40.752    10615.631     3636.649     1660.722        3.127        0.796      215.131       36.521        0.029      338.045       10.427      862.178
12/28/2014  15:38:00     -286.527      -92.354      -13.756       62.680       76.089       42.992     3928.747     5789.587     1848.306        5.119        0.578      301.044       35.840        0.014      337.974       10.306      862.168
12/28/2014  15:39:00     -121.666      -58.150        7.157      102.216       64.422       41.243    10448.181     4150.172     1701.003        1.726        0.815      134.848       42.988        0.102      338.068       10.466      862.148
12/28/2014  15:40:00     -182.337      -67.808       -6.701       64.713       77.261       43.846     4187.806     5969.267     1922.488        2.498        0.604      194.537       30.805        0.025      338.083       10.492      862.165
12/28/2014  15:41:00     -214.707      -90.470      -10.333       60.788       61.268       33.648     3695.239     3753.783     1132.167        3.148        0.429      232.989       31.522        0.018      338.010       10.367      862.178
12/28/2014  15:42:00     -252.149      -31.371      -39.188       90.650       90.384       45.465     8217.474     8169.256     2067.023        4.227        0.923      254.093       39.475        0.024      338.027       10.397      862.188
12/28/2014  15:43:00     -271.338      -38.104       -5.588      104.343      108.268       55.470    10887.430    11722.029     3076.900        5.039        1.284      274.001       53.344        0.038      337.986       10.329      862.160
12/28/2014  15:44:00     -212.140      -65.554       -8.251      151.856      115.915       58.376    23060.181    13436.279     3407.710        4.463        1.995      222.038       63.702        0.082      338.016       10.378      862.134
12/28/2014  15:45:00     -462.277       -5.680      -29.464      174.302      136.133       75.749    30381.358    18532.256     5737.840       13.461        2.733      462.312       77.433        0.028      338.019       10.382      862.157
12/28/2014  15:46:00     -399.803      -98.455      -24.462      186.036      125.767       81.983    34609.378    15817.441     6721.202       11.363        2.857      411.747       98.537        0.057      338.000       10.350      862.139
12/28/2014  15:47:00     -229.912      -92.881      -15.570      167.464      129.471       80.397    28044.234    16762.772     6463.641        5.649        2.564      247.965       73.344        0.087      338.004       10.359      862.109
12/28/2014  15:48:00     -321.157      -21.434      -18.825      130.468      102.652       58.038    17022.026    10537.365     3368.461        6.744        1.546      321.872       54.783        0.029      337.952       10.271      862.119
12/28/2014  15:49:00     -410.501     -166.426       -8.548      208.037      158.099       91.431    43279.471    24995.441     8359.603       13.644        3.832      442.955      106.969        0.058      337.898       10.179      862.096
12/28/2014  15:50:00     -244.352      -39.366       10.892      189.553      123.474       74.266    35930.487    15245.907     5515.512        5.902        2.835      247.503       98.458        0.158      337.943       10.256      862.084
12/28/2014  15:51:00     -342.802     -123.435      -22.636       88.583       87.704       48.058     7847.029     7691.958     2309.608        7.555        0.892      364.348       45.238        0.015      337.918       10.211      862.094
12/28/2014  15:52:00     -285.530      -25.835      -14.682      119.717       89.495       44.664    14332.244     8009.316     1994.903        5.337        1.217      286.696       44.963        0.025      337.915       10.207      862.099
12/28/2014  15:53:00     -273.636      -16.585      -17.986       79.330       93.431       39.080     6293.319     8729.264     1527.269        4.601        0.827      274.138       25.875        0.009      337.906       10.192      862.113
12/28/2014  15:54:00     -343.992     -141.313      -20.889      142.079      117.522       69.633    20186.550    13811.525     4848.779        8.878        1.942      371.886       63.072        0.029      337.874       10.139      862.112
12/28/2014  15:55:00     -474.965     -133.928      -17.548      193.421      123.497       69.181    37411.615    15251.472     4785.978       15.063        2.872      493.486       73.071        0.022      337.869       10.131      862.111
12/28/2014  15:56:00     -322.886     -124.918        1.278      143.154      122.300       77.492    20493.018    14957.326     6004.946        8.065        2.073      346.208       80.912        0.055      337.868       10.131      862.121
12/28/2014  15:57:00     -384.604      -40.385      -45.231      126.752      135.823       56.547    16066.041    18447.861     3197.617        9.465        1.886      386.718       54.569        0.020      337.835       10.074      862.139
12/28/2014  15:58:00     -352.107     -117.578      -16.061      172.611      156.620       94.252    29794.657    24529.698     8883.508       10.062        3.160      371.220      104.160        0.079      337.827       10.061      862.094
12/28/2014  15:59:00     -402.785      -42.738       -8.921      210.743      120.285       71.392    44412.422    14468.476     5096.863       11.405        3.199      405.046       85.056        0.044      337.830       10.065      862.107
12/28/2014  16:00:00     -305.947      -35.061      -11.308      109.718      130.009       72.523    12037.946    16902.397     5259.631        6.457        1.710      307.950       54.339        0.031      337.843       10.087      862.123
12/28/2014  16:01:00     -356.891      -34.389      -11.903      206.952      152.980       65.088    42829.050    23402.805     4236.397        9.957        3.523      358.544       77.319        0.047      337.768        9.961      862.127
12/28/2014  16:02:00     -504.538     -120.441      -32.397      201.655      125.480       77.326    40664.627    15745.130     5979.341       16.624        3.119      518.714       80.883        0.024      337.790        9.998      862.118
12/28/2014  16:03:00     -287.778     -113.496        4.625      199.903      119.782       78.774    39961.300    14347.685     6205.320        7.810        3.026      309.350       87.870        0.081      337.766        9.960      862.089
12/28/2014  16:04:00     -334.646      -59.090      -16.483      123.772      120.604       58.955    15319.600    14545.282     3475.690        7.454        1.667      339.823       63.769        0.035      337.772        9.969      862.114
12/28/2014  16:05:00     -353.861      -24.068      -20.304      129.442      109.475       60.195    16755.357    11984.823     3623.458        7.928        1.618      354.678       67.442        0.036      337.758        9.946      862.131
12/28/2014  16:06:00     -248.418      -41.212      -15.484      113.204      110.114       48.831    12815.102    12125.023     2384.430        4.548        1.366      251.813       51.048        0.041      337.739        9.912      862.134
12/28/2014  16:07:00     -291.243      -12.225      -30.454      145.565       95.487       58.875    21189.066     9117.819     3466.260        5.983        1.689      291.500       62.866        0.047      337.703        9.853      862.154
12/28/2014  16:08:00     -445.457      -81.178      -16.532      175.653      104.918       70.235    30854.044    11007.698     4932.967       12.604        2.340      452.793       72.573        0.026      337.689        9.831      862.152
12/28/2014  16:09:00     -431.508      -98.813      -32.297      131.526      100.212       59.334    17298.992    10042.506     3520.534       11.393        1.543      442.677       56.590        0.016      337.652        9.768      862.145
12/28/2014  16:10:00     -419.078      -72.807      -40.849      147.762      123.189       69.643    21833.686    15175.593     4850.141       11.222        2.093      425.356       74.488        0.031      337.665        9.788      862.151
12/28/2014  16:11:00     -311.328      -67.102      -20.077      164.590       89.444       57.403    27089.888     8000.189     3295.129        7.010        1.919      318.477       65.175        0.042      337.660        9.782      862.133
12/28/2014  16:12:00     -402.981     -144.785      -34.543      228.338      120.526       70.019    52138.096    14526.493     4902.703       12.804        3.578      428.201       70.078        0.027      337.666        9.792      862.128
12/28/2014  16:13:00     -372.786     -175.136      -11.716      109.430       93.294       58.975    11975.017     8703.776     3478.010        9.696        1.208      411.876       56.615        0.019      337.647        9.759      862.148
12/28/2014  16:14:00     -377.517     -171.121      -17.837      136.271       96.478       69.296    18569.828     9308.006     4801.971       10.239        1.634      414.489       65.358        0.025      337.642        9.751      862.164
12/28/2014  16:15:00     -231.448      -72.071      -21.348      107.405       68.030       46.921    11535.807     4628.129     2201.620        3.879        0.918      242.409       45.059        0.035      337.574        9.635      862.177
12/28/2014  16:16:00     -206.654      -69.155       -7.149       88.275       47.019       39.139     7792.413     2210.758     1531.839        2.953        0.577      217.918       42.258        0.038      337.511        9.530      862.182
12/28/2014  16:17:00     -203.390      -50.808      -15.345       81.987       77.820       44.325     6721.847     6055.988     1964.718        2.946        0.737      209.640       43.104        0.042      337.498        9.508      862.170
12/28/2014  16:18:00     -230.791      -62.158      -12.849       72.540       77.062       42.773     5262.028     5938.572     1829.514        3.516        0.652      239.015       39.150        0.027      337.475        9.470      862.165
12/28/2014  16:19:00     -179.477      -47.416      -15.134       72.849       65.578       38.598     5307.029     4300.439     1489.773        2.289        0.555      185.634       35.482        0.037      337.489        9.496      862.157
12/28/2014  16:20:00     -247.142      -49.608      -15.747       79.421       67.667       44.723     6307.691     4578.784     2000.148        3.833        0.644      252.071       40.897        0.026      337.420        9.378      862.157
12/28/2014  16:21:00     -226.888      -55.503       -8.458       69.189       54.420       32.488     4787.090     2961.564     1055.469        3.172        0.440      233.578       29.651        0.016      337.379        9.309      862.166
12/28/2014  16:22:00     -251.619      -55.584      -14.049       85.036       88.868       39.843     7231.162     7897.577     1587.454        4.165        0.836      257.685       34.740        0.018      337.413        9.366      862.177
12/28/2014  16:23:00     -335.192      -73.352      -27.348       87.546       84.587       50.996     7664.316     7154.888     2600.640        6.795        0.871      343.124       47.650        0.019      337.455        9.437      862.162
12/28/2014  16:24:00     -236.065      -61.387       -0.510       88.117       82.724       56.543     7764.533     6843.257     3197.079        3.865        0.890      243.916       53.884        0.049      337.382        9.314      862.148
12/28/2014  16:25:00     -234.104     -100.081      -16.977       79.694       67.219       37.197     6351.066     4518.448     1383.616        3.868        0.613      254.600       25.330        0.010      337.380        9.311      862.155
12/28/2014  16:26:00     -257.648     -116.703      -15.303       81.168       65.788       42.074     6588.164     4328.088     1770.202        4.646        0.634      282.847       41.938        0.022      337.361        9.278      862.158
12/28/2014  16:27:00     -349.021      -59.041      -33.134       86.407       90.478       55.024     7466.233     8186.301     3027.637        7.254        0.934      353.980       39.525        0.012      337.363        9.284      862.187
12/28/2014  16:28:00     -330.240      -56.236      -29.941       97.392       89.736       54.614     9485.285     8052.580     2982.679        6.681        1.026      334.994       50.780        0.023      337.337        9.239      862.206
12/28/2014  16:29:00     -233.082      -98.292      -10.370       95.694       90.477       48.161     9157.325     8186.021     2319.510        4.188        0.983      252.959       40.747        0.026      337.278        9.142      862.207
12/28/2014  16:30:00     -234.490      -74.714       -6.535      101.055       70.514       45.018    10212.079     4972.281     2026.645        3.891        0.861      246.105       41.637        0.029      337.250        9.093      862.180
12/28/2014  16:31:00     -213.193      -16.954       -3.968       88.026       59.624       39.709     7748.639     3555.034     1576.804        2.931        0.644      213.866       41.013        0.037      337.231        9.062      862.152
12/28/2014  16:32:00     -292.710      -43.773       -9.857       96.862       60.770       41.649     9382.332     3692.952     1734.664        5.125        0.740      295.965       46.271        0.024      337.237        9.073      862.153
12/28/2014  16:33:00     -261.829      -50.712       -4.028      119.341       82.803       43.160    14242.216     6856.331     1862.809        4.705        1.148      266.695       46.429        0.030      337.154        8.935      862.164
12/28/2014  16:34:00     -288.625      -58.224      -12.029      121.719       87.089       56.826    14815.629     7584.473     3229.217        5.623        1.281      294.440       52.532        0.032      337.180        8.978      862.159
12/28/2014  16:35:00     -258.903      -67.618       -4.836      101.738       59.706       40.138    10350.577     3564.838     1611.078        4.357        0.776      267.588       40.652        0.023      337.127        8.889      862.139
12/28/2014  16:36:00     -323.574      -76.573        3.566      153.708       87.893       62.795    23626.173     7725.117     3943.153        7.293        1.765      332.511       67.196        0.041      337.144        8.916      862.126
12/28/2014  16:37:00     -251.204      -24.175       -7.724      128.402      109.738       54.728    16486.963    12042.399     2995.196        4.763        1.576      252.364       57.960        0.053      337.122        8.878      862.122
12/28/2014  16:38:00     -261.903      -81.804       -2.986      114.444       78.822       44.252    13097.353     6212.973     1958.270        4.828        1.063      274.381       49.350        0.032      337.069        8.791      862.137
12/28/2014  16:39:00     -304.089      -97.677      -10.394      151.516      109.317       66.975    22957.089    11950.169     4485.600        7.075        1.970      319.391       73.561        0.053      337.050        8.758      862.134
12/28/2014  16:40:00     -377.667      -99.527      -18.564      117.468      104.072       61.129    13798.700    10830.918     3736.711        9.062        1.418      390.561       56.192        0.021      337.043        8.746      862.114
12/28/2014  16:41:00     -361.245      -50.802      -11.872      185.598      119.280       72.811    34446.662    14227.710     5301.374        9.359        2.699      364.799       81.080        0.049      337.018        8.706      862.113
12/28/2014  16:42:00     -421.874     -130.389      -23.717      180.121      119.923       66.163    32443.585    14381.544     4377.514       12.336        2.560      441.564       78.916        0.032      337.059        8.774      862.141
12/28/2014  16:43:00     -358.498      -83.263      -15.748      173.894      114.603       66.732    30239.290    13133.915     4453.135        9.175        2.391      368.040       80.086        0.047      337.043        8.747      862.153
12/28/2014  16:44:00     -345.225     -114.931       -7.428      132.778       94.079       62.040    17630.046     8850.946     3848.930        8.138        1.516      363.854       65.815        0.033      336.997        8.671      862.177
12/28/2014  16:45:00     -313.717      -72.759       -7.764      152.571      118.147       73.300    23277.948    13958.743     5372.821        7.318        2.130      322.043       74.661        0.054      336.983        8.646      862.201
12/28/2014  16:46:00     -402.246      -47.527      -20.179      175.491      127.602       68.834    30796.995    16282.265     4738.074       10.813        2.591      405.044       72.810        0.032      336.972        8.628      862.217
12/28/2014  16:47:00     -349.278      -81.779      -11.924      125.378      115.205       70.167    15719.768    13272.225     4923.448        8.136        1.696      358.724       73.399        0.042      336.967        8.620      862.207
12/28/2014  16:48:00     -456.089      -40.952      -40.556      127.043       78.584       63.631    16139.850     6175.447     4048.863       11.885        1.318      457.924       62.359        0.019      336.944        8.582      862.212
12/28/2014  16:49:00     -371.959      -54.615      -17.146      131.792      101.206       65.537    17369.093    10242.614     4295.071        8.676        1.595      375.947       69.924        0.035      336.909        8.523      862.200
12/28/2014  16:50:00     -232.528      -47.270       -4.012      101.371      110.266       57.040    10276.000    12158.662     3253.567        4.100        1.284      237.284       58.346        0.060      336.881        8.477      862.200
12/28/2014  16:51:00     -338.157      -29.076      -26.443      135.698       86.816       55.413    18414.061     7536.978     3070.647        7.245        1.451      339.405       64.798        0.036      336.936        8.568      862.199
12/28/2014  16:52:00     -361.414     -104.711      -25.918      105.437      107.909       65.983    11116.941    11644.330     4353.739        8.468        1.356      376.277       53.783        0.020      336.874        8.465      862.197
12/28/2014  16:53:00     -362.326      -67.333      -24.868      118.665      104.522       59.718    14081.363    10924.761     3566.181        8.250        1.429      368.529       56.166        0.023      336.828        8.389      862.209
12/28/2014  16:54:00     -275.159      -84.703       -6.844      125.398       81.883       50.603    15724.726     6704.795     2560.626        5.396        1.250      287.901       60.274        0.044      336.761        8.277      862.209
12/28/2014  16:55:00     -295.674      -29.342       -4.090      144.554      132.777       63.553    20895.958    17629.753     4038.965        6.542        2.128      297.127       69.655        0.055      336.817        8.370      862.185
12/28/2014  16:56:00     -441.571      -68.872      -31.233      129.269      100.061       65.983    16710.544    10012.162     4353.698       11.588        1.554      446.910       68.879        0.024      336.843        8.413      862.194
12/28/2014  16:57:00     -367.640      -35.654      -23.324      116.264      106.065       68.105    13517.259    11249.789     4638.244        8.318        1.470      369.365       60.311        0.027      336.892        8.495      862.189
12/28/2014  16:58:00     -201.139     -100.309       -2.209      114.815      114.691       66.734    13182.472    13154.121     4453.480        4.065        1.540      224.764       63.069        0.079      336.764        8.282      862.181
12/28/2014  16:59:00     -316.916      -57.914       -8.718      126.430       98.748       51.970    15984.609     9751.151     2700.926        6.615        1.422      322.164       53.157        0.027      336.804        8.348      862.179
12/28/2014  17:00:00     -209.448      -19.002       11.096      132.568       89.036       58.229    17574.211     7927.416     3390.625        3.662        1.445      210.308       66.040        0.099      336.790        8.325      862.175
12/28/2014  17:01:00     -324.480      -32.248      -18.259       89.822       85.544       53.545     8067.933     7317.806     2867.044        6.245        0.913      326.078       45.929        0.020      336.772        8.295      862.183
12/28/2014  17:02:00     -288.380      -71.477      -26.391       79.920       70.091       51.945     6387.276     4912.689     2698.264        5.148        0.700      297.106       43.860        0.022      336.796        8.335      862.182
12/28/2014  17:03:00     -227.610      -26.304        0.409      121.310       80.284       64.410    14716.116     6445.453     4148.628        3.890        1.266      229.125       59.478        0.067      336.763        8.282      862.184
12/28/2014  17:04:00     -263.489      -50.795      -14.811      110.580       77.830       50.674    12228.040     6057.532     2567.896        4.654        1.043      268.340       58.804        0.048      336.724        8.215      862.179
12/28/2014  17:05:00     -250.907      -39.850      -10.864      100.773       92.035       52.449    10155.254     8470.371     2750.885        4.301        1.069      254.052       47.788        0.035      336.796        8.336      862.179
12/28/2014  17:06:00     -169.181      -21.567       11.982      111.988       93.101       51.589    12541.334     8667.792     2661.395        2.655        1.194      170.550       59.789        0.123      336.736        8.234      862.167
12/28/2014  17:07:00     -251.212      -24.480      -10.910       95.659       89.245       43.038     9150.639     7964.756     1852.247        4.139        0.948      252.402       36.118        0.020      336.758        8.272      862.165
12/28/2014  17:08:00     -296.620     -105.134       -6.043       93.883       94.189       53.477     8814.043     8871.534     2859.737        5.981        1.027      314.701       51.723        0.027      336.798        8.338      862.142
12/28/2014  17:09:00     -281.606      -72.205      -25.200       89.106      113.759       45.794     7939.915    12941.152     2097.061        5.406        1.149      290.715       31.262        0.012      336.736        8.234      862.133
12/28/2014  17:10:00     -310.066      -17.781      -19.340      142.373       76.014       54.282    20269.995     5778.112     2946.546        6.291        1.450      310.576       63.279        0.042      336.704        8.183      862.151
12/28/2014  17:11:00     -322.368      -64.091      -10.566       97.365       77.435       59.754     9479.871     5996.234     3570.525        6.359        0.952      328.678       62.130        0.036      336.721        8.210      862.176
12/28/2014  17:12:00     -304.803      -54.079       -0.318      102.054       77.715       51.943    10415.030     6039.686     2698.069        5.749        0.958      309.563       56.953        0.034      336.588        7.987      862.216
12/28/2014  17:13:00     -232.929      -37.348        2.418      101.948       69.004       50.473    10393.307     4761.521     2547.491        3.668        0.885      235.904       46.925        0.040      336.576        7.968      862.228
12/28/2014  17:14:00     -223.946      -79.386      -14.083       93.592       69.549       43.882     8759.521     4837.033     1925.659        3.608        0.776      237.600       42.274        0.032      336.589        7.991      862.230
12/28/2014  17:15:00     -217.150      -72.499       -5.627      104.906       87.419       48.644    11005.368     7642.032     2366.286        3.672        1.051      228.933       53.730        0.055      336.492        7.828      862.244
12/28/2014  17:16:00     -209.384      -81.588       -1.915      113.440      101.008       54.378    12868.592    10202.704     2956.947        3.826        1.301      224.719       60.110        0.072      336.533        7.897      862.239
12/28/2014  17:17:00     -440.043      -92.119      -11.982      154.245      112.495       77.188    23791.380    12655.158     5958.056       12.233        2.120      449.582       76.534        0.029      336.704        8.182      862.242
12/28/2014  17:18:00     -288.245      -26.121       -8.882      125.109      102.454       55.509    15652.231    10496.751     3081.268        5.653        1.462      289.426       64.292        0.049      336.608        8.023      862.253
12/28/2014  17:19:00     -250.620      -62.773       -8.227      101.370       97.435       49.267    10275.926     9493.569     2427.256        4.450        1.110      258.362       47.185        0.033      336.561        7.944      862.273
12/28/2014  17:20:00     -243.258      -57.669      -15.300      102.069       75.352       52.495    10418.130     5677.900     2755.772        4.079        0.943      250.001       41.390        0.027      336.544        7.915      862.284
12/28/2014  17:21:00     -318.229      -24.877      -19.019      103.807       99.759       55.510    10775.816     9951.888     3081.327        6.302        1.190      319.200       55.408        0.030      336.587        7.988      862.318
12/28/2014  17:22:00     -244.766      -63.063       -4.235      130.400      107.037       54.845    17004.047    11456.840     3007.946        4.768        1.573      252.760       65.196        0.067      336.554        7.932      862.341
12/28/2014  17:23:00     -427.067      -77.205      -21.141      123.695      121.520       63.282    15300.546    14767.063     4004.568       11.143        1.704      433.990       64.415        0.022      336.583        7.980      862.378
12/28/2014  17:24:00     -283.655      -61.436      -21.250      132.907      114.203       55.347    17664.273    13042.218     3063.269        5.922        1.688      290.232       63.847        0.048      336.644        8.083      862.388
12/28/2014  17:25:00     -264.563      -71.357      -15.506      176.836      132.464       89.469    31270.902    17546.834     8004.710        6.606        2.841      274.017       86.006        0.099      336.542        7.912      862.381
12/28/2014  17:26:00     -326.715      -31.406        0.478      168.074      113.821       71.189    28248.844    12955.237     5067.887        7.699        2.314      328.221       70.385        0.046      336.715        8.201      862.418
12/28/2014  17:27:00     -240.626      -46.226       -2.666      129.735       95.863       54.276    16831.266     9189.675     2945.874        4.450        1.448      245.025       63.193        0.067      336.649        8.090      862.431
12/28/2014  17:28:00     -292.610       13.874       -9.212      130.670       89.047       64.658    17074.595     7929.327     4180.623        5.754        1.459      292.939       74.701        0.065      336.806        8.351      862.472
12/28/2014  17:29:00     -303.562      -43.621      -15.041      105.702       81.148       54.698    11172.981     6585.031     2991.911        5.751        1.037      306.680       49.316        0.026      336.685        8.150      862.462
12/28/2014  17:30:00     -271.461      -77.180       -8.421       75.295      105.497       38.580     5669.354    11129.659     1488.416        4.900        0.914      282.220       38.696        0.019      336.672        8.128      862.473
12/28/2014  17:31:00     -183.210       84.826      -14.187       95.846       78.845       46.321     9186.469     6216.458     2145.668        2.925        0.877      201.895       35.161        0.030      336.709        8.190      862.477
12/28/2014  17:32:00     -257.462      -41.774      -14.712       86.248       86.718       48.857     7438.766     7520.049     2387.046        4.279        0.867      260.829       48.769        0.035      336.519        7.872      862.504
12/28/2014  17:33:00     -211.289      -58.181       -9.510       81.471       87.251       41.438     6637.583     7612.782     1717.076        3.204        0.798      219.153       33.634        0.024      336.464        7.780      862.527
12/28/2014  17:34:00     -271.370     -114.212      -26.853      110.759       93.597       51.953    12267.614     8760.373     2699.155        5.556        1.186      294.425       36.648        0.015      336.509        7.855      862.522
12/28/2014  17:35:00     -308.470      -81.242       -8.030      136.167      149.562       72.722    18541.524    22368.809     5288.544        7.400        2.310      318.989       72.844        0.052      336.605        8.015      862.539
12/28/2014  17:36:00     -407.271      -82.079      -24.277      160.713      115.277       81.451    25828.535    13288.830     6634.305       10.946        2.288      415.459       97.329        0.055      336.563        7.944      862.516
12/28/2014  17:37:00     -230.357      -76.210      -25.620       91.572       74.072       50.663     8385.495     5486.708     2566.727        3.798        0.822      242.636       38.316        0.025      336.553        7.929      862.527
12/28/2014  17:38:00     -202.959      -41.463      -13.801       64.001       60.499       31.873     4096.123     3660.113     1015.864        2.594        0.439      207.151       22.144        0.011      336.447        7.752      862.525
12/28/2014  17:39:00     -175.208      -52.326       -3.236       75.168       54.357       35.935     5650.296     2954.634     1291.301        2.167        0.495      182.855       34.681        0.036      336.355        7.599      862.536
12/28/2014  17:40:00      -88.262      -22.488       -2.538       63.838       48.921       24.524     4075.350     2393.273      601.425        0.768        0.354       91.082       17.358        0.036      336.332        7.562      862.531
12/28/2014  17:41:00     -115.818      -16.233      -11.798       88.992       53.853       29.606     7919.549     2900.157      876.525        1.275        0.585      116.950       33.221        0.081      336.422        7.713      862.526
12/28/2014  17:42:00     -243.902     -138.721       -8.465       73.001       52.257       38.375     5329.184     2730.775     1472.616        4.417        0.477      280.592       34.382        0.015      336.132        7.225      862.547
12/28/2014  17:43:00     -178.541     -103.276       -5.665       93.724       69.584       48.903     8784.259     4841.949     2391.544        2.929        0.801      206.259       45.021        0.048      336.193        7.327      862.559
12/28/2014  17:44:00     -109.961      -34.607       13.030      111.716       82.748       56.101    12480.460     6847.192     3147.341        1.796        1.124      115.278       58.819        0.260      336.198        7.338      862.550
12/28/2014  17:45:00     -183.126     -107.788       -7.530       88.021       62.950       45.867     7747.614     3962.726     2103.770        2.951        0.691      212.493       46.906        0.049      336.433        7.727      862.560
12/28/2014  17:46:00     -225.838      -51.060       -8.365       79.524       69.154       40.477     6324.139     4782.289     1638.387        3.321        0.637      231.538       35.382        0.023      336.340        7.573      862.572
12/28/2014  17:47:00     -231.580      -79.159      -14.723       92.035       59.153       49.562     8470.441     3499.052     2456.420        3.727        0.721      244.735       45.368        0.034      336.297        7.501      862.598
12/28/2014  17:48:00     -320.752     -107.903      -30.648      116.501       84.197       56.169    13572.497     7089.211     3154.956        6.964        1.191      338.415       58.961        0.030      336.406        7.683      862.623
12/28/2014  17:49:00     -170.635      -12.864      -11.546       90.867       75.316       51.228     8256.798     5672.485     2624.328        2.298        0.828      171.119       49.853        0.085      336.541        7.909      862.606
12/28/2014  17:50:00     -216.018      -83.673       -6.337       81.973       65.178       34.685     6719.612     4248.205     1203.049        3.294        0.609      231.657       35.962        0.024      336.420        7.706      862.600
12/28/2014  17:51:00     -261.567      -79.294       -3.633       98.382       75.643       44.878     9679.035     5721.801     2013.996        4.606        0.871      273.322       40.460        0.022      336.422        7.708      862.620
12/28/2014  17:52:00     -285.515      -36.581      -23.330      108.299       95.595       49.076    11728.694     9138.415     2408.427        5.333        1.164      287.849       56.089        0.038      336.475        7.799      862.626
12/28/2014  17:53:00     -403.169      -71.006      -34.285      130.054      101.512       53.924    16914.064    10304.688     2907.849        9.944        1.506      409.374       56.674        0.019      336.403        7.678      862.641
12/28/2014  17:54:00     -320.274      -35.755      -13.396      151.368       92.593       53.481    22912.245     8573.401     2860.182        6.918        1.717      322.264       66.347        0.042      336.378        7.636      862.671
12/28/2014  17:55:00     -294.207      -37.466      -12.742      156.713       89.706       59.387    24559.096     8047.151     3526.791        6.212        1.807      296.583       78.740        0.070      336.343        7.578      862.649
12/28/2014  17:56:00     -284.158       33.569      -38.792      130.008       96.382       48.975    16902.105     9289.415     2398.582        5.598        1.430      286.134       57.785        0.041      336.537        7.902      862.668
12/28/2014  17:57:00     -175.451      -65.058      -10.727      106.782       78.742       42.173    11402.472     6200.338     1778.592        2.725        0.969      187.125       37.918        0.041      336.502        7.845      862.650
12/28/2014  17:58:00     -258.119      -78.276        0.563       92.235       69.550       51.471     8507.344     4837.221     2649.274        4.437        0.800      269.727       53.597        0.039      336.278        7.470      862.675
12/28/2014  17:59:00     -284.343     -116.146       -6.451      103.071      104.694       63.768    10623.624    10960.841     4066.315        6.001        1.283      307.150       63.750        0.043      336.301        7.507      862.690
12/28/2014  18:00:00     -187.875      -63.118       10.016      113.351       94.620       55.194    12848.443     8952.976     3046.403        3.211        1.242      198.194       61.833        0.097      336.275        7.465      862.682
12/28/2014  18:01:00     -435.036      -16.944      -29.467      149.315      137.069       61.345    22294.974    18787.976     3763.230       11.762        2.242      435.365       54.708        0.016      336.401        7.673      862.682
12/28/2014  18:02:00     -366.774     -118.310       -1.112      225.036      144.014       76.525    50641.031    20739.940     5856.142       11.286        3.862      385.383       72.551        0.035      336.390        7.655      862.638
12/28/2014  18:03:00     -366.800      -28.840      -19.496      135.472       99.402       58.211    18352.728     9880.824     3388.578        8.368        1.581      367.932       57.692        0.025      336.387        7.650      862.634
12/28/2014  18:04:00     -227.214       13.413      -16.216       52.211       56.338       31.711     2726.039     3173.952     1005.563        2.949        0.345      227.609       28.667        0.016      336.416        7.700      862.614
12/28/2014  18:05:00     -208.450     -105.929       -8.851      107.313       83.962       47.177    11515.974     7049.605     2225.627        3.777        1.040      233.821       46.738        0.040      336.260        7.439      862.582
12/28/2014  18:06:00     -363.209     -135.241       -9.915      143.330      104.996       65.179    20543.612    11024.167     4248.306        9.306        1.791      387.570       62.942        0.026      336.201        7.340      862.583
12/28/2014  18:07:00     -214.352      -21.921        0.522      119.464       78.862       57.487    14271.588     6219.145     3304.788        3.511        1.190      215.470       70.512        0.107      336.083        7.144      862.614
12/28/2014  18:08:00     -169.541        3.231        3.232      135.806      121.254       75.336    18443.189    14702.484     5675.517        3.379        1.941      169.572       73.652        0.189      336.192        7.326      862.595
12/28/2014  18:09:00     -173.178      -10.704       -6.892      132.903       58.454       47.443    17663.280     3416.821     2250.807        2.674        1.167      173.509       68.051        0.154      336.182        7.310      862.612
12/28/2014  18:10:00     -228.022      -60.128      -19.088      122.517       75.177       51.482    15010.381     5651.587     2650.436        3.964        1.166      235.816       60.773        0.066      336.008        7.017      862.607
12/28/2014  18:11:00     -399.138     -107.475       -9.210      142.220       98.537       57.488    20226.566     9709.559     3304.874       10.209        1.662      413.355       48.678        0.014      336.011        7.023      862.608
12/28/2014  18:12:00     -287.819      -83.181        8.977      137.249      110.640       54.799    18837.189    12241.130     3002.949        6.195        1.704      299.598       58.951        0.039      336.013        7.028      862.610
12/28/2014  18:13:00     -350.180      -72.747      -17.681      127.189      130.200       65.444    16176.946    16952.074     4282.939        8.281        1.871      357.657       63.997        0.032      336.142        7.241      862.575
12/28/2014  18:14:00     -292.995      -76.345      -29.798      137.005      103.383       60.497    18770.237    10688.022     3659.893        6.283        1.656      302.778       76.963        0.065      336.111        7.191      862.568
12/28/2014  18:15:00     -232.385      -28.063      -26.187       89.132      103.553       42.433     7944.534    10723.195     1800.562        3.797        1.023      234.074       37.189        0.025      336.086        7.148      862.555
12/28/2014  18:16:00     -223.076      -85.790       -5.772       68.424       69.491       37.918     4681.840     4828.945     1437.738        3.405        0.547      239.004       33.590        0.020      335.902        6.840      862.574
12/28/2014  18:17:00     -280.177      -50.076       -6.706      122.895       89.194       55.373    15103.166     7955.562     3066.218        5.358        1.306      284.616       62.874        0.049      335.905        6.847      862.608
12/28/2014  18:18:00     -311.806      -67.041      -13.267      150.852      111.828       58.358    22756.197    12505.540     3405.641        7.027        1.933      318.931       62.562        0.038      335.854        6.760      862.577
12/28/2014  18:19:00     -500.760      -79.615      -26.369      181.362      165.169       73.717    32892.159    27280.789     5434.189       16.169        3.280      507.050       82.926        0.027      335.966        6.947      862.601
12/28/2014  18:20:00     -440.706     -109.244       -8.138      141.548      103.739       68.134    20035.908    10761.728     4642.252       12.082        1.772      454.044       74.672        0.027      335.920        6.871      862.627
12/28/2014  18:21:00     -374.570      -89.947      -25.102      144.189      111.767       74.165    20790.334    12491.774     5500.434        9.390        1.939      385.219       82.222        0.046      335.934        6.895      862.646
12/28/2014  18:22:00     -417.599     -103.470       -6.408      180.161      150.348       79.999    32457.931    22604.447     6399.786       12.329        3.073      430.227       86.365        0.040      335.992        6.991      862.703
12/28/2014  18:23:00     -323.771      -65.206        1.282      238.963      125.187       80.717    57103.344    15671.818     6515.312        9.417        3.965      330.271       87.145        0.070      336.018        7.035      862.725
12/28/2014  18:24:00     -267.492     -104.794       -6.470      226.865      126.190       76.245    51467.509    15923.929     5813.365        7.788        3.660      287.287       89.837        0.098      335.922        6.875      862.732
12/28/2014  18:25:00     -351.671      -86.814      -23.024      202.884      117.482       80.026    41161.755    13801.965     6404.150        9.654        3.068      362.228      103.628        0.082      335.926        6.881      862.724
12/28/2014  18:26:00     -407.025     -108.186      -25.571      152.018      161.248       77.182    23109.353    26000.930     5957.108       11.654        2.753      421.157       80.807        0.037      335.937        6.902      862.721
12/28/2014  18:27:00     -349.462     -191.712      -14.113      166.544      117.249       85.117    27736.784    13747.245     7244.850       10.389        2.436      398.594       86.265        0.047      335.879        6.804      862.678
12/28/2014  18:28:00     -293.573     -170.273      -16.208      217.979      142.186       85.114    47515.008    20216.876     7244.397        9.519        3.749      339.379       82.530        0.059      335.850        6.757      862.658
12/28/2014  18:29:00     -392.786     -231.248       -6.579      191.493      200.658       98.810    36669.512    40263.452     9763.506       14.723        4.335      455.803       95.896        0.044      335.890        6.821      862.617
12/28/2014  18:30:00     -402.683     -207.027      -14.021      239.729      211.288      106.573    57469.816    44642.599    11357.770       15.932        5.674      452.784      120.188        0.070      335.961        6.940      862.615
12/28/2014  18:31:00     -473.746     -222.813      -30.314      211.433      198.839       94.502    44704.097    39537.140     8930.630       18.407        4.659      523.527      115.549        0.049      335.977        6.967      862.665
12/28/2014  18:32:00     -400.567      -93.569      -33.105      199.231      165.724       89.113    39692.846    27464.589     7941.090       12.269        3.755      411.350       94.043        0.052      336.034        7.061      862.717
12/28/2014  18:33:00     -323.597     -177.360      -10.265      205.052      173.918       84.355    42046.175    30247.446     7115.825       10.783        3.970      369.014      108.866        0.087      335.996        7.000      862.695
12/28/2014  18:34:00     -308.183     -144.516        0.329      186.293      141.666       81.595    34705.137    20069.222     6657.779        8.863        3.072      340.385       83.565        0.060      336.030        7.055      862.724
12/28/2014  18:35:00     -449.226     -254.769      -13.582      226.741      205.085      118.729    51411.382    42059.793    14096.482       18.721        5.378      516.441      119.853        0.054      336.009        7.021      862.729
12/28/2014  18:36:00     -369.980     -281.515      -14.527      186.148      177.873       95.352    34651.145    31638.768     9092.032       14.585        3.769      464.904       81.166        0.030      336.082        7.141      862.668
12/28/2014  18:37:00     -362.639     -273.124       -1.753      173.675      148.728       96.374    30163.087    22120.163     9287.856       13.383        3.079      453.986       94.940        0.044      335.954        6.928      862.657
12/28/2014  18:38:00     -342.084     -129.652      -16.025      186.222      145.792       83.910    34678.599    21255.447     7040.894        9.852        3.149      365.830      100.260        0.075      335.912        6.860      862.672
12/28/2014  18:39:00     -221.052      -93.686        6.650      196.929      167.031       92.892    38780.970    27899.481     8628.884        6.648        3.765      240.086      107.549        0.201      335.929        6.887      862.643
12/28/2014  18:40:00     -359.486     -174.845       -5.484      220.405      155.064       98.138    48578.322    24044.993     9630.979       12.103        4.113      399.752      123.498        0.095      335.918        6.869      862.645
12/28/2014  18:41:00     -502.516     -123.374      -17.568      211.802      191.633      115.793    44859.887    36723.374    13408.033       18.150        4.750      517.439      112.942        0.048      335.951        6.924      862.671
12/28/2014  18:42:00     -415.912      -40.839      -32.956      219.099      153.795      102.254    48004.274    23653.030    10455.853       12.891        4.106      417.913      102.012        0.060      335.923        6.877      862.681
12/28/2014  18:43:00     -334.892     -211.546      -19.340      153.271      119.526       81.589    23492.094    14286.558     6656.691       10.085        2.222      396.111       70.971        0.032      335.826        6.715      862.684
12/28/2014  18:44:00     -287.747     -209.447       -5.485      143.209      144.188       75.802    20508.712    20790.179     5745.998        8.686        2.352      355.902       70.885        0.040      335.816        6.698      862.664
12/28/2014  18:45:00     -403.896     -214.195      -18.516      184.150      171.691       84.966    33911.075    29477.874     7219.284       13.997        3.530      457.177       85.823        0.035      335.912        6.858      862.641
12/28/2014  18:46:00     -351.561     -272.047        3.644      246.875      181.992      105.455    60947.075    33121.233    11120.763       15.138        5.259      444.527      119.742        0.073      335.932        6.891      862.614
12/28/2014  18:47:00     -426.684     -242.349      -34.407      151.175      150.755       78.739    22853.909    22727.169     6199.811       14.687        2.589      490.706       72.116        0.022      335.910        6.854      862.626
12/28/2014  18:48:00     -399.794     -139.532      -42.197      181.447      149.655       68.166    32923.104    22396.486     4646.574       12.051        2.998      423.443       75.122        0.031      335.888        6.819      862.651
12/28/2014  18:49:00     -279.608      -48.056        0.922      186.571      159.592       95.445    34808.883    25469.500     9109.781        7.493        3.469      283.708       93.678        0.109      335.876        6.799      862.633
12/28/2014  18:50:00     -316.774      -88.724      -12.492      158.243      139.863       79.489    25040.876    19561.750     6318.517        7.964        2.546      328.964       75.611        0.053      335.912        6.859      862.639
12/28/2014  18:51:00     -276.826      -57.526        2.215      174.005      171.628       81.532    30277.684    29456.322     6647.425        7.315        3.319      282.740       75.017        0.070      335.891        6.824      862.668
12/28/2014  18:52:00     -405.231     -148.316      -22.267      206.421      189.920       98.821    42609.664    36069.448     9765.508       13.756        4.422      431.521       97.699        0.051      335.865        6.781      862.682
12/28/2014  18:53:00     -456.326      -94.638      -19.823      197.664      133.839       76.878    39071.202    17912.945     5910.268       14.023        3.145      466.037       95.086        0.042      335.864        6.777      862.654
12/28/2014  18:54:00     -426.570       13.683      -27.145      166.550      160.505       81.043    27738.889    25761.971     6567.910       12.147        3.003      426.789       81.698        0.037      335.941        6.909      862.666
12/28/2014  18:55:00     -410.066     -262.642      -14.529      170.148      146.614       82.893    28950.259    21495.743     6871.308       14.732        2.866      486.965       80.314        0.027      335.761        6.606      862.682
12/28/2014  18:56:00     -588.879     -269.429      -40.841      200.641      145.255       87.425    40256.762    21099.118     7643.060       24.500        3.450      647.588       87.945        0.018      335.910        6.854      862.667
12/28/2014  18:57:00     -335.614     -123.626       -5.161      242.440      169.941       91.432    58777.025    28880.113     8359.855       11.196        4.801      357.659      101.249        0.080      335.766        6.615      862.665
12/28/2014  18:58:00     -354.795     -253.294      -21.272      210.559      169.742      109.383    44334.946    28812.468    11964.636       13.778        4.256      435.933      113.849        0.068      335.767        6.616      862.674
12/28/2014  18:59:00     -257.250     -139.015       10.310      207.936      161.121       92.731    43237.393    25959.842     8599.045        8.169        3.890      292.408      100.528        0.118      335.760        6.606      862.648
12/28/2014  19:00:00     -368.716      -14.293      -20.131      178.583      163.836       81.543    31891.918    26842.090     6649.284       10.096        3.269      368.992       86.023        0.054      335.839        6.737      862.656
12/28/2014  19:01:00     -524.054      -79.199      -46.938      207.106      143.824       90.384    42892.978    20685.229     8169.259       17.741        3.587      530.005       98.695        0.035      335.812        6.693      862.660
12/28/2014  19:02:00     -505.690      -95.575      -34.404      127.280      130.431       64.636    16200.296    17012.243     4177.872       15.171        1.870      514.643       55.758        0.012      335.769        6.619      862.666
12/28/2014  19:03:00     -411.842      -67.444      -14.124      136.470      120.984       65.813    18623.956    14637.066     4331.309       10.597        1.880      417.328       65.682        0.025      335.738        6.567      862.671
12/28/2014  19:04:00     -362.290      -18.847       -8.714      135.134      103.812       69.582    18261.076    10776.908     4841.653        8.278        1.694      362.779       80.868        0.050      335.816        6.699      862.677
12/28/2014  19:05:00     -558.971      -85.234      -43.785      172.091      157.677       90.579    29615.217    24862.142     8204.484       19.214        3.134      565.432       84.954        0.023      335.918        6.869      862.665
12/28/2014  19:06:00     -433.513     -126.387      -44.142      156.314      141.582       65.745    24434.056    20045.336     4322.432       12.732        2.440      451.561       61.280        0.018      335.866        6.781      862.626
12/28/2014  19:07:00     -419.323     -139.690      -56.703      176.841      123.599       83.654    31272.815    15276.687     6997.994       12.604        2.677      441.979       85.632        0.038      335.831        6.723      862.580
12/28/2014  19:08:00     -464.382     -101.974      -23.922      153.662      120.732       71.786    23612.053    14576.207     5153.233       13.497        2.167      475.446       78.708        0.027      335.706        6.515      862.577
12/28/2014  19:09:00     -400.523      -64.478      -12.775      157.154      102.182       77.338    24697.368    10441.241     5981.207       10.292        2.056      405.680       85.714        0.045      335.606        6.347      862.601
12/28/2014  19:10:00     -330.728      -53.455       12.614      207.651      145.109       81.650    43118.880    21056.700     6666.795        9.161        3.542      335.020      101.300        0.091      335.561        6.275      862.600
12/28/2014  19:11:00     -446.998      -91.486      -37.697      167.454      134.307       75.647    28040.952    18038.277     5722.489       13.069        2.590      456.264       84.047        0.034      335.632        6.391      862.614
12/28/2014  19:12:00     -435.828      -82.724      -21.796      207.909      131.718       86.726    43226.069    17349.610     7521.408       13.267        3.405      443.609      102.237        0.053      335.654        6.428      862.649
12/28/2014  19:13:00     -537.862     -127.834      -28.094      216.090      200.011      103.641    46694.876    40004.221    10741.416       20.191        4.872      552.845      120.281        0.047      335.675        6.464      862.651
12/28/2014  19:14:00     -419.722      -63.529      -24.276      205.931      134.755       85.323    42407.530    18158.835     7280.073       12.431        3.392      424.503      105.088        0.061      335.707        6.516      862.646
12/28/2014  19:15:00     -513.915     -107.355      -36.849      130.810      123.608       75.022    17111.247    15278.923     5628.253       15.750        1.901      525.008       64.477        0.015      335.685        6.480      862.633
12/28/2014  19:16:00     -406.376      -86.050      -16.292      147.943      145.954       77.704    21887.080    21302.514     6037.908       11.101        2.461      415.387       79.599        0.037      335.629        6.388      862.645
12/28/2014  19:17:00     -431.302      -65.540      -22.664      226.912      135.985       88.100    51489.153    18492.047     7761.589       13.427        3.887      436.253      108.062        0.061      335.666        6.450      862.636
12/28/2014  19:18:00     -395.398     -136.230      -20.187      166.156      133.222       76.499    27607.737    17748.082     5852.112       11.325        2.560      418.208       74.517        0.032      335.621        6.374      862.639
12/28/2014  19:19:00     -419.680      -75.335      -23.933      163.616      132.278       80.104    26770.157    17497.394     6416.635       11.652        2.534      426.388       86.038        0.041      335.593        6.327      862.668
12/28/2014  19:20:00     -500.005      -96.521      -23.882      173.791      127.927       78.414    30203.159    16365.363     6148.774       15.629        2.636      509.236       83.402        0.027      335.552        6.259      862.673
12/28/2014  19:21:00     -319.385      -83.364      -12.193      162.620      144.761       68.894    26445.263    20955.715     4746.318        8.062        2.607      330.085       73.883        0.050      335.590        6.321      862.642
12/28/2014  19:22:00     -443.897      -28.680      -15.977      222.220      148.838       82.747    49381.695    22152.801     6847.121       13.824        3.919      444.823      104.867        0.056      335.585        6.315      862.666
12/28/2014  19:23:00     -394.469     -171.553      -24.471      192.060      125.996       83.327    36887.034    15875.015     6943.454       12.266        2.985      430.159       67.913        0.025      335.460        6.106      862.683
12/28/2014  19:24:00     -448.022      -51.088      -20.904      190.828      146.745       87.157    36415.485    21533.974     7596.273       13.464        3.277      450.925      101.523        0.051      335.463        6.110      862.730
12/28/2014  19:25:00     -497.235     -106.155      -23.906      181.954      157.472       81.456    33107.379    24797.572     6635.013       16.180        3.227      508.440       91.546        0.032      335.477        6.134      862.762
12/28/2014  19:26:00     -411.633     -110.110       -7.684      171.134      124.304       64.342    29286.780    15451.593     4139.916       11.524        2.444      426.106       77.871        0.033      335.408        6.018      862.762
12/28/2014  19:27:00     -476.584     -180.785      -19.120      218.179      183.788       83.409    47602.248    33778.209     6957.000       17.424        4.417      509.721       96.325        0.036      335.440        6.072      862.748
12/28/2014  19:28:00     -458.600     -111.694      -29.685      179.888      139.887       89.841    32359.603    19568.430     8071.323       14.182        3.000      472.006      102.894        0.048      335.433        6.061      862.735
12/28/2014  19:29:00     -437.600     -115.168      -25.762      191.496      150.796       84.078    36670.544    22739.326     7069.052       13.594        3.324      452.502       82.750        0.033      335.483        6.143      862.733
12/28/2014  19:30:00     -442.155     -137.722      -32.105      161.806      127.294       72.601    26181.030    16203.752     5270.923       13.157        2.383      463.108       78.339        0.029      335.395        5.997      862.722
12/28/2014  19:31:00     -451.833     -111.922      -30.400      201.247      159.320       80.915    40500.394    25382.812     6547.246       14.500        3.622      465.489       94.295        0.041      335.410        6.022      862.705
12/28/2014  19:32:00     -351.723      -89.550       -7.877      149.539      148.054       80.783    22362.034    21919.963     6525.946        9.129        2.540      362.944       75.037        0.043      335.434        6.063      862.708
12/28/2014  19:33:00     -554.462      -31.929      -54.233      171.832      151.982       77.421    29526.243    23098.401     5993.992       18.499        2.931      555.380       88.735        0.026      335.548        6.252      862.755
12/28/2014  19:34:00     -442.462     -129.462      -16.214      192.414      158.309       86.467    37022.959    25061.773     7476.617       14.117        3.478      461.013       82.540        0.032      335.496        6.165      862.755
12/28/2014  19:35:00     -496.716     -198.319      -28.993      191.173      119.858       82.219    36547.156    14365.840     6760.020       17.227        2.884      534.843       87.588        0.027      335.453        6.094      862.745
12/28/2014  19:36:00     -360.115     -114.212      -15.680      151.705      124.724       71.507    23014.512    15556.037     5113.244        9.332        2.184      377.793       61.450        0.026      335.409        6.020      862.766
12/28/2014  19:37:00     -553.727      -79.608      -51.885      149.712      140.994       76.638    22413.620    19879.313     5873.368       18.190        2.408      559.421       69.535        0.015      335.410        6.022      862.756
12/28/2014  19:38:00     -466.605     -100.074      -32.688      141.946      145.805       73.857    20148.581    21259.002     5454.910       13.782        2.343      477.216       70.247        0.022      335.378        5.967      862.739
12/28/2014  19:39:00     -446.758     -208.734      -33.387      137.921      125.673       73.844    19022.313    15793.654     5452.873       14.227        2.013      493.116       44.064        0.008      335.276        5.797      862.727
12/28/2014  19:40:00     -506.249     -100.950      -38.037      173.576      114.618       76.660    30128.620    13137.180     5876.792       15.852        2.457      516.216       74.712        0.021      335.276        5.799      862.767
12/28/2014  19:41:00     -496.693     -116.568      -39.933      154.816      131.114       71.863    23968.103    17190.969     5164.354       15.410        2.316      510.188       77.110        0.023      335.296        5.831      862.781
12/28/2014  19:42:00     -384.189     -130.162      -11.183      180.669      147.946       69.278    32641.148    21887.935     4799.466       11.199        2.966      405.640       68.791        0.029      335.233        5.728      862.790
12/28/2014  19:43:00     -530.319     -136.288      -38.368      135.278      112.477       70.668    18300.056    12650.972     4993.919       16.861        1.797      547.552       66.638        0.015      335.248        5.753      862.781
12/28/2014  19:44:00     -435.480      -97.122      -27.498      191.538      151.247       83.655    36686.654    22875.712     6998.149       13.318        3.328      446.179       96.444        0.047      335.200        5.673      862.759
12/28/2014  19:45:00     -470.600     -135.925      -32.876      123.591      120.628       69.365    15274.647    14551.125     4811.479       13.782        1.732      489.837       64.878        0.018      335.169        5.623      862.777
12/28/2014  19:46:00     -361.480     -103.814      -19.006      114.621      124.889       64.321    13137.989    15597.186     4137.194        8.733        1.644      376.092       58.870        0.025      335.197        5.669      862.778
12/28/2014  19:47:00     -401.349      -96.429      -33.248      139.030      120.515       72.024    19329.273    14523.767     5187.520       10.525        1.952      412.771       73.542        0.032      335.208        5.687      862.774
12/28/2014  19:48:00     -327.906      -96.230       -2.822      139.826      102.380       79.496    19551.411    10481.737     6319.570        7.656        1.818      341.735       88.603        0.067      335.161        5.609      862.769
12/28/2014  19:49:00     -423.618     -135.222      -29.819      132.358       98.624       69.680    17518.667     9726.634     4855.351       11.536        1.605      444.677       66.315        0.022      335.127        5.554      862.750
12/28/2014  19:50:00     -502.284      -90.081      -34.736      188.884      180.835       84.714    35677.160    32701.337     7176.460       16.857        3.778      510.298       93.934        0.034      335.174        5.631      862.783
12/28/2014  19:51:00     -340.899     -124.523      -14.979      150.630      134.385       77.275    22689.334    18059.415     5971.484        8.932        2.336      362.930       61.259        0.028      335.155        5.599      862.792
12/28/2014  19:52:00     -499.947     -122.170      -32.901      155.426      106.895       78.802    24157.262    11426.597     6209.818       15.387        2.090      514.658       70.080        0.019      335.079        5.473      862.813
12/28/2014  19:53:00     -466.480      -82.104      -40.361      200.150      145.376       86.571    40060.005    21134.065     7494.583       14.732        3.434      473.650       98.739        0.043      335.083        5.480      862.793
12/28/2014  19:54:00     -423.740      -97.630      -67.083      101.364      116.484       55.503    10274.728    13568.566     3080.569       11.025        1.346      434.841       49.343        0.013      335.048        5.421      862.771
12/28/2014  19:55:00     -351.816     -114.178      -10.165      159.114      134.764       73.262    25317.237    18161.434     5367.348        9.287        2.442      369.880       73.381        0.039      334.975        5.300      862.762
12/28/2014  19:56:00     -514.246     -103.932      -30.586      190.391      185.530       90.682    36248.836    34421.417     8223.246       17.752        3.945      524.643      100.254        0.037      335.086        5.484      862.745
12/28/2014  19:57:00     -450.681     -136.960      -36.807      160.645      160.716       92.754    25806.867    25829.613     8603.335       14.172        3.012      471.032       91.097        0.037      335.076        5.469      862.738
12/28/2014  19:58:00     -467.054     -164.271      -21.544      165.834      158.192       74.816    27500.895    25024.860     5597.484       15.184        2.906      495.100       70.251        0.020      335.061        5.444      862.742
12/28/2014  19:59:00     -391.100     -100.917      -14.289      169.233      160.833       69.605    28639.925    25867.151     4844.788       11.134        2.968      403.910       73.995        0.034      335.131        5.560      862.732
12/28/2014  20:00:00     -464.672     -127.223      -23.092      149.931      162.923       83.376    22479.346    26543.907     6951.604       14.430        2.799      481.774       72.618        0.023      335.082        5.477      862.740
12/28/2014  20:01:00     -512.853     -113.417      -27.496      166.894      133.271       74.170    27853.475    17761.144     5501.149       16.387        2.556      525.244       75.916        0.021      335.065        5.450      862.761
12/28/2014  20:02:00     -407.496     -114.612      -19.814      165.543      138.928       76.882    27404.426    19301.101     5910.826       11.609        2.631      423.307       74.577        0.031      335.053        5.430      862.768
12/28/2014  20:03:00     -444.357     -130.924      -26.711      144.215      161.425       85.730    20798.068    26057.979     7349.607       13.475        2.710      463.243       77.160        0.028      335.113        5.531      862.765
12/28/2014  20:04:00     -391.228     -144.776       -0.824      194.596      161.963       96.878    37867.480    26231.927     9385.430       12.374        3.674      417.156      102.983        0.061      335.115        5.532      862.775
12/28/2014  20:05:00     -516.410     -221.752      -31.193      141.509      130.384       71.088    20024.927    17000.021     5053.486       17.944        2.104      562.009       68.612        0.015      335.108        5.521      862.806
12/28/2014  20:06:00     -469.544      -81.467       -8.924      201.411      148.730       77.498    40566.512    22120.608     6005.865       14.793        3.435      476.559       85.903        0.032      335.140        5.574      862.839
12/28/2014  20:07:00     -454.448      -48.659      -17.369      193.821      150.924       85.314    37566.766    22777.962     7278.454       13.839        3.381      457.045       95.957        0.044      335.095        5.501      862.867
12/28/2014  20:08:00     -466.716      -79.196      -18.010      218.283      133.324       96.486    47647.571    17775.335     9309.584       14.956        3.737      473.388      106.395        0.051      335.143        5.578      862.857
12/28/2014  20:09:00     -422.111      -65.685       -2.397      196.217      162.306       91.115    38501.005    26343.293     8301.968       12.781        3.657      427.191      108.065        0.064      335.110        5.524      862.864
12/28/2014  20:10:00     -417.143      -91.151      -22.004      213.652      143.773       93.463    45647.297    20670.695     8735.395       12.891        3.753      426.986      106.627        0.062      335.136        5.568      862.878
12/28/2014  20:11:00     -534.857     -103.950      -18.465      202.355      150.902       86.729    40947.626    22771.404     7521.933       18.422        3.562      544.864       95.726        0.031      335.143        5.578      862.894
12/28/2014  20:12:00     -520.693      -56.149      -45.187      174.099      122.271       78.403    30310.525    14950.100     6147.076       16.385        2.570      523.712       76.394        0.021      335.174        5.630      862.890
12/28/2014  20:13:00     -477.183      -86.553      -20.109      241.183      178.880       91.488    58169.142    31998.051     8370.098       16.705        4.927      484.969      112.406        0.054      335.323        5.878      862.907
12/28/2014  20:14:00     -429.307      -27.843      -20.664      178.079      163.088       83.972    31712.122    26597.685     7051.380       12.542        3.268      430.209       91.917        0.046      335.273        5.794      862.922
12/28/2014  20:15:00     -464.799      -70.658      -20.613      223.175      168.148       76.400    49807.241    28273.602     5836.892       15.267        4.196      470.139       84.565        0.032      335.291        5.824      862.922
12/28/2014  20:16:00     -345.631      -81.496        7.912      195.535      167.161       93.101    38233.900    27942.761     8667.727       10.049        3.742      355.109      102.408        0.083      335.204        5.679      862.928
12/28/2014  20:17:00     -482.814     -104.449      -22.683      184.711      117.465       77.338    34118.190    13798.039     5981.172       14.920        2.695      493.982       88.641        0.032      335.172        5.628      862.942
12/28/2014  20:18:00     -423.355      -88.841      -27.356      181.150      108.466       72.105    32815.460    11764.865     5199.125       11.882        2.489      432.576       79.013        0.033      335.119        5.539      862.946
12/28/2014  20:19:00     -486.675     -133.620      -30.017      197.280      149.174       80.058    38919.367    22252.968     6409.268       16.158        3.379      504.685       83.268        0.027      335.198        5.670      862.946
12/28/2014  20:20:00     -412.496      -94.901      -30.007      207.475      122.609       85.131    43046.035    15033.048     7247.210       12.268        3.266      423.272      101.819        0.058      335.141        5.577      862.943
12/28/2014  20:21:00     -409.679     -179.639      -39.322      157.978      132.050       75.848    24957.072    17437.296     5752.910       12.489        2.407      447.333       64.415        0.021      335.080        5.475      862.946
12/28/2014  20:22:00     -462.120     -129.162      -35.081      140.128       95.199       70.106    19635.814     9062.838     4914.919       13.253        1.681      479.830       62.529        0.017      335.034        5.397      862.980
12/28/2014  20:23:00     -374.408     -128.260      -19.847      187.539      116.943       70.567    35170.819    13675.730     4979.747       10.542        2.691      395.767       90.725        0.053      334.938        5.239      862.995
12/28/2014  20:24:00     -556.241     -210.373      -30.721      179.666      116.733       73.994    32279.985    13626.644     5475.160       20.298        2.569      594.694       94.178        0.025      334.993        5.331      863.024
12/28/2014  20:25:00     -511.235     -137.918      -33.047      182.057      141.883       80.069    33144.918    20130.888     6410.981       17.057        2.984      529.512       79.560        0.023      334.987        5.321      863.027
12/28/2014  20:26:00     -469.146     -192.375      -38.867      170.087      147.839       81.785    28929.558    21856.265     6688.739       15.803        2.874      507.056       81.883        0.026      334.986        5.319      863.030
12/28/2014  20:27:00     -461.943     -137.347      -40.515      144.408      112.302       71.552    20853.770    12611.720     5119.758       13.623        1.929      481.929       63.323        0.017      334.969        5.291      863.025
12/28/2014  20:28:00     -534.894     -100.897      -25.501      160.668      129.488       82.934    25814.252    16767.056     6878.018       17.319        2.473      544.327       79.155        0.021      334.999        5.340      863.046
12/28/2014  20:29:00     -450.494      -45.303      -37.961      153.935      135.187       80.932    23695.866    18275.576     6549.966       12.747        2.426      452.766       81.686        0.033      334.969        5.289      863.055
12/28/2014  20:30:00     -494.167     -123.475      -24.688      160.286      125.609       64.031    25691.565    15777.698     4099.946       15.280        2.278      509.359       69.291        0.019      334.919        5.206      863.057
12/28/2014  20:31:00     -442.375     -123.279      -11.989      165.690      179.938       87.105    27453.193    32377.779     7587.202       13.921        3.371      459.231       87.412        0.036      334.910        5.192      863.059
12/28/2014  20:32:00     -441.998     -108.074      -26.811      160.650      137.651       67.364    25808.274    18947.877     4537.911       12.852        2.465      455.019       72.775        0.026      334.970        5.292      863.076
12/28/2014  20:33:00     -407.793     -154.561      -27.897      148.130      122.592       76.641    21942.426    15028.792     5873.787       11.689        2.142      436.101       78.870        0.033      334.955        5.267      863.059
12/28/2014  20:34:00     -441.790      -67.698      -42.153      154.060      121.968       72.955    23734.587    14876.126     5322.375       12.273        2.197      446.947       73.812        0.027      334.944        5.248      863.063
12/28/2014  20:35:00     -461.518     -103.687      -29.639      164.818      152.420       84.190    27165.106    23231.924     7087.872       14.105        2.874      473.022       76.288        0.026      334.853        5.097      863.071
12/28/2014  20:36:00     -443.191     -166.392      -13.717      167.599      152.743       79.357    28089.567    23330.552     6297.545       14.099        2.886      473.397       77.499        0.027      334.799        5.007      863.074
12/28/2014  20:37:00     -438.653      -90.081      -76.511      126.799      137.205       71.061    16078.013    18825.280     5049.605       12.316        1.998      447.807       64.580        0.021      334.877        5.135      863.073
12/28/2014  20:38:00     -507.567      -89.557      -45.188      121.616       98.431       68.214    14790.349     9688.665     4653.174       14.840        1.457      515.407       60.237        0.014      334.820        5.041      863.075
12/28/2014  20:39:00     -549.005      -60.375      -39.175      189.539      129.855       83.160    35925.023    16862.330     6915.627       18.313        2.985      552.315       82.223        0.022      334.865        5.116      863.081
12/28/2014  20:40:00     -436.317     -139.069      -20.942      170.383      139.464       90.017    29030.227    19450.301     8103.134       13.336        2.829      457.944       83.630        0.033      334.873        5.130      863.072
12/28/2014  20:41:00     -402.426      -65.945      -44.222      138.923      176.182       87.793    19299.697    31040.161     7707.658       11.314        2.902      407.793       70.368        0.030      334.965        5.283      863.081
12/28/2014  20:42:00     -364.346     -108.454      -30.197      165.158      135.705       83.911    27277.110    18415.928     7041.123        9.907        2.637      380.145       58.431        0.024      334.957        5.269      863.083
12/28/2014  20:43:00     -413.454      -89.852        1.401      204.580      133.159       92.290    41853.077    17731.282     8517.385       12.355        3.405      423.105      104.965        0.062      334.947        5.254      863.074
12/28/2014  20:44:00     -475.887     -133.057      -20.946      177.435      125.193       76.371    31483.038    15673.353     5832.587       14.879        2.649      494.138       74.010        0.022      335.032        5.395      863.081
12/28/2014  20:45:00     -455.947     -140.484      -32.521      179.393      138.051       76.495    32181.975    19058.038     5851.501       14.287        2.855      477.098       67.622        0.020      334.990        5.325      863.093
12/28/2014  20:46:00     -464.437     -119.046      -45.024      105.039      125.149       71.250    11033.153    15662.200     5076.603       13.183        1.589      479.451       62.570        0.017      334.924        5.215      863.103
12/28/2014  20:47:00     -412.340      -98.587      -16.994      127.607      141.698       73.518    16283.510    20078.372     5404.852       11.089        2.088      423.962       63.655        0.023      334.970        5.292      863.113
12/28/2014  20:48:00     -383.196      -94.239      -22.635      172.896      144.136       86.485    29893.027    20775.044     7479.738       10.718        2.907      394.614       85.567        0.047      334.943        5.246      863.140
12/28/2014  20:49:00     -377.943      -97.279       -8.973      181.186      148.909       79.938    32828.334    22173.829     6390.091       10.688        3.070      390.261       72.837        0.035      334.953        5.263      863.143
12/28/2014  20:50:00     -385.533     -103.154      -22.331      164.824      127.867       72.853    27166.952    16349.994     5307.549       10.429        2.441      399.095       76.634        0.037      334.961        5.278      863.160
12/28/2014  20:51:00     -399.732      -66.229      -18.057      138.313      129.588       66.134    19130.605    16793.133     4373.725       10.239        2.015      405.181       62.352        0.024      334.906        5.185      863.162
12/28/2014  20:52:00     -333.758      -54.043      -10.986      144.383      140.929       72.258    20846.501    19861.046     5221.204        8.017        2.296      338.105       61.466        0.033      334.907        5.187      863.173
12/28/2014  20:53:00     -406.418      -80.432      -22.812      148.019      114.509       87.113    21909.673    13112.217     7588.651       10.738        2.131      414.300       84.323        0.041      334.906        5.184      863.168
12/28/2014  20:54:00     -445.685      -87.885      -14.858      171.772      122.349       76.373    29505.469    14969.292     5832.811       12.843        2.515      454.267       74.787        0.027      334.917        5.203      863.174
12/28/2014  20:55:00     -530.160      -74.053      -30.556      218.604      127.697       74.978    47787.633    16306.544     5621.722       17.859        3.486      535.307       95.637        0.032      334.906        5.184      863.179
12/28/2014  20:56:00     -488.221      -43.170      -23.845      240.092      137.162       94.385    57644.356    18813.422     8908.588       16.306        4.268      490.126      121.504        0.061      334.949        5.257      863.217
12/28/2014  20:57:00     -451.443      -59.200      -31.546      195.731      134.724       82.715    38310.435    18150.552     6841.812       13.579        3.165      455.308       96.655        0.045      334.922        5.212      863.230
12/28/2014  20:58:00     -455.435     -107.526       -9.675      160.621      105.675       74.543    25799.034    11167.199     5556.702       13.079        2.126      467.956       82.747        0.031      334.873        5.129      863.224
12/28/2014  20:59:00     -377.838      -80.422      -16.601      138.686      116.238       66.510    19233.676    13511.213     4423.533        9.333        1.858      386.302       61.965        0.026      334.863        5.112      863.203
12/28/2014  21:00:00     -336.548     -107.279       -8.491      155.650       99.214       73.823    24226.841     9843.374     5449.781        8.217        1.976      353.233       71.153        0.041      334.825        5.050      863.208
12/28/2014  21:01:00     -404.091     -103.429      -16.963      141.933      116.361       72.441    20144.874    13539.796     5247.760       10.660        1.947      417.118       69.045        0.027      334.823        5.047      863.194
12/28/2014  21:02:00     -305.982      -69.456       -6.167      214.529      112.922       74.298    46022.823    12751.378     5520.165        8.138        3.215      313.766       94.706        0.091      334.772        4.961      863.184
12/28/2014  21:03:00     -453.893      -89.549      -20.171      201.665      130.219       86.871    40668.703    16956.999     7546.541       13.980        3.259      462.642       96.594        0.044      334.756        4.936      863.178
12/28/2014  21:04:00     -382.661     -109.008      -21.233      158.327      145.547       88.604    25067.468    21183.873     7850.644       10.642        2.705      397.885       84.100        0.045      334.814        5.031      863.191
12/28/2014  21:05:00     -351.618     -102.630      -21.461      172.059      140.974       76.431    29604.397    19873.757     5841.729        9.496        2.766      366.290       79.381        0.047      334.851        5.093      863.221
12/28/2014  21:06:00     -341.500      -72.122      -17.550      172.151      132.059       83.605    29635.831    17439.644     6989.778        8.809        2.703      349.033       91.895        0.069      334.839        5.074      863.218
12/28/2014  21:07:00     -447.907      -90.677      -27.451      156.288      135.096       74.843    24425.883    18250.821     5601.412       12.893        2.414      456.994       75.810        0.028      334.899        5.174      863.225
12/28/2014  21:08:00     -386.934      -71.852      -13.184      185.841      130.369       70.545    34536.987    16996.190     4976.572       10.577        2.825      393.549       81.164        0.043      334.857        5.104      863.216
12/28/2014  21:09:00     -366.917      -24.638      -26.027      241.418      111.481       76.688    58282.787    12427.955     5880.989       10.624        3.830      367.743       97.198        0.070      334.927        5.219      863.243
12/28/2014  21:10:00     -507.480     -110.365      -28.859      156.980      139.765       78.657    24642.695    19534.358     6186.974       16.045        2.518      519.342       86.964        0.028      334.914        5.198      863.260
12/28/2014  21:11:00     -460.480      -41.658      -41.807      151.403      111.499       90.531    22922.756    12431.958     8195.936       12.953        2.178      462.361       92.621        0.040      334.891        5.162      863.255
12/28/2014  21:12:00     -489.618      -68.008      -27.723      166.518      111.495       84.970    27728.079    12431.115     7219.962       14.624        2.369      494.319       89.504        0.033      334.870        5.125      863.238
12/28/2014  21:13:00     -445.214     -109.142      -40.052      202.392      123.154       79.664    40962.321    15166.804     6346.411       13.709        3.124      458.397       94.737        0.043      334.905        5.183      863.238
12/28/2014  21:14:00     -415.904      -61.464      -23.191      157.651      116.280       70.146    24853.810    13521.088     4920.427       11.028        2.165      420.421       75.917        0.033      334.846        5.084      863.267
12/28/2014  21:15:00     -468.884      -18.668      -28.750      155.219      103.505       77.070    24092.991    10713.348     5939.819       13.088        2.037      469.255       85.819        0.033      334.861        5.109      863.253
12/28/2014  21:16:00     -340.150      -30.676       -8.764      180.773      117.055       76.259    32678.822    13701.953     5815.485        8.445        2.610      341.530       84.008        0.061      334.859        5.106      863.242
12/28/2014  21:17:00     -415.925      -95.033      -16.437      173.569      122.994       75.150    30126.124    15127.485     5647.496       11.659        2.545      426.644       85.652        0.040      334.802        5.011      863.223
12/28/2014  21:18:00     -439.594      -16.523      -25.119      140.797      122.591       68.219    19823.776    15028.451     4653.774       11.682        1.975      439.904       65.626        0.022      334.818        5.039      863.213
12/28/2014  21:19:00     -317.772      -14.930       -7.393      124.708      114.654       61.997    15552.065    13145.497     3843.624        6.689        1.627      318.122       47.704        0.022      334.814        5.032      863.219
12/28/2014  21:20:00     -363.811      -63.257      -18.320      207.725      138.550       83.555    43149.487    19196.203     6981.393       10.300        3.466      369.269       99.108        0.072      334.815        5.032      863.228
12/28/2014  21:21:00     -380.525      -68.004      -17.007      166.319      132.590       84.868    27662.073    17580.208     7202.564       10.107        2.622      386.553       82.989        0.046      334.849        5.090      863.214
12/28/2014  21:22:00     -447.658       12.465      -27.342      217.667      126.629       98.305    47378.923    16034.942     9663.835       13.717        3.654      447.832      118.408        0.070      334.951        5.261      863.225
12/28/2014  21:23:00     -526.969      -24.274      -37.258      178.522      124.077       91.134    31870.262    15395.054     8305.464       16.761        2.779      527.528       96.631        0.034      334.935        5.233      863.256
12/28/2014  21:24:00     -482.953      -16.971      -22.699      200.351      158.511       89.806    40140.704    25125.601     8065.137       15.367        3.667      483.251      105.800        0.048      334.906        5.185      863.286
12/28/2014  21:25:00     -406.502      -89.245      -16.880      155.303      153.671       72.154    24118.981    23614.634     5206.198       11.321        2.647      416.183       74.566        0.032      334.889        5.157      863.299
12/28/2014  21:26:00     -416.038       10.671      -25.268      206.809      137.029       81.399    42769.982    18776.939     6625.788       12.099        3.409      416.175      101.827        0.060      334.939        5.239      863.298
12/28/2014  21:27:00     -353.046     -101.809      -24.617      161.798      153.544       73.631    26178.464    23575.687     5421.596        9.538        2.759      367.432       77.928        0.045      334.846        5.086      863.273
12/28/2014  21:28:00     -347.250      -86.332        0.730      170.972      140.487       70.630    29231.386    19736.550     4988.619        9.099        2.698      357.821       69.155        0.037      334.835        5.068      863.275
12/28/2014  21:29:00     -454.616      -26.468      -14.188      160.889       98.852       78.307    25885.263     9771.727     6132.007       12.467        2.089      455.386       85.504        0.035      334.831        5.060      863.299
12/28/2014  21:30:00     -301.129      -39.875      -12.317      146.196      114.726       66.107    21373.196    13162.048     4370.153        6.566        1.945      303.757       60.386        0.040      334.774        4.966      863.314
12/28/2014  21:31:00     -306.120      -17.518       -8.121      122.700      110.368       66.895    15055.228    12181.008     4474.933        6.289        1.586      306.621       62.754        0.042      334.834        5.065      863.315
12/28/2014  21:32:00     -337.452      -48.647      -15.302      137.109      120.293       69.368    18798.857    14470.493     4811.912        7.727        1.904      340.940       71.289        0.044      334.799        5.006      863.314
12/28/2014  21:33:00     -475.065     -132.243      -30.339      187.584      147.724       75.821    35187.631    21822.244     5748.751       15.342        3.138      493.128       77.586        0.025      334.790        4.991      863.321
12/28/2014  21:34:00     -342.853      -49.279      -17.030      132.321      135.116       67.588    17508.731    18256.244     4568.130        8.029        2.017      346.376       54.644        0.025      334.837        5.070      863.345
12/28/2014  21:35:00     -350.849      -59.227      -10.633      184.546      110.284       71.388    34057.146    12162.644     5096.288        8.901        2.566      355.813       85.189        0.057      334.760        4.943      863.374
12/28/2014  21:36:00     -456.074      -12.114      -41.066      142.774      112.532       79.448    20384.288    12663.381     6311.949       12.459        1.968      456.235       83.028        0.033      334.768        4.955      863.376
12/28/2014  21:37:00     -277.463      -83.531       -5.312      130.842      118.466       71.334    17119.563    14034.194     5088.492        6.011        1.812      289.764       73.929        0.065      334.752        4.928      863.368
12/28/2014  21:38:00     -290.520      -83.908      -13.328      182.196      105.873       66.489    33195.365    11209.147     4420.823        7.021        2.441      302.395       81.475        0.073      334.725        4.883      863.358
12/28/2014  21:39:00     -361.445      -77.804      -14.345      200.254      138.975       87.277    40101.673    19313.977     7617.294       10.195        3.352      369.725       79.277        0.046      334.805        5.017      863.349
12/28/2014  21:40:00     -325.122     -142.095      -14.414      160.335      153.726       75.754    25707.247    23631.760     5738.634        9.058        2.754      354.817       73.706        0.043      334.790        4.992      863.331
12/28/2014  21:41:00     -244.828      -68.235       -4.290      156.030      140.794       70.700    24345.259    19822.854     4998.533        5.688        2.458      254.159       63.530        0.062      334.774        4.966      863.340
12/28/2014  21:42:00     -369.837      -55.909       -7.650      177.643      151.994       78.071    31557.138    23102.326     6095.006       10.035        3.038      374.039       81.508        0.047      334.815        5.033      863.347
12/28/2014  21:43:00     -417.684      -78.602      -20.066      164.346      138.560       77.860    27009.729    19198.739     6062.172       11.665        2.614      425.016       84.210        0.039      334.827        5.053      863.354
12/28/2014  21:44:00     -289.561      -76.400        8.391      227.220      142.307       85.445    51629.022    20251.219     7300.905        8.445        3.959      299.470       99.792        0.111      334.791        4.995      863.350
12/28/2014  21:45:00     -353.904      -56.467      -13.334      194.282      158.057       78.505    37745.632    24982.100     6163.105        9.874        3.445      358.381       90.183        0.063      334.813        5.030      863.363
12/28/2014  21:46:00     -413.194      -79.480      -30.876      211.483      159.364       75.578    44725.194    25396.894     5711.971       12.690        3.792      420.769       70.870        0.028      334.824        5.048      863.369
12/28/2014  21:47:00     -368.142      -49.447      -17.165      144.531      124.000       76.744    20889.269    15376.029     5889.638        9.020        2.108      371.448       72.278        0.038      334.818        5.038      863.389
12/28/2014  21:48:00     -457.402      -61.131      -29.520      180.613      162.745       88.147    32620.986    26485.978     7769.930       14.034        3.344      461.469       94.388        0.042      334.774        4.965      863.394
12/28/2014  21:49:00     -427.176      -37.855      -14.071      169.433      129.025       80.670    28707.630    16647.573     6507.696       11.798        2.593      428.850       92.923        0.047      334.771        4.959      863.391
12/28/2014  21:50:00     -357.454      -68.616      -17.982      145.765      112.133       71.648    21247.551    12573.861     5133.413        8.587        1.948      363.980       75.121        0.043      334.723        4.879      863.381
12/28/2014  21:51:00     -374.419     -107.493      -42.693      146.022      103.365       64.623    21322.537    10684.378     4176.106        9.487        1.809      389.544       54.665        0.020      334.714        4.864      863.386
12/28/2014  21:52:00     -342.441     -113.751      -32.307      151.057      141.215       66.230    22818.129    19941.641     4386.453        8.919        2.357      360.840       67.971        0.035      334.677        4.803      863.407
12/28/2014  21:53:00     -312.011      -67.645       -0.398      187.832      148.664       83.251    35280.696    22100.854     6930.707        8.311        3.216      319.260       95.886        0.090      334.667        4.786      863.410
12/28/2014  21:54:00     -287.046      -16.954      -10.916      125.125       97.204       72.428    15656.166     9448.623     5245.807        5.657        1.518      287.546       72.696        0.064      334.662        4.778      863.396
12/28/2014  21:55:00     -273.755     -107.011      -16.785      125.154      101.527       63.012    15663.593    10307.796     3970.535        5.830        1.497      293.927       49.094        0.028      334.605        4.684      863.390
12/28/2014  21:56:00     -296.911      -35.128       -3.270      209.728      130.579       71.963    43986.006    17050.874     5178.650        7.779        3.311      298.982       92.073        0.095      334.623        4.713      863.372
12/28/2014  21:57:00     -332.237      -33.105      -11.183      116.826      112.739       65.085    13648.323    12710.145     4236.118        7.109        1.530      333.882       61.560        0.034      334.608        4.690      863.397
12/28/2014  21:58:00     -350.515      -55.947      -13.502      126.000      117.791       68.534    15876.118    13874.776     4696.851        8.030        1.722      354.952       67.238        0.036      334.585        4.651      863.418
12/28/2014  21:59:00     -252.396      -58.974       -6.400      169.691      113.990       62.043    28795.080    12993.630     3849.309        5.642        2.282      259.194       64.443        0.062      334.578        4.640      863.415
12/28/2014  22:00:00     -310.114      -27.329      -17.842      146.556      103.951       62.758    21478.687    10805.871     3938.619        6.672        1.811      311.316       68.891        0.049      334.594        4.666      863.380
12/28/2014  22:01:00     -330.125       -9.882      -11.115      144.715      101.339       67.464    20942.546    10269.577     4551.363        7.248        1.788      330.273       71.248        0.047      334.545        4.583      863.350
12/28/2014  22:02:00     -368.802      -67.509      -14.901      156.492      152.747       79.380    24489.768    23331.497     6301.166        9.745        2.706      374.930       83.601        0.050      334.577        4.636      863.356
12/28/2014  22:03:00     -369.126       -6.272      -22.638      163.181      103.740       67.082    26627.916    10762.025     4500.038        8.934        2.094      369.179       73.185        0.039      334.600        4.676      863.368
12/28/2014  22:04:00     -378.484      -99.599      -17.422      162.220      110.893       76.799    26315.241    12297.214     5898.103        9.898        2.226      391.369       77.449        0.039      334.543        4.583      863.361
12/28/2014  22:05:00     -348.126      -48.377      -29.700      178.996      135.881       71.249    32039.507    18463.513     5076.364        8.999        2.779      351.471       90.825        0.067      334.561        4.610      863.344
12/28/2014  22:06:00     -284.197     -105.267       -7.587      146.948      137.023       63.104    21593.570    18775.372     3982.116        6.812        2.218      303.066       63.640        0.044      334.541        4.578      863.358
12/28/2014  22:07:00     -280.382      -52.982      -21.514      118.873      121.222       64.225    14130.865    14694.837     4124.880        5.741        1.648      285.344       64.466        0.051      334.553        4.596      863.391
12/28/2014  22:08:00     -201.873      -81.816        5.726       97.817      131.084       66.827     9568.185    17183.080     4465.820        3.934        1.561      217.822       64.329        0.087      334.535        4.568      863.384
12/28/2014  22:09:00     -298.731      -82.155      -10.382      155.065      132.412       60.414    24045.055    17533.030     3649.854        7.065        2.261      309.822       68.041        0.048      334.538        4.573      863.356
12/28/2014  22:10:00     -320.364      -78.474      -15.793      165.259      134.464       72.403    27310.688    18080.600     5242.229        7.983        2.532      329.835       78.881        0.057      334.493        4.498      863.380
12/28/2014  22:11:00     -356.059      -24.493      -19.988      115.885      121.831       56.894    13429.369    14842.769     3236.872        7.964        1.575      356.900       49.474        0.019      334.541        4.577      863.405
12/28/2014  22:12:00     -386.840      -72.511      -14.453      139.030      137.947       69.342    19329.316    19029.386     4808.282        9.913        2.158      393.577       59.557        0.023      334.515        4.536      863.420
12/28/2014  22:13:00     -397.056      -99.389      -16.594      150.843      140.683       80.406    22753.568    19791.616     6465.196       10.840        2.451      409.306       82.852        0.041      334.538        4.572      863.418
12/28/2014  22:14:00     -234.589      -36.316       -3.728      121.415      124.173       56.932    14741.498    15418.992     3241.259        4.488        1.670      237.383       44.436        0.035      334.544        4.583      863.424
12/28/2014  22:15:00     -380.280      -51.731       -5.137      163.871      107.337       67.066    26853.561    11521.261     4497.787        9.509        2.144      383.782       76.369        0.040      334.505        4.519      863.425
12/28/2014  22:16:00     -427.588      -97.978      -15.819      190.647      123.160       74.540    36346.389    15168.480     5556.257       12.486        2.854      438.670       89.474        0.042      334.592        4.663      863.437
12/28/2014  22:17:00     -331.640      -99.208       -1.331      134.456      109.839       67.673    18078.323    12064.598     4579.699        7.727        1.736      346.161       68.856        0.040      334.553        4.597      863.419
12/28/2014  22:18:00     -384.369      -57.500      -16.133      147.833       92.489       63.495    21854.575     8554.182     4031.615        9.287        1.722      388.646       69.747        0.032      334.513        4.532      863.424
12/28/2014  22:19:00     -298.916      -25.543       -2.303      134.016      106.676       63.178    17960.252    11379.772     3991.423        6.166        1.667      300.005       70.211        0.055      334.516        4.536      863.405
12/28/2014  22:20:00     -385.152      -77.998       -8.013      175.164      118.919       71.059    30682.490    14141.727     5049.362       10.217        2.494      392.970       90.473        0.053      334.563        4.613      863.396
12/28/2014  22:21:00     -389.214      -37.699      -21.090      171.317      105.502       66.325    29349.670    11130.643     4398.999        9.911        2.244      391.035       80.870        0.043      334.569        4.625      863.415
12/28/2014  22:22:00     -298.936      -23.246      -10.995      123.411      129.315       65.620    15230.389    16722.453     4305.959        6.313        1.813      299.838       65.259        0.047      334.532        4.562      863.417
12/28/2014  22:23:00     -323.272      -89.975       -7.877      139.180      156.008       65.350    19371.164    24338.503     4270.630        8.031        2.399      335.559       73.396        0.048      334.468        4.458      863.428
12/28/2014  22:24:00     -268.668      -59.680       -3.652      155.758      145.304       63.961    24260.472    21113.272     4090.987        6.260        2.473      275.217       80.118        0.085      334.464        4.452      863.429
12/28/2014  22:25:00     -356.564      -57.241      -11.293      133.330      124.209       74.143    17776.973    15427.885     5497.147        8.461        1.935      361.129       71.796        0.040      334.503        4.514      863.414
12/28/2014  22:26:00     -386.183      -95.378      -16.440      122.508      110.781       62.316    15008.242    12272.383     3883.238        9.483        1.558      397.787       62.089        0.024      334.534        4.567      863.408
12/28/2014  22:27:00     -292.058      -30.119       -5.305      166.195      110.906       68.993    27620.694    12300.158     4760.076        6.545        2.234      293.607       88.874        0.092      334.477        4.472      863.435
12/28/2014  22:28:00     -297.992      -81.447        1.579      172.520      124.280       81.234    29763.197    15445.481     6598.965        7.361        2.590      308.922       90.639        0.086      334.432        4.399      863.427
12/28/2014  22:29:00     -400.433      -29.690      -43.829      121.456       96.880       52.243    14751.552     9385.668     2729.338        9.500        1.343      401.532       41.300        0.011      334.508        4.522      863.428
12/28/2014  22:30:00     -244.936      -51.112       -6.329      136.887      102.972       63.693    18738.077    10603.333     4056.744        4.802        1.670      250.212       62.310        0.062      334.497        4.506      863.428
12/28/2014  22:31:00     -341.914      -62.897      -19.740      126.360      116.686       65.869    15966.786    13615.695     4338.751        7.758        1.696      347.651       71.039        0.042      334.440        4.411      863.432
12/28/2014  22:32:00     -354.239      -44.799       -5.794      151.319      110.972       64.408    22897.404    12314.696     4148.403        8.344        1.968      357.061       75.338        0.045      334.411        4.364      863.436
12/28/2014  22:33:00     -393.760      -46.182      -22.008      118.985      111.944       64.844    14157.353    12531.537     4204.802        9.427        1.545      396.459       62.175        0.025      334.468        4.456      863.433
12/28/2014  22:34:00     -367.852      -23.159      -31.827      111.127      112.328       62.175    12349.189    12617.637     3865.671        8.284        1.442      368.580       54.312        0.022      334.512        4.529      863.431
12/28/2014  22:35:00     -282.230      -41.949       -7.380      114.835      107.148       54.890    13187.007    11480.703     3012.859        5.457        1.384      285.330       55.604        0.038      334.414        4.369      863.405
12/28/2014  22:36:00     -322.608      -95.479      -20.309       98.353      121.994       48.765     9673.268    14882.601     2378.058        7.026        1.347      336.441       42.886        0.016      334.434        4.400      863.386
12/28/2014  22:37:00     -242.394      -86.335      -12.455      126.897      114.863       54.966    16102.725    13193.428     3021.251        4.933        1.616      257.310       67.094        0.068      334.369        4.293      863.368
12/28/2014  22:38:00     -234.123        8.927        0.521      155.427      102.678       58.916    24157.495    10542.852     3471.070        4.652        1.909      234.293       73.806        0.099      334.464        4.452      863.337
12/28/2014  22:39:00     -378.905      -74.658      -14.928      143.836      177.700       66.231    20688.747    31577.175     4386.570       10.300        2.833      386.190       56.077        0.021      334.513        4.533      863.315
12/28/2014  22:40:00     -413.803      -44.697      -42.291      138.365      121.473       56.312    19144.907    14755.742     3171.011       10.604        1.854      416.210       63.257        0.023      334.469        4.458      863.325
12/28/2014  22:41:00     -366.260      -61.577      -14.529      137.950      117.892       65.499    19030.147    13898.532     4290.094        8.768        1.861      371.401       62.564        0.028      334.533        4.564      863.309
12/28/2014  22:42:00     -295.236     -114.735      -16.767      120.172      134.343       73.429    14441.248    18048.160     5391.807        6.924        1.894      316.746       59.299        0.035      334.407        4.355      863.284
12/28/2014  22:43:00     -303.447      -85.976       -6.120      168.019      129.504       80.975    28230.336    16771.240     6556.988        7.552        2.578      315.392       91.091        0.083      334.422        4.382      863.289
12/28/2014  22:44:00     -377.041      -81.679      -28.980      149.487      111.793       62.981    22346.385    12497.573     3966.586        9.423        1.941      385.787       68.181        0.031      334.387        4.325      863.321
12/28/2014  22:45:00     -301.124     -144.599      -19.369      147.362      121.279       68.295    21715.430    14708.691     4664.176        7.652        2.054      334.043       74.457        0.050      334.382        4.314      863.318
12/28/2014  22:46:00     -332.589      -53.893      -11.536      186.934      122.168       78.652    34944.152    14925.100     6186.189        8.484        2.803      336.927       84.549        0.063      334.380        4.311      863.326
12/28/2014  22:47:00     -245.444      -62.302       -1.941      195.059      144.102       78.789    38048.066    20765.476     6207.743        6.456        3.251      253.228       86.041        0.115      334.438        4.407      863.319
12/28/2014  22:48:00     -325.315      -64.632       -8.159      139.478       97.445       70.222    19454.094     9495.561     4931.174        7.197        1.694      331.673       77.939        0.055      334.383        4.316      863.304
12/28/2014  22:49:00     -239.405      -25.687      -10.669      142.031       96.430       53.674    20172.875     9298.701     2880.858        4.521        1.618      240.779       64.653        0.072      334.392        4.331      863.245
12/28/2014  22:50:00     -225.113      -36.458       12.863      174.392      116.163       76.507    30412.601    13493.782     5853.317        5.096        2.488      228.046       85.461        0.140      334.394        4.335      863.242
12/28/2014  22:51:00     -352.800      -23.162      -16.444      179.386      131.082       72.920    32179.161    17182.614     5317.363        8.997        2.734      353.560       90.487        0.066      334.403        4.348      863.260
12/28/2014  22:52:00     -353.151      -27.243       -9.638      201.742      145.342       87.132    40699.967    21124.270     7591.901        9.747        3.471      354.200       94.512        0.071      334.401        4.346      863.248
12/28/2014  22:53:00     -333.550      -91.174      -14.211      119.460      122.009       62.765    14270.731    14886.185     3939.425        7.643        1.655      345.787       61.262        0.031      334.424        4.384      863.226
12/28/2014  22:54:00     -430.075      -69.595      -29.586      156.627      117.352       67.171    24532.008    13771.435     4511.943       11.674        2.141      435.669       68.339        0.025      334.428        4.392      863.237
12/28/2014  22:55:00     -411.237     -109.094      -18.039      189.385      119.039       81.783    35866.567    14170.357     6688.436       11.902        2.836      425.462       91.436        0.046      334.433        4.400      863.233
12/28/2014  22:56:00     -381.225     -107.104       -5.492      185.489      148.953       69.568    34406.072    22186.932     4839.725       10.912        3.072      395.985       87.842        0.049      334.426        4.387      863.218
12/28/2014  22:57:00     -474.336      -28.769      -27.514      131.568      145.793       73.844    17310.243    21255.513     5452.901       13.529        2.201      475.208       68.895        0.021      334.504        4.517      863.224
12/28/2014  22:58:00     -324.566      -44.649      -19.404      121.795      140.419       60.964    14833.989    19717.376     3716.581        7.298        1.913      327.623       41.472        0.016      334.495        4.501      863.232
12/28/2014  22:59:00     -286.977      -65.096      -14.428      116.376      112.869       59.700    13543.445    12739.462     3564.045        5.832        1.492      294.268       52.259        0.032      334.505        4.518      863.258
12/28/2014  23:00:00     -284.196     -114.469        9.844      150.907      140.165       86.753    22772.977    19646.354     7526.072        7.195        2.497      306.383       84.531        0.076      334.435        4.402      863.246
12/28/2014  23:01:00     -408.514      -32.991      -18.129      156.553      117.180       73.011    24508.778    13731.110     5330.649       10.593        2.179      409.844       76.270        0.035      334.454        4.434      863.232
12/28/2014  23:02:00     -288.020      -86.290       -2.067      156.955      122.354       73.228    24634.770    14970.595     5362.365        6.768        2.248      300.669       81.385        0.073      334.381        4.313      863.229
12/28/2014  23:03:00     -368.140      -87.353      -19.473      190.324      119.428       73.693    36223.345    14263.030     5430.712        9.972        2.796      378.362       79.052        0.044      334.405        4.353      863.222
12/28/2014  23:04:00     -318.012      -47.737        3.373      153.999      138.612       84.380    23715.832    19213.399     7120.023        7.673        2.502      321.575       85.608        0.071      334.390        4.328      863.195
12/28/2014  23:05:00     -400.364       11.153      -25.285      152.194      119.694       68.727    23163.133    14326.573     4723.454       10.163        2.111      400.520       68.567        0.029      334.461        4.446      863.183
12/28/2014  23:06:00     -418.680      -98.436      -17.911      184.385      143.607       81.817    33997.949    20622.911     6694.057       12.330        3.066      430.096       92.351        0.046      334.510        4.527      863.185
12/28/2014  23:07:00     -371.186      -12.360      -22.215      209.127      117.442       71.042    43734.182    13792.736     5046.903       10.049        3.129      371.391       78.536        0.045      334.528        4.556      863.191
12/28/2014  23:08:00     -442.589      -43.400       -9.997      224.102      124.931       83.379    50221.743    15607.664     6952.127       13.531        3.639      444.712       99.851        0.050      334.521        4.545      863.186
12/28/2014  23:09:00     -437.684      -75.283      -10.649      181.234      164.184       98.862    32845.780    26956.458     9773.777       13.345        3.479      444.111      104.033        0.055      334.507        4.523      863.177
12/28/2014  23:10:00     -472.531      -60.262      -15.601      172.517      125.508       85.567    29762.176    15752.141     7321.719       13.999        2.642      476.358       92.225        0.037      334.474        4.467      863.170
12/28/2014  23:11:00     -488.833      -69.011      -29.893      215.608      148.044       82.629    46486.764    21917.017     6827.522       15.991        3.762      493.680       99.303        0.040      334.474        4.467      863.153
12/28/2014  23:12:00     -329.202      -36.244      -16.787      165.906      141.008       93.456    27524.901    19883.231     8734.001        8.304        2.807      331.191       92.266        0.078      334.466        4.454      863.157
12/28/2014  23:13:00     -363.246      -58.344      -26.469      160.306      128.296       69.309    25698.167    16459.899     4803.769        9.150        2.348      367.902       72.891        0.039      334.405        4.351      863.132
12/28/2014  23:14:00     -407.754      -13.087      -14.125      189.839      140.624       83.251    36038.746    19775.114     6930.660       11.468        3.137      407.964       98.235        0.058      334.422        4.381      863.104
12/28/2014  23:15:00     -369.193      -36.481      -30.131      109.296      107.520       61.792    11945.622    11560.501     3818.313        8.293        1.366      370.991       44.748        0.015      334.360        4.277      863.093
12/28/2014  23:16:00     -412.186      -85.438      -23.308      123.950      143.096       84.231    15363.657    20476.360     7094.908       11.033        2.147      420.947       73.287        0.030      334.306        4.189      863.105
12/28/2014  23:17:00     -356.064       -6.026       -5.502      150.010      124.520       67.014    22502.979    15505.239     4490.826        8.466        2.125      356.115       66.643        0.035      334.312        4.198      863.105
12/28/2014  23:18:00     -372.364      -24.421      -18.132      146.465      145.535       85.606    21452.088    21180.403     7328.438        9.476        2.498      373.164       83.934        0.051      334.337        4.241      863.096
12/28/2014  23:19:00     -469.324      -81.561      -20.672      208.309      139.460       80.572    43392.494    19449.204     6491.926       14.833        3.467      476.358       87.749        0.034      334.355        4.270      863.088
12/28/2014  23:20:00     -393.600      -55.573      -17.971      184.810      131.315       84.252    34154.764    17243.608     7098.368       10.840        2.925      397.504       96.487        0.059      334.343        4.249      863.056
12/28/2014  23:21:00     -392.359      -98.293      -12.746      187.868      168.804       87.234    35294.544    28494.722     7609.779       11.757        3.570      404.484       93.460        0.053      334.309        4.193      863.040
12/28/2014  23:22:00     -394.945     -155.235      -30.177      156.025      142.400       76.045    24343.785    20277.861     5782.814       11.569        2.520      424.358       75.114        0.031      334.271        4.129      863.043
12/28/2014  23:23:00     -584.141      -64.458      -24.884      180.705      133.574       78.502    32654.309    17842.102     6162.612       20.132        2.833      587.687       80.602        0.019      334.312        4.197      863.047
12/28/2014  23:24:00     -343.116      -43.436       -2.492      190.699      165.582       89.722    36366.232    27417.391     8049.989        9.571        3.592      345.854      103.999        0.090      334.275        4.137      863.028
12/28/2014  23:25:00     -524.663      -27.366      -37.320      144.669      127.732       72.165    20929.096    16315.482     5207.785       15.992        2.123      525.376       72.104        0.019      334.285        4.153      863.007
12/28/2014  23:26:00     -456.566      -93.015      -21.077      184.599      131.594       67.309    34076.896    17316.956     4530.458       13.673        2.796      465.945       77.650        0.028      334.298        4.174      862.998
12/28/2014  23:27:00     -385.237      -74.520      -13.324      181.790      142.401       64.015    33047.472    20277.909     4097.963       10.577        2.871      392.378       74.406        0.036      334.359        4.276      862.974
12/28/2014  23:28:00     -391.801     -116.599      -16.724      143.494      124.582       70.736    20590.426    15520.739     5003.600       10.424        2.056      408.783       71.494        0.031      334.323        4.216      862.964
12/28/2014  23:29:00     -457.608      -82.319      -14.490      169.696      114.604       68.426    28796.680    13134.134     4682.160       13.149        2.331      464.954       78.151        0.028      334.314        4.202      862.974
12/28/2014  23:30:00     -408.876     -130.416      -22.592      158.511      143.653       68.890    25125.742    20636.158     4745.889       11.759        2.525      429.171       67.140        0.024      334.306        4.188      862.951
12/28/2014  23:31:00     -326.028      -93.666      -10.505      159.183      137.356       70.417    25339.153    18866.655     4958.488        8.216        2.458      339.217       67.581        0.040      334.330        4.228      862.939
12/28/2014  23:32:00     -356.160     -101.498       -3.285      187.078      124.874       72.341    34998.139    15593.571     5233.260        9.648        2.791      370.340       72.814        0.039      334.324        4.220      862.937
12/28/2014  23:33:00     -336.095      -81.455      -13.930      129.945      135.046       69.998    16885.808    18237.323     4899.724        7.990        2.001      345.824       71.688        0.043      334.293        4.167      862.935
12/28/2014  23:34:00     -344.361      -43.926        2.921      208.535      119.734       76.462    43486.688    14336.188     5846.370        9.208        3.183      347.151       96.416        0.077      334.288        4.160      862.962
12/28/2014  23:35:00     -391.143      -42.538      -18.477      134.841      109.820       64.036    18182.091    12060.435     4100.597        9.474        1.717      393.449       64.243        0.027      334.352        4.264      862.981
12/28/2014  23:36:00     -392.982      -99.461      -15.654      151.607      109.384       70.164    22984.552    11964.925     4922.962       10.221        1.994      405.373       72.934        0.032      334.267        4.123      862.964
12/28/2014  23:37:00     -375.943     -130.227       -4.562      192.760      110.946       75.200    37156.437    12309.054     5654.980       10.671        2.756      397.860       89.886        0.051      334.285        4.154      862.925
12/28/2014  23:38:00     -444.007     -120.594      -12.846      177.194      124.898       76.693    31397.583    15599.446     5881.776       13.235        2.644      460.092       91.578        0.040      334.293        4.168      862.913
12/28/2014  23:39:00     -383.056      -86.118      -11.182      175.825      131.763       81.288    30914.363    17361.470     6607.784       10.457        2.744      392.617       83.315        0.045      334.268        4.125      862.913
12/28/2014  23:40:00     -304.608      -66.717      -15.884      169.823      145.637       74.785    28839.781    21210.037     5592.847        7.655        2.782      311.829       84.171        0.073      334.283        4.152      862.904
12/28/2014  23:41:00     -353.298     -139.913      -11.575      130.040      121.411       68.339    16910.481    14740.726     4670.218        9.042        1.816      379.994       56.519        0.022      334.226        4.054      862.888
12/28/2014  23:42:00     -374.282      -90.926      -11.060      170.423      127.294       69.149    29043.899    16203.880     4781.623        9.924        2.501      385.168       72.487        0.035      334.249        4.094      862.901
12/28/2014  23:43:00     -404.496      -68.166      -15.833      170.810      121.521       76.057    29176.220    14767.271     5784.700       10.911        2.486      410.199       87.158        0.045      334.255        4.104      862.921
12/28/2014  23:44:00     -406.510      -96.666      -17.705      171.453      113.485       73.909    29395.991    12878.841     5462.535       11.131        2.387      417.845       88.994        0.045      334.237        4.073      862.924
12/28/2014  23:45:00     -428.778      -70.546      -40.112      145.013      127.020       75.471    21028.825    16134.155     5695.946       11.664        2.143      434.543       75.597        0.030      334.244        4.084      862.895
12/28/2014  23:46:00     -452.624      -22.100      -24.949      170.591      119.084       78.454    29101.335    14181.061     6154.976       12.770        2.472      453.163       88.221        0.038      334.288        4.159      862.869
12/28/2014  23:47:00     -589.929     -106.193      -38.235      193.293      124.288       77.786    37362.024    15447.509     6050.625       20.980        2.943      599.410       89.996        0.023      334.301        4.180      862.869
12/28/2014  23:48:00     -369.663      -57.716       -2.618      170.953      126.262       83.439    29225.056    15942.169     6962.141        9.605        2.606      374.142       93.304        0.062      334.273        4.134      862.865
12/28/2014  23:49:00     -392.896     -118.095       -1.174      157.560      128.123       82.057    24825.131    16415.483     6733.414       10.814        2.399      410.261       81.790        0.040      334.242        4.082      862.870
12/28/2014  23:50:00     -347.682      -82.217       -5.032      169.222      111.982       84.888    28635.977    12540.016     7206.028        8.802        2.419      357.271       89.565        0.063      334.255        4.104      862.877
12/28/2014  23:51:00     -457.365      -37.959      -21.698      154.606      108.251       78.513    23902.990    11718.323     6164.266       12.643        2.089      458.937       84.552        0.034      334.272        4.132      862.883
12/28/2014  23:52:00     -474.231      -79.292      -34.206      181.473      159.402       83.392    32932.328    25408.882     6954.157       14.881        3.265      480.815       88.909        0.034      334.309        4.193      862.832
12/28/2014  23:53:00     -385.820      -50.049      -32.718      165.947      118.183       70.213    27538.476    13967.327     4929.806        9.942        2.322      389.053       59.504        0.023      334.315        4.204      862.798
12/28/2014  23:54:00     -360.355      -59.056       -5.098      165.291      135.009       69.625    27320.979    18227.478     4847.690        9.187        2.520      365.162       75.646        0.043      334.317        4.208      862.781
12/28/2014  23:55:00     -329.447     -134.578      -10.319      143.324      109.585       73.491    20541.665    12008.765     5400.957        8.234        1.898      355.874       76.477        0.046      334.326        4.222      862.773
12/28/2014  23:56:00     -357.158      -74.856      -32.592      191.271      152.999       78.780    36584.447    23408.822     6206.219       10.020        3.310      364.918       90.456        0.061      334.379        4.310      862.733
12/28/2014  23:57:00     -290.702      -52.490        1.299      146.265      113.209       67.113    21393.389    12816.345     4504.114        6.298        1.936      295.403       65.108        0.049      334.304        4.185      862.726
12/28/2014  23:58:00     -360.788      -62.670      -11.050      175.034      120.511       69.468    30636.785    14522.781     4825.763        9.209        2.499      366.191       80.989        0.049      334.254        4.102      862.728
12/28/2014  23:59:00     -341.425      -80.926       -0.540      173.469      124.876       66.544    30091.452    15593.995     4428.050        8.661        2.506      350.884       79.308        0.051      334.254        4.102      862.700
